<?xml version="1.0" encoding="UTF-8" standalone="no" ?>
<gpx xmlns="http://www.topografix.com/GPX/1/1" xmlns:xsi="http://www.w3.org/2001/XMLSchema-instance" xsi:schemaLocation="http://www.topografix.com/GPX/1/1 http://www.topografix.com/GPX/1/1/gpx.xsd" version="1.1" creator="VisuGPX - https://www.visugpx.com">
  <metadata>
    <name>GR®861 Via Garona (2021)</name>
    <desc><![CDATA[Randonnée sur le GR®861 Via Garona à travers la Haute-Garonne de  St-Bertrand-de-Comminges à Toulouse ]]></desc>
  </metadata>
  <trk>
    <name><![CDATA[GR®861 Via Garona (2021)]]></name>
    <desc><![CDATA[Randonnée sur le GR®861 Via Garona à travers la Haute-Garonne de Toulouse à St-Bertrand-de-Comminges. Gîtes d'étapes, Chambres d'hôtes, Maison d'hôtes, Hôtels, Camping, Refuges, Auberges, Commerces.]]></desc>
    <extensions>
      <line xmlns="http://www.topografix.com/GPX/gpx_style/0/2">
        <color>0000FF</color>
        <width>4</width>
      </line>
    </extensions>
    <trkseg>
      <trkpt lat="43.0274" lon="0.57121">
        <ele>509.171</ele>
        <time>2021-05-14T22:45:22Z</time>
      </trkpt>
      <trkpt lat="43.02709" lon="0.57172">
        <ele>509.808</ele>
        <time>2021-05-14T22:45:02Z</time>
      </trkpt>
      <trkpt lat="43.02685" lon="0.57233">
        <ele>504.222</ele>
        <time>2021-05-14T22:44:42Z</time>
      </trkpt>
      <trkpt lat="43.02682" lon="0.57271">
        <ele>496.902</ele>
        <time>2021-05-14T22:44:22Z</time>
      </trkpt>
      <trkpt lat="43.02667" lon="0.57302">
        <ele>482.349</ele>
        <time>2021-05-14T22:44:02Z</time>
      </trkpt>
      <trkpt lat="43.02685" lon="0.57311">
        <ele>481.135</ele>
        <time>2021-05-14T22:43:42Z</time>
      </trkpt>
      <trkpt lat="43.02721" lon="0.57304">
        <ele>483.821</ele>
        <time>2021-05-14T22:43:22Z</time>
      </trkpt>
      <trkpt lat="43.02719" lon="0.57314">
        <ele>479.07</ele>
        <time>2021-05-14T22:43:02Z</time>
      </trkpt>
      <trkpt lat="43.0268" lon="0.57334">
        <ele>469.885</ele>
        <time>2021-05-14T22:42:42Z</time>
      </trkpt>
      <trkpt lat="43.02698" lon="0.57345">
        <ele>468.441</ele>
        <time>2021-05-14T22:42:22Z</time>
      </trkpt>
      <trkpt lat="43.027" lon="0.57368">
        <ele>464.755</ele>
        <time>2021-05-14T22:42:02Z</time>
      </trkpt>
      <trkpt lat="43.02668" lon="0.57368">
        <ele>465.028</ele>
        <time>2021-05-14T22:41:42Z</time>
      </trkpt>
      <trkpt lat="43.02649" lon="0.57375">
        <ele>465.083</ele>
        <time>2021-05-14T22:41:22Z</time>
      </trkpt>
      <trkpt lat="43.02648" lon="0.57408">
        <ele>464.308</ele>
        <time>2021-05-14T22:41:02Z</time>
      </trkpt>
      <trkpt lat="43.0266" lon="0.57423">
        <ele>464.021</ele>
        <time>2021-05-14T22:40:42Z</time>
      </trkpt>
      <trkpt lat="43.02668" lon="0.57473">
        <ele>464.029</ele>
        <time>2021-05-14T22:40:22Z</time>
      </trkpt>
      <trkpt lat="43.02691" lon="0.5747">
        <ele>463.266</ele>
        <time>2021-05-14T22:40:02Z</time>
      </trkpt>
      <trkpt lat="43.02694" lon="0.5752">
        <ele>463.095</ele>
        <time>2021-05-14T22:39:42Z</time>
      </trkpt>
      <trkpt lat="43.02729" lon="0.5757">
        <ele>461.911</ele>
        <time>2021-05-14T22:39:22Z</time>
      </trkpt>
      <trkpt lat="43.02739" lon="0.5762">
        <ele>461.11</ele>
        <time>2021-05-14T22:39:02Z</time>
      </trkpt>
      <trkpt lat="43.02727" lon="0.57632">
        <ele>461.155</ele>
        <time>2021-05-14T22:38:42Z</time>
      </trkpt>
      <trkpt lat="43.0275" lon="0.5769">
        <ele>460.061</ele>
        <time>2021-05-14T22:38:22Z</time>
      </trkpt>
      <trkpt lat="43.0277" lon="0.5771">
        <ele>460.095</ele>
        <time>2021-05-14T22:38:02Z</time>
      </trkpt>
      <trkpt lat="43.02795" lon="0.57745">
        <ele>460.058</ele>
        <time>2021-05-14T22:37:42Z</time>
      </trkpt>
      <trkpt lat="43.02824" lon="0.57767">
        <ele>460.023</ele>
        <time>2021-05-14T22:37:22Z</time>
      </trkpt>
      <trkpt lat="43.02809" lon="0.57885">
        <ele>459.908</ele>
        <time>2021-05-14T22:37:02Z</time>
      </trkpt>
      <trkpt lat="43.02845" lon="0.58053">
        <ele>457.616</ele>
        <time>2021-05-14T22:36:42Z</time>
      </trkpt>
      <trkpt lat="43.0288" lon="0.58235">
        <ele>457.706</ele>
        <time>2021-05-14T22:36:22Z</time>
      </trkpt>
      <trkpt lat="43.02797" lon="0.58357">
        <ele>459.364</ele>
        <time>2021-05-14T22:36:02Z</time>
      </trkpt>
      <trkpt lat="43.0283" lon="0.58433">
        <ele>459.061</ele>
        <time>2021-05-14T22:35:42Z</time>
      </trkpt>
      <trkpt lat="43.02875" lon="0.58455">
        <ele>459.097</ele>
        <time>2021-05-14T22:35:22Z</time>
      </trkpt>
      <trkpt lat="43.03073" lon="0.5847">
        <ele>456.456</ele>
        <time>2020-06-02T04:46:40Z</time>
      </trkpt>
      <trkpt lat="43.03069" lon="0.58694">
        <ele>457.531</ele>
        <time>2020-06-02T04:46:20Z</time>
      </trkpt>
      <trkpt lat="43.03079" lon="0.58791">
        <ele>458.087</ele>
        <time>2020-06-02T04:46:00Z</time>
      </trkpt>
      <trkpt lat="43.0307" lon="0.58974">
        <ele>458.061</ele>
        <time>2020-06-02T04:45:40Z</time>
      </trkpt>
      <trkpt lat="43.03164" lon="0.59023">
        <ele>459.844</ele>
        <time>2020-06-02T04:45:20Z</time>
      </trkpt>
      <trkpt lat="43.03236" lon="0.59028">
        <ele>460.019</ele>
        <time>2020-06-02T04:45:00Z</time>
      </trkpt>
      <trkpt lat="43.0331" lon="0.59086">
        <ele>456.708</ele>
        <time>2020-06-02T04:44:40Z</time>
      </trkpt>
      <trkpt lat="43.03377" lon="0.59153">
        <ele>450.308</ele>
        <time>2020-06-02T04:44:20Z</time>
      </trkpt>
      <trkpt lat="43.03312" lon="0.59365">
        <ele>448.626</ele>
        <time>2020-06-02T04:43:40Z</time>
      </trkpt>
      <trkpt lat="43.03407" lon="0.59348">
        <ele>446.425</ele>
        <time>2020-06-02T04:43:20Z</time>
      </trkpt>
      <trkpt lat="43.03482" lon="0.59305">
        <ele>438.016</ele>
        <time>2020-06-02T04:43:00Z</time>
      </trkpt>
      <trkpt lat="43.03574" lon="0.59332">
        <ele>437.622</ele>
        <time>2020-06-02T04:42:40Z</time>
      </trkpt>
      <trkpt lat="43.03804" lon="0.59285">
        <ele>464.981</ele>
        <time>2020-06-02T04:41:40Z</time>
      </trkpt>
      <trkpt lat="43.03803" lon="0.59194">
        <ele>464.916</ele>
        <time>2021-05-14T22:30:42Z</time>
      </trkpt>
      <trkpt lat="43.03811" lon="0.59053">
        <ele>465.042</ele>
        <time>2020-06-02T04:41:20Z</time>
      </trkpt>
      <trkpt lat="43.03811" lon="0.58929">
        <ele>465.086</ele>
        <time>2020-06-02T04:41:00Z</time>
      </trkpt>
      <trkpt lat="43.03743" lon="0.58773">
        <ele>462.499</ele>
        <time>2020-06-02T04:40:40Z</time>
      </trkpt>
      <trkpt lat="43.03735" lon="0.58678">
        <ele>458.464</ele>
        <time>2020-06-02T04:40:20Z</time>
      </trkpt>
      <trkpt lat="43.03752" lon="0.58464">
        <ele>455.008</ele>
        <time>2020-06-02T04:40:00Z</time>
      </trkpt>
      <trkpt lat="43.03785" lon="0.58279">
        <ele>449.027</ele>
        <time>2020-06-02T04:39:40Z</time>
      </trkpt>
      <trkpt lat="43.03805" lon="0.58231">
        <ele>449.061</ele>
        <time>2020-06-02T04:39:20Z</time>
      </trkpt>
      <trkpt lat="43.03815" lon="0.58173">
        <ele>449.377</ele>
        <time>2020-06-02T04:39:00Z</time>
      </trkpt>
      <trkpt lat="43.03842" lon="0.58087">
        <ele>452.567</ele>
        <time>2020-06-02T04:38:40Z</time>
      </trkpt>
      <trkpt lat="43.03838" lon="0.57994">
        <ele>456.273</ele>
        <time>2020-06-02T04:38:20Z</time>
      </trkpt>
      <trkpt lat="43.03824" lon="0.57766">
        <ele>469.942</ele>
        <time>2020-06-02T04:38:00Z</time>
      </trkpt>
      <trkpt lat="43.03838" lon="0.57638">
        <ele>473.227</ele>
        <time>2020-06-02T04:37:40Z</time>
      </trkpt>
      <trkpt lat="43.03861" lon="0.57584">
        <ele>474.173</ele>
        <time>2020-06-02T04:37:20Z</time>
      </trkpt>
      <trkpt lat="43.0388" lon="0.57518">
        <ele>473.717</ele>
        <time>2020-06-02T04:37:00Z</time>
      </trkpt>
      <trkpt lat="43.0389" lon="0.5745">
        <ele>470.61</ele>
        <time>2020-06-02T04:36:40Z</time>
      </trkpt>
      <trkpt lat="43.03921" lon="0.57351">
        <ele>468.185</ele>
        <time>2020-06-02T04:36:20Z</time>
      </trkpt>
      <trkpt lat="43.03954" lon="0.57304">
        <ele>469.408</ele>
        <time>2020-06-02T04:36:00Z</time>
      </trkpt>
      <trkpt lat="43.03956" lon="0.57272">
        <ele>469.017</ele>
        <time>2020-06-02T04:35:40Z</time>
      </trkpt>
      <trkpt lat="43.03942" lon="0.57161">
        <ele>464.743</ele>
        <time>2020-06-02T04:35:20Z</time>
      </trkpt>
      <trkpt lat="43.03953" lon="0.57079">
        <ele>464.482</ele>
        <time>2020-06-02T04:35:00Z</time>
      </trkpt>
      <trkpt lat="43.03988" lon="0.57006">
        <ele>454.817</ele>
        <time>2020-06-02T04:34:40Z</time>
      </trkpt>
      <trkpt lat="43.0401" lon="0.56952">
        <ele>449.383</ele>
        <time>2020-06-02T04:34:20Z</time>
      </trkpt>
      <trkpt lat="43.04081" lon="0.56909">
        <ele>448.742</ele>
        <time>2020-06-02T04:34:00Z</time>
      </trkpt>
      <trkpt lat="43.0413" lon="0.56906">
        <ele>448.617</ele>
        <time>2020-06-02T04:33:40Z</time>
      </trkpt>
      <trkpt lat="43.04202" lon="0.56878">
        <ele>448.283</ele>
        <time>2020-06-02T04:33:20Z</time>
      </trkpt>
      <trkpt lat="43.04266" lon="0.5684">
        <ele>448.067</ele>
        <time>2020-06-02T04:33:00Z</time>
      </trkpt>
      <trkpt lat="43.0431" lon="0.56819">
        <ele>447.51</ele>
        <time>2020-06-02T04:32:40Z</time>
      </trkpt>
      <trkpt lat="43.0435" lon="0.56787">
        <ele>447.075</ele>
        <time>2020-06-02T04:32:20Z</time>
      </trkpt>
      <trkpt lat="43.04403" lon="0.56732">
        <ele>446.308</ele>
        <time>2020-06-02T04:32:00Z</time>
      </trkpt>
      <trkpt lat="43.0449" lon="0.56689">
        <ele>446.017</ele>
        <time>2020-06-02T04:31:40Z</time>
      </trkpt>
      <trkpt lat="43.04545" lon="0.56676">
        <ele>446.061</ele>
        <time>2020-06-02T04:31:20Z</time>
      </trkpt>
      <trkpt lat="43.04614" lon="0.56666">
        <ele>446.081</ele>
        <time>2020-06-02T04:31:00Z</time>
      </trkpt>
      <trkpt lat="43.04625" lon="0.56752">
        <ele>447.078</ele>
        <time>2020-06-02T04:30:40Z</time>
      </trkpt>
      <trkpt lat="43.04653" lon="0.56885">
        <ele>449.084</ele>
        <time>2020-06-02T04:30:20Z</time>
      </trkpt>
      <trkpt lat="43.04698" lon="0.5684">
        <ele>449.143</ele>
        <time>2020-06-02T04:30:00Z</time>
      </trkpt>
      <trkpt lat="43.04823" lon="0.56786">
        <ele>449.098</ele>
        <time>2020-06-02T04:29:40Z</time>
      </trkpt>
      <trkpt lat="43.04901" lon="0.56758">
        <ele>448.364</ele>
        <time>2020-06-02T04:29:20Z</time>
      </trkpt>
      <trkpt lat="43.04983" lon="0.56754">
        <ele>447.738</ele>
        <time>2020-06-02T04:29:00Z</time>
      </trkpt>
      <trkpt lat="43.05089" lon="0.56736">
        <ele>446.951</ele>
        <time>2020-06-02T04:28:40Z</time>
      </trkpt>
      <trkpt lat="43.05147" lon="0.56748">
        <ele>445.646</ele>
        <time>2020-06-02T04:28:20Z</time>
      </trkpt>
      <trkpt lat="43.05206" lon="0.56778">
        <ele>445.008</ele>
        <time>2020-06-02T04:28:00Z</time>
      </trkpt>
      <trkpt lat="43.0523" lon="0.56819">
        <ele>445.521</ele>
        <time>2020-06-02T04:27:40Z</time>
      </trkpt>
      <trkpt lat="43.05257" lon="0.56767">
        <ele>444.265</ele>
        <time>2020-06-02T04:27:20Z</time>
      </trkpt>
      <trkpt lat="43.05294" lon="0.56717">
        <ele>443.893</ele>
        <time>2020-06-02T04:27:00Z</time>
      </trkpt>
      <trkpt lat="43.05304" lon="0.56651">
        <ele>441.583</ele>
        <time>2020-06-02T04:26:40Z</time>
      </trkpt>
      <trkpt lat="43.05325" lon="0.5661">
        <ele>440.399</ele>
        <time>2020-06-02T04:26:20Z</time>
      </trkpt>
      <trkpt lat="43.05444" lon="0.56477">
        <ele>438.068</ele>
        <time>2020-06-02T04:26:00Z</time>
      </trkpt>
      <trkpt lat="43.0556" lon="0.56378">
        <ele>435.023</ele>
        <time>2020-06-02T04:25:40Z</time>
      </trkpt>
      <trkpt lat="43.05608" lon="0.56482">
        <ele>441.199</ele>
        <time>2020-06-02T04:25:20Z</time>
      </trkpt>
      <trkpt lat="43.05639" lon="0.56474">
        <ele>445.483</ele>
        <time>2020-06-02T04:25:00Z</time>
      </trkpt>
      <trkpt lat="43.05693" lon="0.56478">
        <ele>451.546</ele>
        <time>2020-06-02T04:24:40Z</time>
      </trkpt>
      <trkpt lat="43.05829" lon="0.56468">
        <ele>460.931</ele>
        <time>2020-06-02T04:24:20Z</time>
      </trkpt>
      <trkpt lat="43.05896" lon="0.56464">
        <ele>467.308</ele>
        <time>2020-06-02T04:24:00Z</time>
      </trkpt>
      <trkpt lat="43.05956" lon="0.56444">
        <ele>469.522</ele>
        <time>2020-06-02T04:23:40Z</time>
      </trkpt>
      <trkpt lat="43.06027" lon="0.56423">
        <ele>479.302</ele>
        <time>2020-06-02T04:23:20Z</time>
      </trkpt>
      <trkpt lat="43.06034" lon="0.56382">
        <ele>475.849</ele>
        <time>2020-06-02T04:23:00Z</time>
      </trkpt>
      <trkpt lat="43.06052" lon="0.5638">
        <ele>478.733</ele>
        <time>2020-06-02T04:22:40Z</time>
      </trkpt>
      <trkpt lat="43.06057" lon="0.56355">
        <ele>475.239</ele>
        <time>2020-06-02T04:22:20Z</time>
      </trkpt>
      <trkpt lat="43.06148" lon="0.56329">
        <ele>477.948</ele>
        <time>2020-06-02T04:22:00Z</time>
      </trkpt>
      <trkpt lat="43.0615" lon="0.56305">
        <ele>472.443</ele>
        <time>2020-06-02T04:21:40Z</time>
      </trkpt>
      <trkpt lat="43.0619" lon="0.56297">
        <ele>476.499</ele>
        <time>2020-06-02T04:21:20Z</time>
      </trkpt>
      <trkpt lat="43.06238" lon="0.56264">
        <ele>480.463</ele>
        <time>2020-06-02T04:21:00Z</time>
      </trkpt>
      <trkpt lat="43.06326" lon="0.56137">
        <ele>481.236</ele>
        <time>2020-06-02T04:20:40Z</time>
      </trkpt>
      <trkpt lat="43.06385" lon="0.56088">
        <ele>480.971</ele>
        <time>2020-06-02T04:20:20Z</time>
      </trkpt>
      <trkpt lat="43.06427" lon="0.55993">
        <ele>474.108</ele>
        <time>2020-06-02T04:20:00Z</time>
      </trkpt>
      <trkpt lat="43.06457" lon="0.55979">
        <ele>477.914</ele>
        <time>2020-06-02T04:19:40Z</time>
      </trkpt>
      <trkpt lat="43.06486" lon="0.56001">
        <ele>478.622</ele>
        <time>2020-06-02T04:19:20Z</time>
      </trkpt>
      <trkpt lat="43.06516" lon="0.56053">
        <ele>478.242</ele>
        <time>2020-06-02T04:19:00Z</time>
      </trkpt>
      <trkpt lat="43.06541" lon="0.56083">
        <ele>477.152</ele>
        <time>2020-06-02T04:18:40Z</time>
      </trkpt>
      <trkpt lat="43.06602" lon="0.56161">
        <ele>474.628</ele>
        <time>2020-06-02T04:18:20Z</time>
      </trkpt>
      <trkpt lat="43.06628" lon="0.56158">
        <ele>470.517</ele>
        <time>2020-06-02T04:18:00Z</time>
      </trkpt>
      <trkpt lat="43.06656" lon="0.56172">
        <ele>467.072</ele>
        <time>2020-06-02T04:17:40Z</time>
      </trkpt>
      <trkpt lat="43.06696" lon="0.56209">
        <ele>462.858</ele>
        <time>2020-06-02T04:17:20Z</time>
      </trkpt>
      <trkpt lat="43.06748" lon="0.5624">
        <ele>455.972</ele>
        <time>2020-06-02T04:17:00Z</time>
      </trkpt>
      <trkpt lat="43.06803" lon="0.56281">
        <ele>452.415</ele>
        <time>2020-06-02T04:16:40Z</time>
      </trkpt>
      <trkpt lat="43.0682" lon="0.56307">
        <ele>451.03</ele>
        <time>2020-06-02T04:16:20Z</time>
      </trkpt>
      <trkpt lat="43.06827" lon="0.56361">
        <ele>451.708</ele>
        <time>2020-06-02T04:16:00Z</time>
      </trkpt>
      <trkpt lat="43.06813" lon="0.56413">
        <ele>453.918</ele>
        <time>2021-05-14T22:04:42Z</time>
      </trkpt>
      <trkpt lat="43.06818" lon="0.56439">
        <ele>454.817</ele>
        <time>2020-06-02T04:15:40Z</time>
      </trkpt>
      <trkpt lat="43.06871" lon="0.56325">
        <ele>448.236</ele>
        <time>2020-06-02T04:15:20Z</time>
      </trkpt>
      <trkpt lat="43.06871" lon="0.56293">
        <ele>441.892</ele>
        <time>2020-06-02T04:15:00Z</time>
      </trkpt>
      <trkpt lat="43.06883" lon="0.56288">
        <ele>440.978</ele>
        <time>2020-06-02T04:14:40Z</time>
      </trkpt>
      <trkpt lat="43.06927" lon="0.56236">
        <ele>438.397</ele>
        <time>2020-06-02T04:14:20Z</time>
      </trkpt>
      <trkpt lat="43.06952" lon="0.56218">
        <ele>435.992</ele>
        <time>2020-06-02T04:14:00Z</time>
      </trkpt>
      <trkpt lat="43.07021" lon="0.56223">
        <ele>434.388</ele>
        <time>2020-06-02T04:13:40Z</time>
      </trkpt>
      <trkpt lat="43.07128" lon="0.56243">
        <ele>427.222</ele>
        <time>2020-06-02T04:13:20Z</time>
      </trkpt>
      <trkpt lat="43.07222" lon="0.56245">
        <ele>422.385</ele>
        <time>2020-06-02T04:13:00Z</time>
      </trkpt>
      <trkpt lat="43.07239" lon="0.56249">
        <ele>421.72</ele>
        <time>2020-06-02T04:12:40Z</time>
      </trkpt>
      <trkpt lat="43.07291" lon="0.56286">
        <ele>425.608</ele>
        <time>2020-06-02T04:12:20Z</time>
      </trkpt>
      <trkpt lat="43.07338" lon="0.56333">
        <ele>425.011</ele>
        <time>2020-06-02T04:12:00Z</time>
      </trkpt>
      <trkpt lat="43.07367" lon="0.56373">
        <ele>425.492</ele>
        <time>2020-06-02T04:11:40Z</time>
      </trkpt>
      <trkpt lat="43.07396" lon="0.56416">
        <ele>424.632</ele>
        <time>2020-06-02T04:11:20Z</time>
      </trkpt>
      <trkpt lat="43.07413" lon="0.56457">
        <ele>423.173</ele>
        <time>2020-06-02T04:11:00Z</time>
      </trkpt>
      <trkpt lat="43.07422" lon="0.56492">
        <ele>422.749</ele>
        <time>2020-06-02T04:10:40Z</time>
      </trkpt>
      <trkpt lat="43.0743" lon="0.56569">
        <ele>425.338</ele>
        <time>2020-06-02T04:10:20Z</time>
      </trkpt>
      <trkpt lat="43.07434" lon="0.566">
        <ele>426.823</ele>
        <time>2020-06-02T04:10:00Z</time>
      </trkpt>
      <trkpt lat="43.07425" lon="0.56624">
        <ele>428.829</ele>
        <time>2020-06-02T04:09:40Z</time>
      </trkpt>
      <trkpt lat="43.07425" lon="0.56656">
        <ele>428.453</ele>
        <time>2020-06-02T04:09:20Z</time>
      </trkpt>
      <trkpt lat="43.07408" lon="0.56694">
        <ele>430.946</ele>
        <time>2020-06-02T04:09:00Z</time>
      </trkpt>
      <trkpt lat="43.07409" lon="0.56717">
        <ele>430.081</ele>
        <time>2020-06-02T04:08:40Z</time>
      </trkpt>
      <trkpt lat="43.07389" lon="0.56741">
        <ele>430.708</ele>
        <time>2020-06-02T04:08:20Z</time>
      </trkpt>
      <trkpt lat="43.07319" lon="0.5684">
        <ele>438.315</ele>
        <time>2020-06-02T04:08:00Z</time>
      </trkpt>
      <trkpt lat="43.07302" lon="0.5687">
        <ele>439.205</ele>
        <time>2020-06-02T04:07:40Z</time>
      </trkpt>
      <trkpt lat="43.0727" lon="0.56976">
        <ele>437.344</ele>
        <time>2020-06-02T04:07:20Z</time>
      </trkpt>
      <trkpt lat="43.07224" lon="0.57061">
        <ele>440.584</ele>
        <time>2020-06-02T04:07:00Z</time>
      </trkpt>
      <trkpt lat="43.07165" lon="0.5715">
        <ele>439.55</ele>
        <time>2020-06-02T04:06:40Z</time>
      </trkpt>
      <trkpt lat="43.07143" lon="0.57194">
        <ele>437.949</ele>
        <time>2020-06-02T04:06:20Z</time>
      </trkpt>
      <trkpt lat="43.07125" lon="0.5725">
        <ele>436.534</ele>
        <time>2020-06-02T04:06:00Z</time>
      </trkpt>
      <trkpt lat="43.07113" lon="0.57288">
        <ele>435.53</ele>
        <time>2020-06-02T04:05:40Z</time>
      </trkpt>
      <trkpt lat="43.07087" lon="0.57313">
        <ele>435.694</ele>
        <time>2020-06-02T04:05:20Z</time>
      </trkpt>
      <trkpt lat="43.07082" lon="0.57312">
        <ele>435.877</ele>
        <time>2020-06-02T04:05:00Z</time>
      </trkpt>
      <trkpt lat="43.0706" lon="0.57333">
        <ele>435.952</ele>
        <time>2020-06-02T04:04:40Z</time>
      </trkpt>
      <trkpt lat="43.07051" lon="0.57353">
        <ele>435.508</ele>
        <time>2020-06-02T04:04:20Z</time>
      </trkpt>
      <trkpt lat="43.07035" lon="0.57422">
        <ele>434.32</ele>
        <time>2020-06-02T04:04:00Z</time>
      </trkpt>
      <trkpt lat="43.06999" lon="0.57495">
        <ele>434</ele>
        <time>2020-06-02T04:03:40Z</time>
      </trkpt>
      <trkpt lat="43.07002" lon="0.57518">
        <ele>433.957</ele>
        <time>2020-06-02T04:03:20Z</time>
      </trkpt>
      <trkpt lat="43.07042" lon="0.57606">
        <ele>431.585</ele>
        <time>2020-06-02T04:03:00Z</time>
      </trkpt>
      <trkpt lat="43.07065" lon="0.57664">
        <ele>430.731</ele>
        <time>2020-06-02T04:02:40Z</time>
      </trkpt>
      <trkpt lat="43.07111" lon="0.57753">
        <ele>430.06</ele>
        <time>2020-06-02T04:02:20Z</time>
      </trkpt>
      <trkpt lat="43.07138" lon="0.57812">
        <ele>430.095</ele>
        <time>2020-06-02T04:02:00Z</time>
      </trkpt>
      <trkpt lat="43.0715" lon="0.57865">
        <ele>429.641</ele>
        <time>2020-06-02T04:01:40Z</time>
      </trkpt>
      <trkpt lat="43.07162" lon="0.57948">
        <ele>429.275</ele>
        <time>2020-06-02T04:01:20Z</time>
      </trkpt>
      <trkpt lat="43.07174" lon="0.57977">
        <ele>428.758</ele>
        <time>2020-06-02T04:01:00Z</time>
      </trkpt>
      <trkpt lat="43.07329" lon="0.58186">
        <ele>427.123</ele>
        <time>2020-06-02T03:59:40Z</time>
      </trkpt>
      <trkpt lat="43.07354" lon="0.5823">
        <ele>427.108</ele>
        <time>2020-06-02T03:59:20Z</time>
      </trkpt>
      <trkpt lat="43.07406" lon="0.58361">
        <ele>428.018</ele>
        <time>2020-06-02T03:59:00Z</time>
      </trkpt>
      <trkpt lat="43.07499" lon="0.58486">
        <ele>427.544</ele>
        <time>2020-06-02T03:58:20Z</time>
      </trkpt>
      <trkpt lat="43.07537" lon="0.5848">
        <ele>427.063</ele>
        <time>2020-06-02T03:56:00Z</time>
      </trkpt>
      <trkpt lat="43.07535" lon="0.58514">
        <ele>427.015</ele>
        <time>2020-06-02T03:55:40Z</time>
      </trkpt>
      <trkpt lat="43.07483" lon="0.58766">
        <ele>427.631</ele>
        <time>2020-06-02T03:55:20Z</time>
      </trkpt>
      <trkpt lat="43.07467" lon="0.58913">
        <ele>428.28</ele>
        <time>2020-06-02T03:55:00Z</time>
      </trkpt>
      <trkpt lat="43.07462" lon="0.59026">
        <ele>429.085</ele>
        <time>2020-06-02T03:54:40Z</time>
      </trkpt>
      <trkpt lat="43.07464" lon="0.59145">
        <ele>429.431</ele>
        <time>2020-06-02T03:54:20Z</time>
      </trkpt>
      <trkpt lat="43.07495" lon="0.59412">
        <ele>428.055</ele>
        <time>2020-06-02T03:54:00Z</time>
      </trkpt>
      <trkpt lat="43.07531" lon="0.59683">
        <ele>425.068</ele>
        <time>2020-06-02T03:53:40Z</time>
      </trkpt>
      <trkpt lat="43.07537" lon="0.59758">
        <ele>424.743</ele>
        <time>2020-06-02T03:53:20Z</time>
      </trkpt>
      <trkpt lat="43.07544" lon="0.59762">
        <ele>424.608</ele>
        <time>2020-06-02T03:53:00Z</time>
      </trkpt>
      <trkpt lat="43.0757" lon="0.59939">
        <ele>424.026</ele>
        <time>2020-06-02T03:52:40Z</time>
      </trkpt>
      <trkpt lat="43.07585" lon="0.60061">
        <ele>423.042</ele>
        <time>2020-06-02T03:52:20Z</time>
      </trkpt>
      <trkpt lat="43.07577" lon="0.60087">
        <ele>423.068</ele>
        <time>2020-06-02T03:52:00Z</time>
      </trkpt>
      <trkpt lat="43.07575" lon="0.60114">
        <ele>423.023</ele>
        <time>2020-06-02T03:51:40Z</time>
      </trkpt>
      <trkpt lat="43.07581" lon="0.60148">
        <ele>423.049</ele>
        <time>2020-06-02T03:51:20Z</time>
      </trkpt>
      <trkpt lat="43.07598" lon="0.60129">
        <ele>423.088</ele>
        <time>2020-06-02T03:51:00Z</time>
      </trkpt>
      <trkpt lat="43.07613" lon="0.60119">
        <ele>423.043</ele>
        <time>2020-06-02T03:50:40Z</time>
      </trkpt>
      <trkpt lat="43.07626" lon="0.6023">
        <ele>422.379</ele>
        <time>2020-06-02T03:50:20Z</time>
      </trkpt>
      <trkpt lat="43.07635" lon="0.60251">
        <ele>422.053</ele>
        <time>2020-06-02T03:50:00Z</time>
      </trkpt>
      <trkpt lat="43.07676" lon="0.60281">
        <ele>422.086</ele>
        <time>2020-06-02T03:49:40Z</time>
      </trkpt>
      <trkpt lat="43.0774" lon="0.60319">
        <ele>421.081</ele>
        <time>2020-06-02T03:49:20Z</time>
      </trkpt>
      <trkpt lat="43.07776" lon="0.60348">
        <ele>421.008</ele>
        <time>2020-06-02T03:49:00Z</time>
      </trkpt>
      <trkpt lat="43.07825" lon="0.60397">
        <ele>421.015</ele>
        <time>2020-06-02T03:48:40Z</time>
      </trkpt>
      <trkpt lat="43.07861" lon="0.60446">
        <ele>420.005</ele>
        <time>2020-06-02T03:48:20Z</time>
      </trkpt>
      <trkpt lat="43.07893" lon="0.60512">
        <ele>420.044</ele>
        <time>2020-06-02T03:48:00Z</time>
      </trkpt>
      <trkpt lat="43.07923" lon="0.60579">
        <ele>420.017</ele>
        <time>2020-06-02T03:47:40Z</time>
      </trkpt>
      <trkpt lat="43.07952" lon="0.60558">
        <ele>420.063</ele>
        <time>2020-06-02T03:47:20Z</time>
      </trkpt>
      <trkpt lat="43.07973" lon="0.60558">
        <ele>420.032</ele>
        <time>2020-06-02T03:47:00Z</time>
      </trkpt>
      <trkpt lat="43.0806" lon="0.60627">
        <ele>419.087</ele>
        <time>2020-06-02T03:46:40Z</time>
      </trkpt>
      <trkpt lat="43.08127" lon="0.60694">
        <ele>418.533</ele>
        <time>2020-06-02T03:46:20Z</time>
      </trkpt>
      <trkpt lat="43.08171" lon="0.60778">
        <ele>418.087</ele>
        <time>2020-06-02T03:46:00Z</time>
      </trkpt>
      <trkpt lat="43.0822" lon="0.60857">
        <ele>417.22</ele>
        <time>2020-06-02T03:45:40Z</time>
      </trkpt>
      <trkpt lat="43.08251" lon="0.60894">
        <ele>417.075</ele>
        <time>2020-06-02T03:45:20Z</time>
      </trkpt>
      <trkpt lat="43.08347" lon="0.60988">
        <ele>417.008</ele>
        <time>2020-06-02T03:45:00Z</time>
      </trkpt>
      <trkpt lat="43.0839" lon="0.61026">
        <ele>417.017</ele>
        <time>2020-06-02T03:44:40Z</time>
      </trkpt>
      <trkpt lat="43.08442" lon="0.6108">
        <ele>417.025</ele>
        <time>2020-06-02T03:44:20Z</time>
      </trkpt>
      <trkpt lat="43.08496" lon="0.61152">
        <ele>416.083</ele>
        <time>2020-06-02T03:44:00Z</time>
      </trkpt>
      <trkpt lat="43.08532" lon="0.61198">
        <ele>416.023</ele>
        <time>2020-06-02T03:43:40Z</time>
      </trkpt>
      <trkpt lat="43.08555" lon="0.61216">
        <ele>416.069</ele>
        <time>2020-06-02T03:43:20Z</time>
      </trkpt>
      <trkpt lat="43.08599" lon="0.61335">
        <ele>414.998</ele>
        <time>2020-06-02T03:43:00Z</time>
      </trkpt>
      <trkpt lat="43.08639" lon="0.61468">
        <ele>412.113</ele>
        <time>2020-06-02T03:42:40Z</time>
      </trkpt>
      <trkpt lat="43.08663" lon="0.61554">
        <ele>411.019</ele>
        <time>2020-06-02T03:42:20Z</time>
      </trkpt>
      <trkpt lat="43.08727" lon="0.61723">
        <ele>410.033</ele>
        <time>2020-06-02T03:42:00Z</time>
      </trkpt>
      <trkpt lat="43.08745" lon="0.61773">
        <ele>410.076</ele>
        <time>2020-06-02T03:41:40Z</time>
      </trkpt>
      <trkpt lat="43.08775" lon="0.61762">
        <ele>409.681</ele>
        <time>2020-06-02T03:41:20Z</time>
      </trkpt>
      <trkpt lat="43.08857" lon="0.61848">
        <ele>405.108</ele>
        <time>2020-06-02T03:41:00Z</time>
      </trkpt>
      <trkpt lat="43.08943" lon="0.6192">
        <ele>403.309</ele>
        <time>2020-06-02T03:40:40Z</time>
      </trkpt>
      <trkpt lat="43.08957" lon="0.6195">
        <ele>400.081</ele>
        <time>2020-06-02T03:40:20Z</time>
      </trkpt>
      <trkpt lat="43.08977" lon="0.62099">
        <ele>399.241</ele>
        <time>2020-06-02T03:39:40Z</time>
      </trkpt>
      <trkpt lat="43.09002" lon="0.62253">
        <ele>398.972</ele>
        <time>2020-06-02T03:39:00Z</time>
      </trkpt>
      <trkpt lat="43.08986" lon="0.62414">
        <ele>397.178</ele>
        <time>2020-06-02T03:38:20Z</time>
      </trkpt>
      <trkpt lat="43.08988" lon="0.62453">
        <ele>396.977</ele>
        <time>2020-06-02T03:38:00Z</time>
      </trkpt>
      <trkpt lat="43.08994" lon="0.62501">
        <ele>396.572</ele>
        <time>2020-06-02T03:37:40Z</time>
      </trkpt>
      <trkpt lat="43.09011" lon="0.6256">
        <ele>397.028</ele>
        <time>2020-06-02T03:37:20Z</time>
      </trkpt>
      <trkpt lat="43.09047" lon="0.62653">
        <ele>395.962</ele>
        <time>2020-06-02T03:37:00Z</time>
      </trkpt>
      <trkpt lat="43.09039" lon="0.62686">
        <ele>398.155</ele>
        <time>2020-06-02T03:36:40Z</time>
      </trkpt>
      <trkpt lat="43.09029" lon="0.62747">
        <ele>401.75</ele>
        <time>2020-06-02T03:36:20Z</time>
      </trkpt>
      <trkpt lat="43.09019" lon="0.62771">
        <ele>403.508</ele>
        <time>2020-06-02T03:36:00Z</time>
      </trkpt>
      <trkpt lat="43.08996" lon="0.62786">
        <ele>405.018</ele>
        <time>2020-06-02T03:35:40Z</time>
      </trkpt>
      <trkpt lat="43.09022" lon="0.62851">
        <ele>404.217</ele>
        <time>2020-06-02T03:35:20Z</time>
      </trkpt>
      <trkpt lat="43.09042" lon="0.62931">
        <ele>403.236</ele>
        <time>2020-06-02T03:35:00Z</time>
      </trkpt>
      <trkpt lat="43.09059" lon="0.63014">
        <ele>402.722</ele>
        <time>2020-06-02T03:34:40Z</time>
      </trkpt>
      <trkpt lat="43.09071" lon="0.63047">
        <ele>401.998</ele>
        <time>2020-06-02T03:34:20Z</time>
      </trkpt>
      <trkpt lat="43.09116" lon="0.63136">
        <ele>400.867</ele>
        <time>2020-06-02T03:34:00Z</time>
      </trkpt>
      <trkpt lat="43.09172" lon="0.63275">
        <ele>401.772</ele>
        <time>2020-06-02T03:33:20Z</time>
      </trkpt>
      <trkpt lat="43.09317" lon="0.6358">
        <ele>401.058</ele>
        <time>2020-06-02T03:32:40Z</time>
      </trkpt>
      <trkpt lat="43.09329" lon="0.63711">
        <ele>400.512</ele>
        <time>2020-06-02T03:31:20Z</time>
      </trkpt>
      <trkpt lat="43.09336" lon="0.63919">
        <ele>399.885</ele>
        <time>2020-06-02T03:31:00Z</time>
      </trkpt>
      <trkpt lat="43.09355" lon="0.64427">
        <ele>397.02</ele>
        <time>2020-06-02T03:30:40Z</time>
      </trkpt>
      <trkpt lat="43.09359" lon="0.64465">
        <ele>396.308</ele>
        <time>2020-06-02T03:30:20Z</time>
      </trkpt>
      <trkpt lat="43.09394" lon="0.65439">
        <ele>392.013</ele>
        <time>2020-06-02T03:29:20Z</time>
      </trkpt>
      <trkpt lat="43.09391" lon="0.65537">
        <ele>392.049</ele>
        <time>2020-06-02T03:29:00Z</time>
      </trkpt>
      <trkpt lat="43.09397" lon="0.65613">
        <ele>391.737</ele>
        <time>2020-06-02T03:28:40Z</time>
      </trkpt>
      <trkpt lat="43.09405" lon="0.65674">
        <ele>391.077</ele>
        <time>2020-06-02T03:28:20Z</time>
      </trkpt>
      <trkpt lat="43.09414" lon="0.6593">
        <ele>390.013</ele>
        <time>2020-06-02T03:28:00Z</time>
      </trkpt>
      <trkpt lat="43.09421" lon="0.66106">
        <ele>389.072</ele>
        <time>2020-06-02T03:27:40Z</time>
      </trkpt>
      <trkpt lat="43.09417" lon="0.66125">
        <ele>389.067</ele>
        <time>2020-06-02T03:27:20Z</time>
      </trkpt>
      <trkpt lat="43.09452" lon="0.66126">
        <ele>389.093</ele>
        <time>2020-06-02T03:27:00Z</time>
      </trkpt>
      <trkpt lat="43.09458" lon="0.66217">
        <ele>388.047</ele>
        <time>2020-06-02T03:26:40Z</time>
      </trkpt>
      <trkpt lat="43.09467" lon="0.66288">
        <ele>388.09</ele>
        <time>2020-06-02T03:26:20Z</time>
      </trkpt>
      <trkpt lat="43.09478" lon="0.66301">
        <ele>388.095</ele>
        <time>2020-06-02T03:26:00Z</time>
      </trkpt>
      <trkpt lat="43.09636" lon="0.66304">
        <ele>387.008</ele>
        <time>2020-06-02T03:25:20Z</time>
      </trkpt>
      <trkpt lat="43.09628" lon="0.66354">
        <ele>387.017</ele>
        <time>2020-06-02T03:25:00Z</time>
      </trkpt>
      <trkpt lat="43.09616" lon="0.66466">
        <ele>386.007</ele>
        <time>2020-06-02T03:24:40Z</time>
      </trkpt>
      <trkpt lat="43.09614" lon="0.66504">
        <ele>386.084</ele>
        <time>2020-06-02T03:24:20Z</time>
      </trkpt>
      <trkpt lat="43.09613" lon="0.66554">
        <ele>386.026</ele>
        <time>2020-06-02T03:24:00Z</time>
      </trkpt>
      <trkpt lat="43.09605" lon="0.66605">
        <ele>386.052</ele>
        <time>2020-06-02T03:23:40Z</time>
      </trkpt>
      <trkpt lat="43.09588" lon="0.66678">
        <ele>385.081</ele>
        <time>2020-06-02T03:23:20Z</time>
      </trkpt>
      <trkpt lat="43.09589" lon="0.66703">
        <ele>385.056</ele>
        <time>2020-06-02T03:23:00Z</time>
      </trkpt>
      <trkpt lat="43.09612" lon="0.66757">
        <ele>385.032</ele>
        <time>2020-06-02T03:22:40Z</time>
      </trkpt>
      <trkpt lat="43.09663" lon="0.66863">
        <ele>385.056</ele>
        <time>2020-06-02T03:22:20Z</time>
      </trkpt>
      <trkpt lat="43.09664" lon="0.66887">
        <ele>385.019</ele>
        <time>2020-06-02T03:22:00Z</time>
      </trkpt>
      <trkpt lat="43.09596" lon="0.66951">
        <ele>385.054</ele>
        <time>2020-06-02T03:21:40Z</time>
      </trkpt>
      <trkpt lat="43.09599" lon="0.66986">
        <ele>385.008</ele>
        <time>2020-06-02T03:21:20Z</time>
      </trkpt>
      <trkpt lat="43.0962" lon="0.66995">
        <ele>384.713</ele>
        <time>2020-06-02T03:21:00Z</time>
      </trkpt>
      <trkpt lat="43.09653" lon="0.67025">
        <ele>384.085</ele>
        <time>2020-06-02T03:20:40Z</time>
      </trkpt>
      <trkpt lat="43.09737" lon="0.67177">
        <ele>382.373</ele>
        <time>2020-06-02T03:19:40Z</time>
      </trkpt>
      <trkpt lat="43.09892" lon="0.67489">
        <ele>379.017</ele>
        <time>2020-06-02T03:18:20Z</time>
      </trkpt>
      <trkpt lat="43.09916" lon="0.67562">
        <ele>378.863</ele>
        <time>2020-06-02T03:18:00Z</time>
      </trkpt>
      <trkpt lat="43.09931" lon="0.67648">
        <ele>378.052</ele>
        <time>2020-06-02T03:17:40Z</time>
      </trkpt>
      <trkpt lat="43.09932" lon="0.67715">
        <ele>377.637</ele>
        <time>2020-06-02T03:17:20Z</time>
      </trkpt>
      <trkpt lat="43.09894" lon="0.67946">
        <ele>376.023</ele>
        <time>2020-06-02T03:17:00Z</time>
      </trkpt>
      <trkpt lat="43.09836" lon="0.68242">
        <ele>374.987</ele>
        <time>2020-06-02T03:16:20Z</time>
      </trkpt>
      <trkpt lat="43.09707" lon="0.68795">
        <ele>372.27</ele>
        <time>2020-06-02T03:16:00Z</time>
      </trkpt>
      <trkpt lat="43.09687" lon="0.68909">
        <ele>371.585</ele>
        <time>2020-06-02T03:15:40Z</time>
      </trkpt>
      <trkpt lat="43.09735" lon="0.68926">
        <ele>370.308</ele>
        <time>2020-06-02T03:15:00Z</time>
      </trkpt>
      <trkpt lat="43.09717" lon="0.69019">
        <ele>370.026</ele>
        <time>2020-06-02T03:14:40Z</time>
      </trkpt>
      <trkpt lat="43.0971" lon="0.69071">
        <ele>369.424</ele>
        <time>2020-06-02T03:14:20Z</time>
      </trkpt>
      <trkpt lat="43.09711" lon="0.69097">
        <ele>369.288</ele>
        <time>2020-06-02T03:14:00Z</time>
      </trkpt>
      <trkpt lat="43.09716" lon="0.69106">
        <ele>369.065</ele>
        <time>2020-06-02T03:13:40Z</time>
      </trkpt>
      <trkpt lat="43.09679" lon="0.69251">
        <ele>368.571</ele>
        <time>2020-06-02T03:13:20Z</time>
      </trkpt>
      <trkpt lat="43.09662" lon="0.69338">
        <ele>368.02</ele>
        <time>2020-06-02T03:13:00Z</time>
      </trkpt>
      <trkpt lat="43.09658" lon="0.69411">
        <ele>367.585</ele>
        <time>2020-06-02T03:12:40Z</time>
      </trkpt>
      <trkpt lat="43.09658" lon="0.69467">
        <ele>367.011</ele>
        <time>2020-06-02T03:12:20Z</time>
      </trkpt>
      <trkpt lat="43.09667" lon="0.6954">
        <ele>366.635</ele>
        <time>2020-06-02T03:12:00Z</time>
      </trkpt>
      <trkpt lat="43.09686" lon="0.69612">
        <ele>366.078</ele>
        <time>2020-06-02T03:11:40Z</time>
      </trkpt>
      <trkpt lat="43.09698" lon="0.69676">
        <ele>365.053</ele>
        <time>2020-06-02T03:11:20Z</time>
      </trkpt>
      <trkpt lat="43.0972" lon="0.69761">
        <ele>365.008</ele>
        <time>2020-06-02T03:11:00Z</time>
      </trkpt>
      <trkpt lat="43.09727" lon="0.69809">
        <ele>365.024</ele>
        <time>2020-06-02T03:10:40Z</time>
      </trkpt>
      <trkpt lat="43.0973" lon="0.69857">
        <ele>365.004</ele>
        <time>2020-06-02T03:10:20Z</time>
      </trkpt>
      <trkpt lat="43.09725" lon="0.69938">
        <ele>365.069</ele>
        <time>2020-06-02T03:10:00Z</time>
      </trkpt>
      <trkpt lat="43.09708" lon="0.70067">
        <ele>365.072</ele>
        <time>2020-06-02T03:09:40Z</time>
      </trkpt>
      <trkpt lat="43.09707" lon="0.70091">
        <ele>365.018</ele>
        <time>2020-06-02T03:09:20Z</time>
      </trkpt>
      <trkpt lat="43.09693" lon="0.70103">
        <ele>365.047</ele>
        <time>2020-06-02T03:09:00Z</time>
      </trkpt>
      <trkpt lat="43.09662" lon="0.70121">
        <ele>365.092</ele>
        <time>2020-06-02T03:08:40Z</time>
      </trkpt>
      <trkpt lat="43.0966" lon="0.70135">
        <ele>365.098</ele>
        <time>2020-06-02T03:08:20Z</time>
      </trkpt>
      <trkpt lat="43.09679" lon="0.70217">
        <ele>365.052</ele>
        <time>2020-06-02T03:08:00Z</time>
      </trkpt>
      <trkpt lat="43.0971" lon="0.70325">
        <ele>365.045</ele>
        <time>2020-06-02T03:07:40Z</time>
      </trkpt>
      <trkpt lat="43.09713" lon="0.70352">
        <ele>365.05</ele>
        <time>2020-06-02T03:07:20Z</time>
      </trkpt>
      <trkpt lat="43.09705" lon="0.70394">
        <ele>365.008</ele>
        <time>2020-06-02T03:07:00Z</time>
      </trkpt>
      <trkpt lat="43.09708" lon="0.70424">
        <ele>365.021</ele>
        <time>2020-06-02T03:06:40Z</time>
      </trkpt>
      <trkpt lat="43.09722" lon="0.70466">
        <ele>365.001</ele>
        <time>2020-06-02T03:06:20Z</time>
      </trkpt>
      <trkpt lat="43.09737" lon="0.70516">
        <ele>365.039</ele>
        <time>2020-06-02T03:06:00Z</time>
      </trkpt>
      <trkpt lat="43.09738" lon="0.70541">
        <ele>365.088</ele>
        <time>2020-06-02T03:05:40Z</time>
      </trkpt>
      <trkpt lat="43.09718" lon="0.70586">
        <ele>365.054</ele>
        <time>2020-06-02T03:05:20Z</time>
      </trkpt>
      <trkpt lat="43.09703" lon="0.70602">
        <ele>365.063</ele>
        <time>2020-06-02T03:05:00Z</time>
      </trkpt>
      <trkpt lat="43.09774" lon="0.70653">
        <ele>365.088</ele>
        <time>2020-06-02T03:04:40Z</time>
      </trkpt>
      <trkpt lat="43.09836" lon="0.70489">
        <ele>365.044</ele>
        <time>2021-05-14T21:02:22Z</time>
      </trkpt>
      <trkpt lat="43.09855" lon="0.70305">
        <ele>365.038</ele>
        <time>2021-05-14T21:02:02Z</time>
      </trkpt>
      <trkpt lat="43.09868" lon="0.70104">
        <ele>365.051</ele>
        <time>2021-05-14T21:01:42Z</time>
      </trkpt>
      <trkpt lat="43.09901" lon="0.69978">
        <ele>365.086</ele>
        <time>2021-05-14T21:01:22Z</time>
      </trkpt>
      <trkpt lat="43.09935" lon="0.69921">
        <ele>365.008</ele>
        <time>2021-05-14T21:01:02Z</time>
      </trkpt>
      <trkpt lat="43.10023" lon="0.69994">
        <ele>365.023</ele>
        <time>2021-05-14T21:00:42Z</time>
      </trkpt>
      <trkpt lat="43.10053" lon="0.70052">
        <ele>365.049</ele>
        <time>2021-05-14T21:00:22Z</time>
      </trkpt>
      <trkpt lat="43.10053" lon="0.70114">
        <ele>365.095</ele>
        <time>2021-05-14T21:00:02Z</time>
      </trkpt>
      <trkpt lat="43.10038" lon="0.70186">
        <ele>365.015</ele>
        <time>2021-05-14T20:59:42Z</time>
      </trkpt>
      <trkpt lat="43.10037" lon="0.70234">
        <ele>365.011</ele>
        <time>2021-05-14T20:59:22Z</time>
      </trkpt>
      <trkpt lat="43.10112" lon="0.70292">
        <ele>365.02</ele>
        <time>2021-05-14T20:59:02Z</time>
      </trkpt>
      <trkpt lat="43.10214" lon="0.70493">
        <ele>365.025</ele>
        <time>2021-05-14T20:58:42Z</time>
      </trkpt>
      <trkpt lat="43.10177" lon="0.70579">
        <ele>365.051</ele>
        <time>2021-05-14T20:58:22Z</time>
      </trkpt>
      <trkpt lat="43.10138" lon="0.70643">
        <ele>365.085</ele>
        <time>2020-06-02T03:04:20Z</time>
      </trkpt>
      <trkpt lat="43.10123" lon="0.70919">
        <ele>369.288</ele>
        <time>2020-06-02T03:04:00Z</time>
      </trkpt>
      <trkpt lat="43.10266" lon="0.7098">
        <ele>381.983</ele>
        <time>2021-05-14T20:57:22Z</time>
      </trkpt>
      <trkpt lat="43.10429" lon="0.7103">
        <ele>398.308</ele>
        <time>2020-06-02T03:03:40Z</time>
      </trkpt>
      <trkpt lat="43.10424" lon="0.71062">
        <ele>403.111</ele>
        <time>2020-06-02T03:03:20Z</time>
      </trkpt>
      <trkpt lat="43.10408" lon="0.71073">
        <ele>403.383</ele>
        <time>2020-06-02T03:03:00Z</time>
      </trkpt>
      <trkpt lat="43.10364" lon="0.71056">
        <ele>401.062</ele>
        <time>2020-06-02T03:02:40Z</time>
      </trkpt>
      <trkpt lat="43.09951" lon="0.711">
        <ele>406.346</ele>
        <time>2020-06-02T03:02:20Z</time>
      </trkpt>
      <trkpt lat="43.0992" lon="0.71139">
        <ele>406.192</ele>
        <time>2020-06-02T03:02:00Z</time>
      </trkpt>
      <trkpt lat="43.09915" lon="0.71222">
        <ele>404.311</ele>
        <time>2020-06-02T03:01:40Z</time>
      </trkpt>
      <trkpt lat="43.09922" lon="0.71298">
        <ele>401.096</ele>
        <time>2020-06-02T03:01:20Z</time>
      </trkpt>
      <trkpt lat="43.09959" lon="0.71378">
        <ele>400.332</ele>
        <time>2020-06-02T03:01:00Z</time>
      </trkpt>
      <trkpt lat="43.10095" lon="0.7148">
        <ele>397.236</ele>
        <time>2020-06-02T03:00:20Z</time>
      </trkpt>
      <trkpt lat="43.10171" lon="0.71564">
        <ele>390.559</ele>
        <time>2020-06-02T03:00:00Z</time>
      </trkpt>
      <trkpt lat="43.10453" lon="0.71923">
        <ele>392.394</ele>
        <time>2020-06-02T02:59:00Z</time>
      </trkpt>
      <trkpt lat="43.10584" lon="0.72041">
        <ele>395.108</ele>
        <time>2020-06-02T02:58:40Z</time>
      </trkpt>
      <trkpt lat="43.10603" lon="0.72092">
        <ele>394.419</ele>
        <time>2020-06-02T02:58:20Z</time>
      </trkpt>
      <trkpt lat="43.10621" lon="0.72158">
        <ele>393.69</ele>
        <time>2020-06-02T02:58:00Z</time>
      </trkpt>
      <trkpt lat="43.10626" lon="0.7222">
        <ele>391.976</ele>
        <time>2020-06-02T02:57:40Z</time>
      </trkpt>
      <trkpt lat="43.10674" lon="0.72394">
        <ele>391.788</ele>
        <time>2020-06-02T02:57:20Z</time>
      </trkpt>
      <trkpt lat="43.10748" lon="0.72386">
        <ele>401.824</ele>
        <time>2020-06-02T02:57:00Z</time>
      </trkpt>
      <trkpt lat="43.10773" lon="0.72452">
        <ele>401.833</ele>
        <time>2021-05-14T20:51:02Z</time>
      </trkpt>
      <trkpt lat="43.10764" lon="0.72494">
        <ele>400.638</ele>
        <time>2021-05-14T20:50:42Z</time>
      </trkpt>
      <trkpt lat="43.10697" lon="0.72533">
        <ele>388.044</ele>
        <time>2021-05-14T20:50:22Z</time>
      </trkpt>
      <trkpt lat="43.10698" lon="0.72583">
        <ele>385.618</ele>
        <time>2020-06-02T02:56:40Z</time>
      </trkpt>
      <trkpt lat="43.10545" lon="0.72687">
        <ele>375.281</ele>
        <time>2020-06-02T02:56:00Z</time>
      </trkpt>
      <trkpt lat="43.10554" lon="0.72794">
        <ele>374.466</ele>
        <time>2021-05-14T20:49:22Z</time>
      </trkpt>
      <trkpt lat="43.105" lon="0.72828">
        <ele>373.008</ele>
        <time>2020-06-02T02:55:40Z</time>
      </trkpt>
      <trkpt lat="43.10601" lon="0.73096">
        <ele>371.019</ele>
        <time>2020-06-02T02:55:20Z</time>
      </trkpt>
      <trkpt lat="43.10642" lon="0.73206">
        <ele>370.081</ele>
        <time>2020-06-02T02:55:00Z</time>
      </trkpt>
      <trkpt lat="43.10656" lon="0.73321">
        <ele>369.391</ele>
        <time>2020-06-02T02:54:40Z</time>
      </trkpt>
      <trkpt lat="43.10597" lon="0.73333">
        <ele>369.08</ele>
        <time>2020-06-02T02:54:20Z</time>
      </trkpt>
      <trkpt lat="43.10602" lon="0.73464">
        <ele>368.016</ele>
        <time>2020-06-02T02:54:00Z</time>
      </trkpt>
      <trkpt lat="43.10617" lon="0.73532">
        <ele>368.025</ele>
        <time>2020-06-02T02:53:40Z</time>
      </trkpt>
      <trkpt lat="43.1063" lon="0.7364">
        <ele>367.05</ele>
        <time>2020-06-02T02:53:20Z</time>
      </trkpt>
      <trkpt lat="43.10621" lon="0.73659">
        <ele>367.066</ele>
        <time>2020-06-02T02:53:00Z</time>
      </trkpt>
      <trkpt lat="43.10554" lon="0.73697">
        <ele>366.82</ele>
        <time>2020-06-02T02:52:40Z</time>
      </trkpt>
      <trkpt lat="43.10554" lon="0.73729">
        <ele>366.043</ele>
        <time>2020-06-02T02:52:20Z</time>
      </trkpt>
      <trkpt lat="43.10584" lon="0.7388">
        <ele>365.338</ele>
        <time>2020-06-02T02:52:00Z</time>
      </trkpt>
      <trkpt lat="43.10586" lon="0.73959">
        <ele>365.008</ele>
        <time>2020-06-02T02:51:40Z</time>
      </trkpt>
      <trkpt lat="43.10567" lon="0.74126">
        <ele>358.503</ele>
        <time>2020-06-02T02:51:20Z</time>
      </trkpt>
      <trkpt lat="43.10553" lon="0.74216">
        <ele>355.021</ele>
        <time>2020-06-02T02:51:00Z</time>
      </trkpt>
      <trkpt lat="43.10508" lon="0.74315">
        <ele>350.011</ele>
        <time>2020-06-02T02:50:40Z</time>
      </trkpt>
      <trkpt lat="43.10482" lon="0.74329">
        <ele>350.045</ele>
        <time>2020-06-02T02:50:20Z</time>
      </trkpt>
      <trkpt lat="43.10438" lon="0.74318">
        <ele>350.091</ele>
        <time>2020-06-02T02:50:00Z</time>
      </trkpt>
      <trkpt lat="43.1041" lon="0.74405">
        <ele>350.04</ele>
        <time>2020-06-02T02:49:40Z</time>
      </trkpt>
      <trkpt lat="43.1042" lon="0.74507">
        <ele>350.045</ele>
        <time>2020-06-02T02:49:20Z</time>
      </trkpt>
      <trkpt lat="43.10467" lon="0.74574">
        <ele>350.011</ele>
        <time>2020-06-02T02:49:00Z</time>
      </trkpt>
      <trkpt lat="43.10436" lon="0.74613">
        <ele>349.995</ele>
        <time>2021-05-14T20:42:02Z</time>
      </trkpt>
      <trkpt lat="43.10443" lon="0.74694">
        <ele>349.048</ele>
        <time>2021-05-14T20:41:42Z</time>
      </trkpt>
      <trkpt lat="43.10397" lon="0.74689">
        <ele>349.063</ele>
        <time>2021-05-14T20:41:22Z</time>
      </trkpt>
      <trkpt lat="43.10426" lon="0.74731">
        <ele>349.008</ele>
        <time>2021-05-14T20:41:02Z</time>
      </trkpt>
      <trkpt lat="43.10542" lon="0.74862">
        <ele>350.021</ele>
        <time>2021-05-14T20:40:42Z</time>
      </trkpt>
      <trkpt lat="43.10592" lon="0.74958">
        <ele>349.029</ele>
        <time>2021-05-14T20:40:22Z</time>
      </trkpt>
      <trkpt lat="43.10617" lon="0.75042">
        <ele>348.066</ele>
        <time>2020-06-02T02:46:40Z</time>
      </trkpt>
      <trkpt lat="43.1062" lon="0.7507">
        <ele>348.015</ele>
        <time>2020-06-02T02:46:20Z</time>
      </trkpt>
      <trkpt lat="43.10621" lon="0.75131">
        <ele>348.011</ele>
        <time>2020-06-02T02:46:00Z</time>
      </trkpt>
      <trkpt lat="43.10626" lon="0.75153">
        <ele>348.07</ele>
        <time>2020-06-02T02:45:40Z</time>
      </trkpt>
      <trkpt lat="43.10649" lon="0.7519">
        <ele>348.085</ele>
        <time>2020-06-02T02:45:20Z</time>
      </trkpt>
      <trkpt lat="43.10662" lon="0.75219">
        <ele>348.061</ele>
        <time>2020-06-02T02:45:00Z</time>
      </trkpt>
      <trkpt lat="43.10667" lon="0.75251">
        <ele>348.075</ele>
        <time>2020-06-02T02:44:40Z</time>
      </trkpt>
      <trkpt lat="43.10674" lon="0.75312">
        <ele>349.048</ele>
        <time>2020-06-02T02:44:20Z</time>
      </trkpt>
      <trkpt lat="43.10689" lon="0.75373">
        <ele>349.033</ele>
        <time>2020-06-02T02:44:00Z</time>
      </trkpt>
      <trkpt lat="43.10716" lon="0.75437">
        <ele>349.008</ele>
        <time>2020-06-02T02:43:40Z</time>
      </trkpt>
      <trkpt lat="43.10743" lon="0.75479">
        <ele>349.024</ele>
        <time>2020-06-02T02:43:20Z</time>
      </trkpt>
      <trkpt lat="43.10751" lon="0.75504">
        <ele>349.104</ele>
        <time>2020-06-02T02:43:00Z</time>
      </trkpt>
      <trkpt lat="43.1075" lon="0.75524">
        <ele>349.969</ele>
        <time>2020-06-02T02:42:40Z</time>
      </trkpt>
      <trkpt lat="43.10727" lon="0.75578">
        <ele>356.388</ele>
        <time>2020-06-02T02:42:20Z</time>
      </trkpt>
      <trkpt lat="43.10725" lon="0.75604">
        <ele>359.294</ele>
        <time>2020-06-02T02:42:00Z</time>
      </trkpt>
      <trkpt lat="43.10724" lon="0.75679">
        <ele>357.883</ele>
        <time>2020-06-02T02:41:40Z</time>
      </trkpt>
      <trkpt lat="43.107" lon="0.757">
        <ele>354.668</ele>
        <time>2020-06-02T02:41:20Z</time>
      </trkpt>
      <trkpt lat="43.10681" lon="0.75734">
        <ele>350.664</ele>
        <time>2020-06-02T02:41:00Z</time>
      </trkpt>
      <trkpt lat="43.10678" lon="0.75754">
        <ele>349.948</ele>
        <time>2020-06-02T02:40:40Z</time>
      </trkpt>
      <trkpt lat="43.10688" lon="0.76249">
        <ele>345.771</ele>
        <time>2020-06-02T02:40:20Z</time>
      </trkpt>
      <trkpt lat="43.10717" lon="0.76535">
        <ele>346.846</ele>
        <time>2020-06-02T02:40:00Z</time>
      </trkpt>
      <trkpt lat="43.10713" lon="0.76599">
        <ele>345.808</ele>
        <time>2020-06-02T02:39:40Z</time>
      </trkpt>
      <trkpt lat="43.10653" lon="0.77234">
        <ele>340.027</ele>
        <time>2020-06-02T02:39:20Z</time>
      </trkpt>
      <trkpt lat="43.10661" lon="0.77287">
        <ele>340.207</ele>
        <time>2020-06-02T02:39:00Z</time>
      </trkpt>
      <trkpt lat="43.1066" lon="0.77311">
        <ele>341.299</ele>
        <time>2020-06-02T02:38:40Z</time>
      </trkpt>
      <trkpt lat="43.10633" lon="0.77373">
        <ele>344.028</ele>
        <time>2020-06-02T02:38:20Z</time>
      </trkpt>
      <trkpt lat="43.10611" lon="0.77412">
        <ele>346.344</ele>
        <time>2020-06-02T02:38:00Z</time>
      </trkpt>
      <trkpt lat="43.10587" lon="0.77445">
        <ele>346.633</ele>
        <time>2020-06-02T02:37:40Z</time>
      </trkpt>
      <trkpt lat="43.10475" lon="0.77672">
        <ele>352.338</ele>
        <time>2020-06-02T02:37:20Z</time>
      </trkpt>
      <trkpt lat="43.10433" lon="0.77699">
        <ele>351.164</ele>
        <time>2020-06-02T02:37:00Z</time>
      </trkpt>
      <trkpt lat="43.10426" lon="0.77695">
        <ele>351.068</ele>
        <time>2020-06-02T02:36:40Z</time>
      </trkpt>
      <trkpt lat="43.10414" lon="0.77661">
        <ele>350.031</ele>
        <time>2020-06-02T02:36:20Z</time>
      </trkpt>
      <trkpt lat="43.10402" lon="0.77655">
        <ele>349.896</ele>
        <time>2020-06-02T02:36:00Z</time>
      </trkpt>
      <trkpt lat="43.10367" lon="0.77671">
        <ele>345.308</ele>
        <time>2020-06-02T02:35:40Z</time>
      </trkpt>
      <trkpt lat="43.10352" lon="0.7769">
        <ele>344.226</ele>
        <time>2020-06-02T02:35:20Z</time>
      </trkpt>
      <trkpt lat="43.1034" lon="0.77714">
        <ele>344.415</ele>
        <time>2020-06-02T02:35:00Z</time>
      </trkpt>
      <trkpt lat="43.10327" lon="0.77728">
        <ele>344.198</ele>
        <time>2020-06-02T02:34:40Z</time>
      </trkpt>
      <trkpt lat="43.10245" lon="0.77804">
        <ele>342.752</ele>
        <time>2020-06-02T02:34:20Z</time>
      </trkpt>
      <trkpt lat="43.10232" lon="0.77826">
        <ele>342.428</ele>
        <time>2020-06-02T02:34:00Z</time>
      </trkpt>
      <trkpt lat="43.10217" lon="0.77866">
        <ele>342.757</ele>
        <time>2020-06-02T02:33:40Z</time>
      </trkpt>
      <trkpt lat="43.10193" lon="0.7797">
        <ele>342.922</ele>
        <time>2020-06-02T02:33:20Z</time>
      </trkpt>
      <trkpt lat="43.10166" lon="0.78043">
        <ele>343.558</ele>
        <time>2020-06-02T02:33:00Z</time>
      </trkpt>
      <trkpt lat="43.10135" lon="0.78152">
        <ele>342.072</ele>
        <time>2020-06-02T02:32:40Z</time>
      </trkpt>
      <trkpt lat="43.10109" lon="0.78274">
        <ele>341.945</ele>
        <time>2020-06-02T02:32:20Z</time>
      </trkpt>
      <trkpt lat="43.10076" lon="0.78477">
        <ele>341.61</ele>
        <time>2020-06-02T02:32:00Z</time>
      </trkpt>
      <trkpt lat="43.10077" lon="0.78687">
        <ele>338.808</ele>
        <time>2020-06-02T02:31:40Z</time>
      </trkpt>
      <trkpt lat="43.10086" lon="0.78732">
        <ele>338.121</ele>
        <time>2020-06-02T02:31:20Z</time>
      </trkpt>
      <trkpt lat="43.10088" lon="0.78788">
        <ele>338.001</ele>
        <time>2020-06-02T02:31:00Z</time>
      </trkpt>
      <trkpt lat="43.10103" lon="0.78899">
        <ele>337.039</ele>
        <time>2020-06-02T02:30:40Z</time>
      </trkpt>
      <trkpt lat="43.10131" lon="0.79053">
        <ele>336.113</ele>
        <time>2020-06-02T02:30:20Z</time>
      </trkpt>
      <trkpt lat="43.10181" lon="0.79149">
        <ele>336.549</ele>
        <time>2020-06-02T02:30:00Z</time>
      </trkpt>
      <trkpt lat="43.10239" lon="0.79223">
        <ele>336.688</ele>
        <time>2020-06-02T02:29:40Z</time>
      </trkpt>
      <trkpt lat="43.10292" lon="0.79311">
        <ele>336.443</ele>
        <time>2020-06-02T02:29:20Z</time>
      </trkpt>
      <trkpt lat="43.10314" lon="0.79287">
        <ele>337.299</ele>
        <time>2020-06-02T02:29:00Z</time>
      </trkpt>
      <trkpt lat="43.10374" lon="0.79398">
        <ele>336.883</ele>
        <time>2020-06-02T02:28:40Z</time>
      </trkpt>
      <trkpt lat="43.10444" lon="0.79528">
        <ele>339.016</ele>
        <time>2020-06-02T02:28:20Z</time>
      </trkpt>
      <trkpt lat="43.10499" lon="0.79647">
        <ele>338.921</ele>
        <time>2020-06-02T02:28:00Z</time>
      </trkpt>
      <trkpt lat="43.10544" lon="0.79779">
        <ele>338.608</ele>
        <time>2020-06-02T02:27:40Z</time>
      </trkpt>
      <trkpt lat="43.10562" lon="0.79851">
        <ele>338.621</ele>
        <time>2020-06-02T02:27:20Z</time>
      </trkpt>
      <trkpt lat="43.10587" lon="0.79997">
        <ele>337.229</ele>
        <time>2020-06-02T02:27:00Z</time>
      </trkpt>
      <trkpt lat="43.10603" lon="0.80129">
        <ele>336.747</ele>
        <time>2020-06-02T02:26:40Z</time>
      </trkpt>
      <trkpt lat="43.10605" lon="0.80164">
        <ele>336.812</ele>
        <time>2020-06-02T02:26:20Z</time>
      </trkpt>
      <trkpt lat="43.10599" lon="0.80332">
        <ele>337.678</ele>
        <time>2020-06-02T02:25:40Z</time>
      </trkpt>
      <trkpt lat="43.10582" lon="0.80531">
        <ele>338.017</ele>
        <time>2020-06-02T02:25:00Z</time>
      </trkpt>
      <trkpt lat="43.10574" lon="0.80595">
        <ele>338.012</ele>
        <time>2020-06-02T02:24:40Z</time>
      </trkpt>
      <trkpt lat="43.10582" lon="0.80605">
        <ele>338.018</ele>
        <time>2020-06-02T02:24:20Z</time>
      </trkpt>
      <trkpt lat="43.10649" lon="0.8057">
        <ele>340.462</ele>
        <time>2020-06-02T02:24:00Z</time>
      </trkpt>
      <trkpt lat="43.10736" lon="0.80531">
        <ele>354.735</ele>
        <time>2020-06-02T02:23:40Z</time>
      </trkpt>
      <trkpt lat="43.1075" lon="0.80537">
        <ele>357.25</ele>
        <time>2020-06-02T02:23:20Z</time>
      </trkpt>
      <trkpt lat="43.10763" lon="0.80565">
        <ele>357.608</ele>
        <time>2020-06-02T02:23:00Z</time>
      </trkpt>
      <trkpt lat="43.10782" lon="0.80576">
        <ele>360.221</ele>
        <time>2020-06-02T02:22:40Z</time>
      </trkpt>
      <trkpt lat="43.10879" lon="0.80535">
        <ele>364.901</ele>
        <time>2020-06-02T02:22:20Z</time>
      </trkpt>
      <trkpt lat="43.10873" lon="0.80642">
        <ele>366.439</ele>
        <time>2020-06-02T02:22:00Z</time>
      </trkpt>
      <trkpt lat="43.10871" lon="0.80818">
        <ele>367.052</ele>
        <time>2020-06-02T02:21:40Z</time>
      </trkpt>
      <trkpt lat="43.10864" lon="0.80992">
        <ele>366.998</ele>
        <time>2020-06-02T02:21:20Z</time>
      </trkpt>
      <trkpt lat="43.10865" lon="0.81195">
        <ele>366.017</ele>
        <time>2020-06-02T02:21:00Z</time>
      </trkpt>
      <trkpt lat="43.10848" lon="0.81313">
        <ele>365.552</ele>
        <time>2020-06-02T02:20:40Z</time>
      </trkpt>
      <trkpt lat="43.10821" lon="0.81564">
        <ele>365.098</ele>
        <time>2020-06-02T02:20:20Z</time>
      </trkpt>
      <trkpt lat="43.10805" lon="0.81628">
        <ele>365.082</ele>
        <time>2020-06-02T02:20:00Z</time>
      </trkpt>
      <trkpt lat="43.10806" lon="0.81727">
        <ele>365.045</ele>
        <time>2020-06-02T02:19:40Z</time>
      </trkpt>
      <trkpt lat="43.10816" lon="0.81838">
        <ele>362.81</ele>
        <time>2020-06-02T02:19:20Z</time>
      </trkpt>
      <trkpt lat="43.10841" lon="0.81982">
        <ele>360.008</ele>
        <time>2020-06-02T02:19:00Z</time>
      </trkpt>
      <trkpt lat="43.10847" lon="0.82095">
        <ele>360.707</ele>
        <time>2020-06-02T02:18:40Z</time>
      </trkpt>
      <trkpt lat="43.10863" lon="0.82123">
        <ele>362.561</ele>
        <time>2020-06-02T02:18:20Z</time>
      </trkpt>
      <trkpt lat="43.10848" lon="0.82166">
        <ele>362.531</ele>
        <time>2020-06-02T02:18:00Z</time>
      </trkpt>
      <trkpt lat="43.10827" lon="0.82251">
        <ele>362.617</ele>
        <time>2020-06-02T02:17:40Z</time>
      </trkpt>
      <trkpt lat="43.10751" lon="0.82426">
        <ele>355.463</ele>
        <time>2020-06-02T02:17:20Z</time>
      </trkpt>
      <trkpt lat="43.10708" lon="0.82533">
        <ele>346.612</ele>
        <time>2020-06-02T02:17:00Z</time>
      </trkpt>
      <trkpt lat="43.10679" lon="0.82628">
        <ele>338.017</ele>
        <time>2020-06-02T02:16:40Z</time>
      </trkpt>
      <trkpt lat="43.10661" lon="0.82668">
        <ele>332.353</ele>
        <time>2020-06-02T02:16:20Z</time>
      </trkpt>
      <trkpt lat="43.10634" lon="0.82697">
        <ele>330.037</ele>
        <time>2020-06-02T02:16:00Z</time>
      </trkpt>
      <trkpt lat="43.10642" lon="0.82771">
        <ele>329.38</ele>
        <time>2020-06-02T02:15:40Z</time>
      </trkpt>
      <trkpt lat="43.10663" lon="0.82856">
        <ele>329.095</ele>
        <time>2020-06-02T02:15:20Z</time>
      </trkpt>
      <trkpt lat="43.10699" lon="0.82913">
        <ele>329.008</ele>
        <time>2020-06-02T02:15:00Z</time>
      </trkpt>
      <trkpt lat="43.10735" lon="0.82975">
        <ele>329.026</ele>
        <time>2020-06-02T02:14:40Z</time>
      </trkpt>
      <trkpt lat="43.10747" lon="0.83019">
        <ele>329.006</ele>
        <time>2020-06-02T02:14:20Z</time>
      </trkpt>
      <trkpt lat="43.10763" lon="0.83137">
        <ele>329.089</ele>
        <time>2020-06-02T02:14:00Z</time>
      </trkpt>
      <trkpt lat="43.10738" lon="0.83269">
        <ele>328.025</ele>
        <time>2020-06-02T02:13:40Z</time>
      </trkpt>
      <trkpt lat="43.10725" lon="0.8331">
        <ele>328.021</ele>
        <time>2020-06-02T02:13:20Z</time>
      </trkpt>
      <trkpt lat="43.10664" lon="0.83419">
        <ele>327.03</ele>
        <time>2020-06-02T02:13:00Z</time>
      </trkpt>
      <trkpt lat="43.10655" lon="0.83454">
        <ele>327.025</ele>
        <time>2020-06-02T02:12:40Z</time>
      </trkpt>
      <trkpt lat="43.10666" lon="0.83656">
        <ele>326.491</ele>
        <time>2020-06-02T02:12:20Z</time>
      </trkpt>
      <trkpt lat="43.1069" lon="0.8366">
        <ele>326.945</ele>
        <time>2020-06-02T02:12:00Z</time>
      </trkpt>
      <trkpt lat="43.10728" lon="0.83675">
        <ele>327.018</ele>
        <time>2020-06-02T02:11:40Z</time>
      </trkpt>
      <trkpt lat="43.10751" lon="0.8369">
        <ele>327.073</ele>
        <time>2020-06-02T02:11:20Z</time>
      </trkpt>
      <trkpt lat="43.1076" lon="0.83779">
        <ele>327.008</ele>
        <time>2020-06-02T02:11:00Z</time>
      </trkpt>
      <trkpt lat="43.10762" lon="0.83823">
        <ele>326.411</ele>
        <time>2020-06-02T02:10:40Z</time>
      </trkpt>
      <trkpt lat="43.10759" lon="0.8394">
        <ele>326.083</ele>
        <time>2020-06-02T02:10:20Z</time>
      </trkpt>
      <trkpt lat="43.10779" lon="0.84388">
        <ele>324.062</ele>
        <time>2020-06-02T02:10:00Z</time>
      </trkpt>
      <trkpt lat="43.10767" lon="0.84471">
        <ele>324.052</ele>
        <time>2020-06-02T02:09:40Z</time>
      </trkpt>
      <trkpt lat="43.10773" lon="0.84547">
        <ele>324.038</ele>
        <time>2020-06-02T02:09:20Z</time>
      </trkpt>
      <trkpt lat="43.10783" lon="0.84627">
        <ele>324.067</ele>
        <time>2020-06-02T02:09:00Z</time>
      </trkpt>
      <trkpt lat="43.10789" lon="0.84829">
        <ele>323.062</ele>
        <time>2020-06-02T02:08:40Z</time>
      </trkpt>
      <trkpt lat="43.10781" lon="0.8496">
        <ele>322.428</ele>
        <time>2020-06-02T02:08:20Z</time>
      </trkpt>
      <trkpt lat="43.10764" lon="0.85179">
        <ele>322.012</ele>
        <time>2020-06-02T02:08:00Z</time>
      </trkpt>
      <trkpt lat="43.10753" lon="0.85243">
        <ele>322.025</ele>
        <time>2020-06-02T02:07:40Z</time>
      </trkpt>
      <trkpt lat="43.10746" lon="0.85374">
        <ele>322.09</ele>
        <time>2020-06-02T02:07:20Z</time>
      </trkpt>
      <trkpt lat="43.10743" lon="0.85516">
        <ele>321.808</ele>
        <time>2020-06-02T02:07:00Z</time>
      </trkpt>
      <trkpt lat="43.10735" lon="0.85657">
        <ele>321.013</ele>
        <time>2020-06-02T02:06:40Z</time>
      </trkpt>
      <trkpt lat="43.10723" lon="0.85753">
        <ele>320.949</ele>
        <time>2020-06-02T02:06:20Z</time>
      </trkpt>
      <trkpt lat="43.10702" lon="0.8585">
        <ele>320.037</ele>
        <time>2020-06-02T02:06:00Z</time>
      </trkpt>
      <trkpt lat="43.10677" lon="0.85926">
        <ele>320.022</ele>
        <time>2020-06-02T02:05:40Z</time>
      </trkpt>
      <trkpt lat="43.10704" lon="0.86385">
        <ele>316.428</ele>
        <time>2020-06-02T02:05:20Z</time>
      </trkpt>
      <trkpt lat="43.10713" lon="0.86414">
        <ele>316.177</ele>
        <time>2020-06-02T02:05:00Z</time>
      </trkpt>
      <trkpt lat="43.10768" lon="0.86524">
        <ele>316.772</ele>
        <time>2020-06-02T02:04:40Z</time>
      </trkpt>
      <trkpt lat="43.10791" lon="0.86589">
        <ele>316.078</ele>
        <time>2020-06-02T02:04:20Z</time>
      </trkpt>
      <trkpt lat="43.10839" lon="0.86633">
        <ele>317.052</ele>
        <time>2020-06-02T02:04:00Z</time>
      </trkpt>
      <trkpt lat="43.10874" lon="0.86695">
        <ele>317.575</ele>
        <time>2020-06-02T02:03:40Z</time>
      </trkpt>
      <trkpt lat="43.10969" lon="0.86691">
        <ele>318.97</ele>
        <time>2020-06-02T02:03:00Z</time>
      </trkpt>
      <trkpt lat="43.11077" lon="0.86665">
        <ele>324.408</ele>
        <time>2020-06-02T02:02:40Z</time>
      </trkpt>
      <trkpt lat="43.11089" lon="0.86576">
        <ele>327.714</ele>
        <time>2020-06-02T02:02:20Z</time>
      </trkpt>
      <trkpt lat="43.11124" lon="0.86535">
        <ele>333.486</ele>
        <time>2020-06-02T02:02:00Z</time>
      </trkpt>
      <trkpt lat="43.11166" lon="0.86503">
        <ele>340.835</ele>
        <time>2020-06-02T02:01:40Z</time>
      </trkpt>
      <trkpt lat="43.11218" lon="0.86488">
        <ele>348.356</ele>
        <time>2020-06-02T02:01:20Z</time>
      </trkpt>
      <trkpt lat="43.11317" lon="0.86479">
        <ele>354.012</ele>
        <time>2020-06-02T02:01:00Z</time>
      </trkpt>
      <trkpt lat="43.11475" lon="0.86482">
        <ele>363.661</ele>
        <time>2020-06-02T02:00:40Z</time>
      </trkpt>
      <trkpt lat="43.11623" lon="0.86486">
        <ele>379.326</ele>
        <time>2020-06-02T02:00:20Z</time>
      </trkpt>
      <trkpt lat="43.11637" lon="0.86494">
        <ele>380.652</ele>
        <time>2020-06-02T02:00:00Z</time>
      </trkpt>
      <trkpt lat="43.11769" lon="0.86212">
        <ele>387.456</ele>
        <time>2020-06-02T01:59:40Z</time>
      </trkpt>
      <trkpt lat="43.11803" lon="0.86125">
        <ele>390.059</ele>
        <time>2020-06-02T01:59:20Z</time>
      </trkpt>
      <trkpt lat="43.12193" lon="0.85269">
        <ele>401.774</ele>
        <time>2020-06-02T01:57:20Z</time>
      </trkpt>
      <trkpt lat="43.12222" lon="0.85214">
        <ele>403.708</ele>
        <time>2020-06-02T01:57:00Z</time>
      </trkpt>
      <trkpt lat="43.12736" lon="0.85643">
        <ele>336.027</ele>
        <time>2020-06-02T01:55:40Z</time>
      </trkpt>
      <trkpt lat="43.12747" lon="0.85721">
        <ele>335.161</ele>
        <time>2020-06-02T01:55:20Z</time>
      </trkpt>
      <trkpt lat="43.12779" lon="0.85757">
        <ele>335.077</ele>
        <time>2020-06-02T01:55:00Z</time>
      </trkpt>
      <trkpt lat="43.12805" lon="0.8571">
        <ele>335.064</ele>
        <time>2020-06-02T01:54:40Z</time>
      </trkpt>
      <trkpt lat="43.12892" lon="0.85779">
        <ele>335.11</ele>
        <time>2021-05-14T19:51:22Z</time>
      </trkpt>
      <trkpt lat="43.1288" lon="0.85826">
        <ele>334.229</ele>
        <time>2021-05-14T19:51:02Z</time>
      </trkpt>
      <trkpt lat="43.12935" lon="0.8585">
        <ele>336.324</ele>
        <time>2021-05-14T19:50:42Z</time>
      </trkpt>
      <trkpt lat="43.12974" lon="0.85889">
        <ele>337.17</ele>
        <time>2021-05-14T19:50:22Z</time>
      </trkpt>
      <trkpt lat="43.1299" lon="0.85884">
        <ele>338.344</ele>
        <time>2021-05-14T19:50:02Z</time>
      </trkpt>
      <trkpt lat="43.12999" lon="0.85859">
        <ele>339.017</ele>
        <time>2020-06-02T01:54:20Z</time>
      </trkpt>
      <trkpt lat="43.1316" lon="0.85933">
        <ele>354.122</ele>
        <time>2020-06-02T01:54:00Z</time>
      </trkpt>
      <trkpt lat="43.13222" lon="0.85955">
        <ele>361.508</ele>
        <time>2020-06-02T01:53:40Z</time>
      </trkpt>
      <trkpt lat="43.13376" lon="0.8602">
        <ele>373.923</ele>
        <time>2020-06-02T01:53:20Z</time>
      </trkpt>
      <trkpt lat="43.13413" lon="0.86002">
        <ele>377.603</ele>
        <time>2020-06-02T01:53:00Z</time>
      </trkpt>
      <trkpt lat="43.13417" lon="0.85947">
        <ele>379.959</ele>
        <time>2020-06-02T01:52:40Z</time>
      </trkpt>
      <trkpt lat="43.1346" lon="0.85947">
        <ele>383.174</ele>
        <time>2020-06-02T01:52:20Z</time>
      </trkpt>
      <trkpt lat="43.13517" lon="0.85967">
        <ele>387.82</ele>
        <time>2020-06-02T01:52:00Z</time>
      </trkpt>
      <trkpt lat="43.13538" lon="0.85969">
        <ele>390.959</ele>
        <time>2020-06-02T01:51:40Z</time>
      </trkpt>
      <trkpt lat="43.13557" lon="0.85982">
        <ele>393.914</ele>
        <time>2020-06-02T01:51:20Z</time>
      </trkpt>
      <trkpt lat="43.13649" lon="0.86031">
        <ele>406.92</ele>
        <time>2020-06-02T01:51:00Z</time>
      </trkpt>
      <trkpt lat="43.13727" lon="0.85948">
        <ele>409.784</ele>
        <time>2020-06-02T01:50:40Z</time>
      </trkpt>
      <trkpt lat="43.13842" lon="0.85785">
        <ele>420.057</ele>
        <time>2020-06-02T01:50:20Z</time>
      </trkpt>
      <trkpt lat="43.13889" lon="0.85735">
        <ele>420.082</ele>
        <time>2020-06-02T01:50:00Z</time>
      </trkpt>
      <trkpt lat="43.13947" lon="0.85647">
        <ele>417.508</ele>
        <time>2020-06-02T01:49:40Z</time>
      </trkpt>
      <trkpt lat="43.13961" lon="0.85617">
        <ele>417.614</ele>
        <time>2020-06-02T01:49:20Z</time>
      </trkpt>
      <trkpt lat="43.13986" lon="0.85649">
        <ele>414.359</ele>
        <time>2020-06-02T01:49:00Z</time>
      </trkpt>
      <trkpt lat="43.14041" lon="0.85746">
        <ele>404.356</ele>
        <time>2020-06-02T01:48:40Z</time>
      </trkpt>
      <trkpt lat="43.14099" lon="0.85778">
        <ele>404.743</ele>
        <time>2020-06-02T01:48:20Z</time>
      </trkpt>
      <trkpt lat="43.14233" lon="0.85844">
        <ele>413.289</ele>
        <time>2020-06-02T01:48:00Z</time>
      </trkpt>
      <trkpt lat="43.1418" lon="0.86059">
        <ele>412.028</ele>
        <time>2020-06-02T01:47:40Z</time>
      </trkpt>
      <trkpt lat="43.14161" lon="0.86159">
        <ele>410.713</ele>
        <time>2020-06-02T01:47:20Z</time>
      </trkpt>
      <trkpt lat="43.14166" lon="0.86222">
        <ele>408.179</ele>
        <time>2020-06-02T01:47:00Z</time>
      </trkpt>
      <trkpt lat="43.14165" lon="0.86308">
        <ele>405.063</ele>
        <time>2020-06-02T01:46:40Z</time>
      </trkpt>
      <trkpt lat="43.14169" lon="0.86352">
        <ele>401.476</ele>
        <time>2021-05-14T19:41:42Z</time>
      </trkpt>
      <trkpt lat="43.14245" lon="0.86684">
        <ele>383.651</ele>
        <time>2020-06-02T01:45:40Z</time>
      </trkpt>
      <trkpt lat="43.14244" lon="0.86743">
        <ele>382.508</ele>
        <time>2020-06-02T01:45:20Z</time>
      </trkpt>
      <trkpt lat="43.14368" lon="0.86851">
        <ele>370.211</ele>
        <time>2020-06-02T01:45:00Z</time>
      </trkpt>
      <trkpt lat="43.14362" lon="0.86877">
        <ele>370.047</ele>
        <time>2020-06-02T01:44:40Z</time>
      </trkpt>
      <trkpt lat="43.14354" lon="0.87015">
        <ele>370.045</ele>
        <time>2020-06-02T01:44:20Z</time>
      </trkpt>
      <trkpt lat="43.14351" lon="0.87038">
        <ele>370.073</ele>
        <time>2020-06-02T01:44:00Z</time>
      </trkpt>
      <trkpt lat="43.14358" lon="0.87097">
        <ele>370.059</ele>
        <time>2020-06-02T01:43:40Z</time>
      </trkpt>
      <trkpt lat="43.14355" lon="0.87142">
        <ele>370.058</ele>
        <time>2020-06-02T01:43:20Z</time>
      </trkpt>
      <trkpt lat="43.14323" lon="0.8727">
        <ele>370.033</ele>
        <time>2020-06-02T01:43:00Z</time>
      </trkpt>
      <trkpt lat="43.1428" lon="0.87413">
        <ele>371.159</ele>
        <time>2020-06-02T01:42:40Z</time>
      </trkpt>
      <trkpt lat="43.14203" lon="0.87584">
        <ele>372.363</ele>
        <time>2020-06-02T01:42:20Z</time>
      </trkpt>
      <trkpt lat="43.14172" lon="0.87609">
        <ele>370.496</ele>
        <time>2020-06-02T01:42:00Z</time>
      </trkpt>
      <trkpt lat="43.14164" lon="0.87644">
        <ele>370.831</ele>
        <time>2020-06-02T01:41:40Z</time>
      </trkpt>
      <trkpt lat="43.14165" lon="0.87652">
        <ele>370.908</ele>
        <time>2020-06-02T01:41:20Z</time>
      </trkpt>
      <trkpt lat="43.14178" lon="0.87651">
        <ele>371.422</ele>
        <time>2020-06-02T01:41:00Z</time>
      </trkpt>
      <trkpt lat="43.14383" lon="0.87673">
        <ele>380.502</ele>
        <time>2020-06-02T01:40:40Z</time>
      </trkpt>
      <trkpt lat="43.14435" lon="0.87693">
        <ele>380.149</ele>
        <time>2020-06-02T01:40:20Z</time>
      </trkpt>
      <trkpt lat="43.14501" lon="0.87697">
        <ele>378.88</ele>
        <time>2020-06-02T01:40:00Z</time>
      </trkpt>
      <trkpt lat="43.14556" lon="0.87719">
        <ele>379.086</ele>
        <time>2020-06-02T01:39:40Z</time>
      </trkpt>
      <trkpt lat="43.14577" lon="0.87739">
        <ele>378.995</ele>
        <time>2020-06-02T01:39:20Z</time>
      </trkpt>
      <trkpt lat="43.14543" lon="0.87789">
        <ele>376.41</ele>
        <time>2020-06-02T01:39:00Z</time>
      </trkpt>
      <trkpt lat="43.14537" lon="0.87996">
        <ele>382.736</ele>
        <time>2020-06-02T01:38:40Z</time>
      </trkpt>
      <trkpt lat="43.14535" lon="0.88029">
        <ele>385.89</ele>
        <time>2020-06-02T01:38:20Z</time>
      </trkpt>
      <trkpt lat="43.14531" lon="0.88165">
        <ele>394.743</ele>
        <time>2020-06-02T01:38:00Z</time>
      </trkpt>
      <trkpt lat="43.14551" lon="0.88223">
        <ele>397.418</ele>
        <time>2020-06-02T01:37:40Z</time>
      </trkpt>
      <trkpt lat="43.14564" lon="0.88307">
        <ele>402.008</ele>
        <time>2020-06-02T01:37:20Z</time>
      </trkpt>
      <trkpt lat="43.14547" lon="0.88363">
        <ele>405.103</ele>
        <time>2020-06-02T01:37:00Z</time>
      </trkpt>
      <trkpt lat="43.14519" lon="0.88526">
        <ele>410.021</ele>
        <time>2020-06-02T01:36:40Z</time>
      </trkpt>
      <trkpt lat="43.14509" lon="0.88634">
        <ele>411.111</ele>
        <time>2020-06-02T01:36:20Z</time>
      </trkpt>
      <trkpt lat="43.14464" lon="0.88791">
        <ele>410.174</ele>
        <time>2020-06-02T01:36:00Z</time>
      </trkpt>
      <trkpt lat="43.14464" lon="0.88833">
        <ele>412.13</ele>
        <time>2020-06-02T01:35:40Z</time>
      </trkpt>
      <trkpt lat="43.14454" lon="0.88894">
        <ele>413.919</ele>
        <time>2020-06-02T01:35:20Z</time>
      </trkpt>
      <trkpt lat="43.14461" lon="0.88958">
        <ele>417.344</ele>
        <time>2020-06-02T01:35:00Z</time>
      </trkpt>
      <trkpt lat="43.14459" lon="0.89041">
        <ele>418.81</ele>
        <time>2020-06-02T01:34:40Z</time>
      </trkpt>
      <trkpt lat="43.14467" lon="0.89065">
        <ele>419.664</ele>
        <time>2020-06-02T01:34:20Z</time>
      </trkpt>
      <trkpt lat="43.14532" lon="0.89112">
        <ele>420.047</ele>
        <time>2020-06-02T01:34:00Z</time>
      </trkpt>
      <trkpt lat="43.14428" lon="0.89377">
        <ele>412.042</ele>
        <time>2020-06-02T01:33:40Z</time>
      </trkpt>
      <trkpt lat="43.14356" lon="0.89344">
        <ele>405.308</ele>
        <time>2020-06-02T01:33:20Z</time>
      </trkpt>
      <trkpt lat="43.14271" lon="0.89316">
        <ele>395.811</ele>
        <time>2020-06-02T01:33:00Z</time>
      </trkpt>
      <trkpt lat="43.14222" lon="0.89305">
        <ele>389.056</ele>
        <time>2020-06-02T01:32:40Z</time>
      </trkpt>
      <trkpt lat="43.14207" lon="0.89305">
        <ele>387.954</ele>
        <time>2020-06-02T01:32:20Z</time>
      </trkpt>
      <trkpt lat="43.14173" lon="0.89207">
        <ele>381.132</ele>
        <time>2020-06-02T01:32:00Z</time>
      </trkpt>
      <trkpt lat="43.14133" lon="0.88992">
        <ele>378.088</ele>
        <time>2020-06-02T01:31:40Z</time>
      </trkpt>
      <trkpt lat="43.14102" lon="0.89001">
        <ele>373.727</ele>
        <time>2020-06-02T01:31:20Z</time>
      </trkpt>
      <trkpt lat="43.14084" lon="0.89033">
        <ele>372.372</ele>
        <time>2020-06-02T01:31:00Z</time>
      </trkpt>
      <trkpt lat="43.14054" lon="0.89155">
        <ele>370.988</ele>
        <time>2020-06-02T01:30:40Z</time>
      </trkpt>
      <trkpt lat="43.14052" lon="0.89191">
        <ele>371.612</ele>
        <time>2020-06-02T01:30:20Z</time>
      </trkpt>
      <trkpt lat="43.14049" lon="0.89221">
        <ele>370.645</ele>
        <time>2020-06-02T01:30:00Z</time>
      </trkpt>
      <trkpt lat="43.1404" lon="0.89274">
        <ele>369.84</ele>
        <time>2020-06-02T01:29:20Z</time>
      </trkpt>
      <trkpt lat="43.14034" lon="0.89289">
        <ele>369.908</ele>
        <time>2020-06-02T01:29:00Z</time>
      </trkpt>
      <trkpt lat="43.1398" lon="0.89385">
        <ele>368.613</ele>
        <time>2020-06-02T01:27:20Z</time>
      </trkpt>
      <trkpt lat="43.13945" lon="0.89472">
        <ele>366.149</ele>
        <time>2020-06-02T01:26:20Z</time>
      </trkpt>
      <trkpt lat="43.13927" lon="0.89534">
        <ele>364.337</ele>
        <time>2020-06-02T01:25:40Z</time>
      </trkpt>
      <trkpt lat="43.13921" lon="0.89577">
        <ele>362.55</ele>
        <time>2020-06-02T01:25:00Z</time>
      </trkpt>
      <trkpt lat="43.13919" lon="0.8961">
        <ele>361.466</ele>
        <time>2020-06-02T01:24:40Z</time>
      </trkpt>
      <trkpt lat="43.13915" lon="0.89632">
        <ele>360.815</ele>
        <time>2020-06-02T01:24:20Z</time>
      </trkpt>
      <trkpt lat="43.13909" lon="0.89632">
        <ele>360.24</ele>
        <time>2020-06-02T01:24:00Z</time>
      </trkpt>
      <trkpt lat="43.13902" lon="0.8964">
        <ele>359.436</ele>
        <time>2020-06-02T01:23:20Z</time>
      </trkpt>
      <trkpt lat="43.13894" lon="0.89663">
        <ele>358.77</ele>
        <time>2020-06-02T01:22:40Z</time>
      </trkpt>
      <trkpt lat="43.13882" lon="0.897">
        <ele>358.023</ele>
        <time>2020-06-02T01:21:40Z</time>
      </trkpt>
      <trkpt lat="43.13892" lon="0.89787">
        <ele>360.498</ele>
        <time>2020-06-02T01:21:00Z</time>
      </trkpt>
      <trkpt lat="43.1389" lon="0.89839">
        <ele>360.408</ele>
        <time>2020-06-02T01:20:20Z</time>
      </trkpt>
      <trkpt lat="43.13875" lon="0.8992">
        <ele>358.811</ele>
        <time>2020-06-02T01:19:20Z</time>
      </trkpt>
      <trkpt lat="43.13856" lon="0.89991">
        <ele>350.965</ele>
        <time>2020-06-02T01:18:40Z</time>
      </trkpt>
      <trkpt lat="43.13833" lon="0.90066">
        <ele>338.815</ele>
        <time>2020-06-02T01:18:00Z</time>
      </trkpt>
      <trkpt lat="43.13826" lon="0.90098">
        <ele>334.026</ele>
        <time>2020-06-02T01:17:40Z</time>
      </trkpt>
      <trkpt lat="43.13825" lon="0.90112">
        <ele>332.042</ele>
        <time>2020-06-02T01:17:20Z</time>
      </trkpt>
      <trkpt lat="43.13826" lon="0.90119">
        <ele>331.551</ele>
        <time>2020-06-02T01:17:00Z</time>
      </trkpt>
      <trkpt lat="43.13843" lon="0.90131">
        <ele>332.366</ele>
        <time>2020-06-02T01:16:40Z</time>
      </trkpt>
      <trkpt lat="43.13853" lon="0.90158">
        <ele>332.122</ele>
        <time>2020-06-02T01:16:20Z</time>
      </trkpt>
      <trkpt lat="43.13841" lon="0.90203">
        <ele>329.516</ele>
        <time>2020-06-02T01:16:00Z</time>
      </trkpt>
      <trkpt lat="43.13841" lon="0.90238">
        <ele>328.779</ele>
        <time>2020-06-02T01:15:40Z</time>
      </trkpt>
      <trkpt lat="43.13814" lon="0.90364">
        <ele>322.574</ele>
        <time>2020-06-02T01:15:20Z</time>
      </trkpt>
      <trkpt lat="43.13807" lon="0.90393">
        <ele>321.108</ele>
        <time>2020-06-02T01:15:00Z</time>
      </trkpt>
      <trkpt lat="43.13788" lon="0.90482">
        <ele>320.014</ele>
        <time>2020-06-02T01:14:40Z</time>
      </trkpt>
      <trkpt lat="43.13774" lon="0.90513">
        <ele>320.013</ele>
        <time>2020-06-02T01:14:20Z</time>
      </trkpt>
      <trkpt lat="43.13745" lon="0.9054">
        <ele>320.072</ele>
        <time>2020-06-02T01:14:00Z</time>
      </trkpt>
      <trkpt lat="43.13714" lon="0.90589">
        <ele>318.023</ele>
        <time>2020-06-02T01:13:40Z</time>
      </trkpt>
      <trkpt lat="43.13714" lon="0.90632">
        <ele>315.359</ele>
        <time>2020-06-02T01:13:20Z</time>
      </trkpt>
      <trkpt lat="43.13713" lon="0.90661">
        <ele>313.998</ele>
        <time>2020-06-02T01:13:00Z</time>
      </trkpt>
      <trkpt lat="43.13707" lon="0.90726">
        <ele>312.553</ele>
        <time>2020-06-02T01:12:40Z</time>
      </trkpt>
      <trkpt lat="43.137" lon="0.90779">
        <ele>310.499</ele>
        <time>2020-06-02T01:12:20Z</time>
      </trkpt>
      <trkpt lat="43.13709" lon="0.90852">
        <ele>310.093</ele>
        <time>2020-06-02T01:12:00Z</time>
      </trkpt>
      <trkpt lat="43.13705" lon="0.90896">
        <ele>310.156</ele>
        <time>2020-06-02T01:11:40Z</time>
      </trkpt>
      <trkpt lat="43.13686" lon="0.9094">
        <ele>310.031</ele>
        <time>2020-06-02T01:11:20Z</time>
      </trkpt>
      <trkpt lat="43.13675" lon="0.90959">
        <ele>310.208</ele>
        <time>2020-06-02T01:11:00Z</time>
      </trkpt>
      <trkpt lat="43.13665" lon="0.90981">
        <ele>310.015</ele>
        <time>2020-06-02T01:10:40Z</time>
      </trkpt>
      <trkpt lat="43.13663" lon="0.90994">
        <ele>310.005</ele>
        <time>2020-06-02T01:10:20Z</time>
      </trkpt>
      <trkpt lat="43.13647" lon="0.9111">
        <ele>310.044</ele>
        <time>2020-06-02T01:10:00Z</time>
      </trkpt>
      <trkpt lat="43.13681" lon="0.91129">
        <ele>310.043</ele>
        <time>2020-06-02T01:09:40Z</time>
      </trkpt>
      <trkpt lat="43.13669" lon="0.91171">
        <ele>310.079</ele>
        <time>2020-06-02T01:09:20Z</time>
      </trkpt>
      <trkpt lat="43.13681" lon="0.91174">
        <ele>310.318</ele>
        <time>2020-06-02T01:09:00Z</time>
      </trkpt>
      <trkpt lat="43.13695" lon="0.91172">
        <ele>310.423</ele>
        <time>2020-06-02T01:08:40Z</time>
      </trkpt>
      <trkpt lat="43.13709" lon="0.91185">
        <ele>312.029</ele>
        <time>2020-06-02T01:08:20Z</time>
      </trkpt>
      <trkpt lat="43.13721" lon="0.91212">
        <ele>317.173</ele>
        <time>2020-06-02T01:08:00Z</time>
      </trkpt>
      <trkpt lat="43.13735" lon="0.91252">
        <ele>321.886</ele>
        <time>2020-06-02T01:07:40Z</time>
      </trkpt>
      <trkpt lat="43.13748" lon="0.91344">
        <ele>330.741</ele>
        <time>2020-06-02T01:07:20Z</time>
      </trkpt>
      <trkpt lat="43.13755" lon="0.91408">
        <ele>334.408</ele>
        <time>2020-06-02T01:07:00Z</time>
      </trkpt>
      <trkpt lat="43.13774" lon="0.91482">
        <ele>339.311</ele>
        <time>2020-06-02T01:06:40Z</time>
      </trkpt>
      <trkpt lat="43.13779" lon="0.91533">
        <ele>341.047</ele>
        <time>2020-06-02T01:06:20Z</time>
      </trkpt>
      <trkpt lat="43.13801" lon="0.91613">
        <ele>340.045</ele>
        <time>2020-06-02T01:05:40Z</time>
      </trkpt>
      <trkpt lat="43.1375" lon="0.91622">
        <ele>337.678</ele>
        <time>2020-06-02T01:04:40Z</time>
      </trkpt>
      <trkpt lat="43.13678" lon="0.9161">
        <ele>331.234</ele>
        <time>2020-06-02T01:04:20Z</time>
      </trkpt>
      <trkpt lat="43.13687" lon="0.91705">
        <ele>329.013</ele>
        <time>2021-05-14T19:07:02Z</time>
      </trkpt>
      <trkpt lat="43.13709" lon="0.91737">
        <ele>330.598</ele>
        <time>2020-06-02T01:04:00Z</time>
      </trkpt>
      <trkpt lat="43.13751" lon="0.91766">
        <ele>331.434</ele>
        <time>2020-06-02T01:03:20Z</time>
      </trkpt>
      <trkpt lat="43.13781" lon="0.91783">
        <ele>330.138</ele>
        <time>2020-06-02T01:03:00Z</time>
      </trkpt>
      <trkpt lat="43.138" lon="0.91813">
        <ele>325.211</ele>
        <time>2020-06-02T01:02:40Z</time>
      </trkpt>
      <trkpt lat="43.1377" lon="0.9189">
        <ele>312.996</ele>
        <time>2020-06-02T01:02:20Z</time>
      </trkpt>
      <trkpt lat="43.13786" lon="0.91925">
        <ele>305.108</ele>
        <time>2020-06-02T01:02:00Z</time>
      </trkpt>
      <trkpt lat="43.13911" lon="0.91926">
        <ele>319.526</ele>
        <time>2020-06-02T01:01:00Z</time>
      </trkpt>
      <trkpt lat="43.13985" lon="0.91952">
        <ele>306.415</ele>
        <time>2020-06-02T01:00:20Z</time>
      </trkpt>
      <trkpt lat="43.14039" lon="0.92003">
        <ele>293.198</ele>
        <time>2020-06-02T00:58:40Z</time>
      </trkpt>
      <trkpt lat="43.14065" lon="0.91997">
        <ele>302.79</ele>
        <time>2020-06-02T00:58:20Z</time>
      </trkpt>
      <trkpt lat="43.14134" lon="0.91893">
        <ele>311.656</ele>
        <time>2020-06-02T00:56:40Z</time>
      </trkpt>
      <trkpt lat="43.14184" lon="0.91846">
        <ele>307.045</ele>
        <time>2020-06-02T00:55:40Z</time>
      </trkpt>
      <trkpt lat="43.14231" lon="0.91835">
        <ele>304.75</ele>
        <time>2020-06-02T00:55:20Z</time>
      </trkpt>
      <trkpt lat="43.14291" lon="0.91797">
        <ele>309.576</ele>
        <time>2020-06-02T00:55:00Z</time>
      </trkpt>
      <trkpt lat="43.14325" lon="0.91811">
        <ele>310.19</ele>
        <time>2020-06-02T00:54:40Z</time>
      </trkpt>
      <trkpt lat="43.14346" lon="0.91864">
        <ele>311.313</ele>
        <time>2020-06-02T00:54:20Z</time>
      </trkpt>
      <trkpt lat="43.14366" lon="0.91905">
        <ele>311.078</ele>
        <time>2020-06-02T00:54:00Z</time>
      </trkpt>
      <trkpt lat="43.14391" lon="0.91972">
        <ele>314.708</ele>
        <time>2020-06-02T00:53:40Z</time>
      </trkpt>
      <trkpt lat="43.14406" lon="0.91997">
        <ele>314.109</ele>
        <time>2020-06-02T00:53:20Z</time>
      </trkpt>
      <trkpt lat="43.14416" lon="0.92038">
        <ele>313.554</ele>
        <time>2020-06-02T00:53:00Z</time>
      </trkpt>
      <trkpt lat="43.1443" lon="0.92087">
        <ele>314.714</ele>
        <time>2020-06-02T00:52:40Z</time>
      </trkpt>
      <trkpt lat="43.14431" lon="0.92196">
        <ele>318.57</ele>
        <time>2020-06-02T00:52:20Z</time>
      </trkpt>
      <trkpt lat="43.14441" lon="0.92226">
        <ele>318.416</ele>
        <time>2020-06-02T00:52:00Z</time>
      </trkpt>
      <trkpt lat="43.14455" lon="0.92258">
        <ele>318.385</ele>
        <time>2020-06-02T00:51:40Z</time>
      </trkpt>
      <trkpt lat="43.14472" lon="0.92279">
        <ele>319.04</ele>
        <time>2020-06-02T00:51:20Z</time>
      </trkpt>
      <trkpt lat="43.14495" lon="0.92317">
        <ele>318.696</ele>
        <time>2020-06-02T00:51:00Z</time>
      </trkpt>
      <trkpt lat="43.14509" lon="0.92369">
        <ele>319.93</ele>
        <time>2020-06-02T00:50:40Z</time>
      </trkpt>
      <trkpt lat="43.14524" lon="0.92416">
        <ele>319.523</ele>
        <time>2020-06-02T00:50:20Z</time>
      </trkpt>
      <trkpt lat="43.14546" lon="0.92413">
        <ele>318.988</ele>
        <time>2020-06-02T00:50:00Z</time>
      </trkpt>
      <trkpt lat="43.14574" lon="0.92501">
        <ele>320.008</ele>
        <time>2020-06-02T00:49:40Z</time>
      </trkpt>
      <trkpt lat="43.14615" lon="0.92547">
        <ele>320.003</ele>
        <time>2020-06-02T00:49:20Z</time>
      </trkpt>
      <trkpt lat="43.14605" lon="0.9259">
        <ele>320.021</ele>
        <time>2020-06-02T00:49:00Z</time>
      </trkpt>
      <trkpt lat="43.14561" lon="0.92718">
        <ele>320.311</ele>
        <time>2020-06-02T00:48:40Z</time>
      </trkpt>
      <trkpt lat="43.14537" lon="0.92744">
        <ele>321.171</ele>
        <time>2020-06-02T00:48:20Z</time>
      </trkpt>
      <trkpt lat="43.14326" lon="0.92883">
        <ele>301.547</ele>
        <time>2020-06-02T00:48:00Z</time>
      </trkpt>
      <trkpt lat="43.1432" lon="0.9291">
        <ele>299.176</ele>
        <time>2020-06-02T00:47:40Z</time>
      </trkpt>
      <trkpt lat="43.14322" lon="0.92945">
        <ele>296.811</ele>
        <time>2020-06-02T00:47:20Z</time>
      </trkpt>
      <trkpt lat="43.14304" lon="0.92966">
        <ele>293.957</ele>
        <time>2020-06-02T00:47:00Z</time>
      </trkpt>
      <trkpt lat="43.14215" lon="0.93007">
        <ele>285.021</ele>
        <time>2020-06-02T00:46:40Z</time>
      </trkpt>
      <trkpt lat="43.1422" lon="0.93047">
        <ele>285.094</ele>
        <time>2020-06-02T00:46:20Z</time>
      </trkpt>
      <trkpt lat="43.14221" lon="0.93048">
        <ele>285.099</ele>
        <time>2020-06-02T00:46:00Z</time>
      </trkpt>
      <trkpt lat="43.14238" lon="0.93114">
        <ele>284.508</ele>
        <time>2020-06-02T00:45:40Z</time>
      </trkpt>
      <trkpt lat="43.14261" lon="0.93163">
        <ele>285.105</ele>
        <time>2020-06-02T00:45:20Z</time>
      </trkpt>
      <trkpt lat="43.14279" lon="0.93212">
        <ele>285.041</ele>
        <time>2020-06-02T00:45:00Z</time>
      </trkpt>
      <trkpt lat="43.14331" lon="0.93239">
        <ele>293.121</ele>
        <time>2020-06-02T00:44:40Z</time>
      </trkpt>
      <trkpt lat="43.14423" lon="0.93714">
        <ele>282.755</ele>
        <time>2020-06-02T00:44:20Z</time>
      </trkpt>
      <trkpt lat="43.14472" lon="0.93779">
        <ele>288.881</ele>
        <time>2020-06-02T00:44:00Z</time>
      </trkpt>
      <trkpt lat="43.14546" lon="0.93779">
        <ele>295.32</ele>
        <time>2020-10-31T22:53:05Z</time>
      </trkpt>
      <trkpt lat="43.14688" lon="0.93789">
        <ele>312.045</ele>
        <time>2020-06-02T00:43:00Z</time>
      </trkpt>
      <trkpt lat="43.14737" lon="0.93803">
        <ele>318.111</ele>
        <time>2020-06-02T00:42:40Z</time>
      </trkpt>
      <trkpt lat="43.14805" lon="0.93843">
        <ele>330.755</ele>
        <time>2020-10-31T22:51:25Z</time>
      </trkpt>
      <trkpt lat="43.14848" lon="0.93899">
        <ele>339.898</ele>
        <time>2020-10-31T22:51:05Z</time>
      </trkpt>
      <trkpt lat="43.14937" lon="0.9404">
        <ele>363.163</ele>
        <time>2020-06-02T00:41:40Z</time>
      </trkpt>
      <trkpt lat="43.14979" lon="0.9418">
        <ele>386.608</ele>
        <time>2020-10-31T22:50:25Z</time>
      </trkpt>
      <trkpt lat="43.14989" lon="0.94254">
        <ele>393.921</ele>
        <time>2020-06-02T00:40:40Z</time>
      </trkpt>
      <trkpt lat="43.15006" lon="0.94256">
        <ele>400.029</ele>
        <time>2020-10-31T22:49:45Z</time>
      </trkpt>
      <trkpt lat="43.15037" lon="0.94227">
        <ele>397.566</ele>
        <time>2020-10-31T22:49:25Z</time>
      </trkpt>
      <trkpt lat="43.15052" lon="0.94194">
        <ele>395.553</ele>
        <time>2020-10-31T22:49:05Z</time>
      </trkpt>
      <trkpt lat="43.15087" lon="0.94152">
        <ele>392.779</ele>
        <time>2020-10-31T22:48:45Z</time>
      </trkpt>
      <trkpt lat="43.15124" lon="0.94157">
        <ele>387.848</ele>
        <time>2020-06-02T00:37:40Z</time>
      </trkpt>
      <trkpt lat="43.15163" lon="0.94152">
        <ele>384.983</ele>
        <time>2020-06-02T00:37:20Z</time>
      </trkpt>
      <trkpt lat="43.15252" lon="0.94271">
        <ele>367.339</ele>
        <time>2020-10-31T22:47:45Z</time>
      </trkpt>
      <trkpt lat="43.15265" lon="0.94324">
        <ele>362.913</ele>
        <time>2020-06-02T00:36:40Z</time>
      </trkpt>
      <trkpt lat="43.15271" lon="0.94394">
        <ele>359.576</ele>
        <time>2020-10-31T22:47:05Z</time>
      </trkpt>
      <trkpt lat="43.15283" lon="0.94458">
        <ele>359.141</ele>
        <time>2020-10-31T22:46:45Z</time>
      </trkpt>
      <trkpt lat="43.15295" lon="0.94474">
        <ele>359.108</ele>
        <time>2020-06-02T00:35:40Z</time>
      </trkpt>
      <trkpt lat="43.15334" lon="0.94493">
        <ele>357.209</ele>
        <time>2020-10-31T22:46:05Z</time>
      </trkpt>
      <trkpt lat="43.15352" lon="0.94524">
        <ele>352.181</ele>
        <time>2020-06-02T00:35:00Z</time>
      </trkpt>
      <trkpt lat="43.15379" lon="0.94607">
        <ele>344.041</ele>
        <time>2020-06-02T00:34:40Z</time>
      </trkpt>
      <trkpt lat="43.154" lon="0.94633">
        <ele>340.958</ele>
        <time>2020-06-02T00:34:20Z</time>
      </trkpt>
      <trkpt lat="43.15439" lon="0.94632">
        <ele>339.894</ele>
        <time>2020-06-02T00:34:00Z</time>
      </trkpt>
      <trkpt lat="43.15449" lon="0.94639">
        <ele>339.743</ele>
        <time>2020-06-02T00:33:40Z</time>
      </trkpt>
      <trkpt lat="43.15494" lon="0.94694">
        <ele>332.428</ele>
        <time>2020-06-02T00:33:20Z</time>
      </trkpt>
      <trkpt lat="43.15525" lon="0.94777">
        <ele>323.974</ele>
        <time>2020-06-02T00:33:00Z</time>
      </trkpt>
      <trkpt lat="43.15586" lon="0.9483">
        <ele>315.478</ele>
        <time>2020-06-02T00:32:40Z</time>
      </trkpt>
      <trkpt lat="43.15617" lon="0.94849">
        <ele>312.951</ele>
        <time>2020-10-31T22:43:05Z</time>
      </trkpt>
      <trkpt lat="43.15717" lon="0.9486">
        <ele>293.916</ele>
        <time>2020-06-02T00:32:00Z</time>
      </trkpt>
      <trkpt lat="43.15776" lon="0.94618">
        <ele>281.708</ele>
        <time>2020-10-31T22:42:25Z</time>
      </trkpt>
      <trkpt lat="43.15857" lon="0.94504">
        <ele>286.427</ele>
        <time>2020-10-31T22:42:05Z</time>
      </trkpt>
      <trkpt lat="43.1588" lon="0.94489">
        <ele>288.307</ele>
        <time>2020-10-31T22:41:45Z</time>
      </trkpt>
      <trkpt lat="43.1591" lon="0.94497">
        <ele>289.699</ele>
        <time>2020-10-31T22:41:25Z</time>
      </trkpt>
      <trkpt lat="43.15979" lon="0.94574">
        <ele>290.937</ele>
        <time>2020-10-31T22:41:05Z</time>
      </trkpt>
      <trkpt lat="43.15998" lon="0.94634">
        <ele>289.013</ele>
        <time>2020-10-31T22:40:45Z</time>
      </trkpt>
      <trkpt lat="43.16022" lon="0.9467">
        <ele>288.872</ele>
        <time>2020-10-31T22:40:25Z</time>
      </trkpt>
      <trkpt lat="43.16035" lon="0.94708">
        <ele>286.537</ele>
        <time>2020-10-31T22:40:05Z</time>
      </trkpt>
      <trkpt lat="43.16069" lon="0.94739">
        <ele>288.433</ele>
        <time>2020-10-31T22:39:45Z</time>
      </trkpt>
      <trkpt lat="43.16081" lon="0.94791">
        <ele>286.137</ele>
        <time>2020-10-31T22:39:25Z</time>
      </trkpt>
      <trkpt lat="43.16102" lon="0.94841">
        <ele>288.28</ele>
        <time>2020-10-31T22:39:05Z</time>
      </trkpt>
      <trkpt lat="43.16101" lon="0.94904">
        <ele>286.355</ele>
        <time>2020-10-31T22:38:45Z</time>
      </trkpt>
      <trkpt lat="43.16085" lon="0.9498">
        <ele>281.808</ele>
        <time>2020-10-31T22:38:25Z</time>
      </trkpt>
      <trkpt lat="43.16072" lon="0.95024">
        <ele>281.726</ele>
        <time>2020-10-31T22:38:05Z</time>
      </trkpt>
      <trkpt lat="43.16085" lon="0.95096">
        <ele>283.06</ele>
        <time>2020-10-31T22:37:45Z</time>
      </trkpt>
      <trkpt lat="43.16082" lon="0.95154">
        <ele>282.086</ele>
        <time>2020-10-31T22:37:25Z</time>
      </trkpt>
      <trkpt lat="43.16067" lon="0.95233">
        <ele>286.278</ele>
        <time>2020-06-02T00:27:40Z</time>
      </trkpt>
      <trkpt lat="43.16078" lon="0.95231">
        <ele>290.784</ele>
        <time>2020-06-02T00:27:20Z</time>
      </trkpt>
      <trkpt lat="43.16093" lon="0.95214">
        <ele>294.283</ele>
        <time>2020-06-02T00:27:00Z</time>
      </trkpt>
      <trkpt lat="43.16104" lon="0.95161">
        <ele>289.148</ele>
        <time>2020-06-02T00:26:40Z</time>
      </trkpt>
      <trkpt lat="43.16117" lon="0.95158">
        <ele>292.264</ele>
        <time>2020-06-02T00:26:20Z</time>
      </trkpt>
      <trkpt lat="43.16174" lon="0.95215">
        <ele>304.838</ele>
        <time>2020-06-02T00:26:00Z</time>
      </trkpt>
      <trkpt lat="43.16225" lon="0.95229">
        <ele>309.361</ele>
        <time>2020-06-02T00:25:40Z</time>
      </trkpt>
      <trkpt lat="43.16247" lon="0.95221">
        <ele>309.976</ele>
        <time>2020-06-02T00:25:20Z</time>
      </trkpt>
      <trkpt lat="43.16273" lon="0.95198">
        <ele>310.008</ele>
        <time>2020-06-02T00:25:00Z</time>
      </trkpt>
      <trkpt lat="43.16337" lon="0.95166">
        <ele>310.021</ele>
        <time>2020-06-02T00:24:40Z</time>
      </trkpt>
      <trkpt lat="43.16383" lon="0.95096">
        <ele>313.665</ele>
        <time>2020-06-02T00:24:20Z</time>
      </trkpt>
      <trkpt lat="43.16408" lon="0.95077">
        <ele>315.893</ele>
        <time>2020-06-02T00:24:00Z</time>
      </trkpt>
      <trkpt lat="43.16431" lon="0.9507">
        <ele>318.012</ele>
        <time>2020-06-02T00:23:40Z</time>
      </trkpt>
      <trkpt lat="43.16448" lon="0.95018">
        <ele>320.078</ele>
        <time>2020-06-02T00:23:20Z</time>
      </trkpt>
      <trkpt lat="43.16492" lon="0.94959">
        <ele>323.217</ele>
        <time>2020-06-02T00:23:00Z</time>
      </trkpt>
      <trkpt lat="43.16502" lon="0.94932">
        <ele>324.822</ele>
        <time>2020-06-02T00:22:40Z</time>
      </trkpt>
      <trkpt lat="43.16537" lon="0.94877">
        <ele>331.838</ele>
        <time>2020-06-02T00:22:20Z</time>
      </trkpt>
      <trkpt lat="43.16564" lon="0.94828">
        <ele>336.222</ele>
        <time>2020-06-02T00:22:00Z</time>
      </trkpt>
      <trkpt lat="43.16576" lon="0.94829">
        <ele>337.935</ele>
        <time>2020-06-02T00:21:40Z</time>
      </trkpt>
      <trkpt lat="43.16626" lon="0.94876">
        <ele>341.19</ele>
        <time>2020-06-02T00:21:20Z</time>
      </trkpt>
      <trkpt lat="43.1666" lon="0.94816">
        <ele>349.408</ele>
        <time>2020-06-02T00:21:00Z</time>
      </trkpt>
      <trkpt lat="43.16758" lon="0.94689">
        <ele>366.511</ele>
        <time>2020-06-02T00:20:40Z</time>
      </trkpt>
      <trkpt lat="43.16839" lon="0.94553">
        <ele>378.892</ele>
        <time>2020-10-31T22:29:45Z</time>
      </trkpt>
      <trkpt lat="43.16888" lon="0.94486">
        <ele>383.832</ele>
        <time>2020-10-31T22:29:25Z</time>
      </trkpt>
      <trkpt lat="43.16905" lon="0.94478">
        <ele>382.822</ele>
        <time>2020-06-02T00:19:40Z</time>
      </trkpt>
      <trkpt lat="43.16922" lon="0.94415">
        <ele>383.028</ele>
        <time>2020-10-31T22:28:45Z</time>
      </trkpt>
      <trkpt lat="43.16917" lon="0.94342">
        <ele>387.767</ele>
        <time>2020-10-31T22:28:25Z</time>
      </trkpt>
      <trkpt lat="43.16935" lon="0.94204">
        <ele>397.792</ele>
        <time>2020-06-02T00:18:40Z</time>
      </trkpt>
      <trkpt lat="43.16956" lon="0.94088">
        <ele>402.668</ele>
        <time>2020-06-02T00:18:20Z</time>
      </trkpt>
      <trkpt lat="43.16945" lon="0.9404">
        <ele>407.032</ele>
        <time>2020-10-31T22:27:25Z</time>
      </trkpt>
      <trkpt lat="43.16958" lon="0.93884">
        <ele>415.435</ele>
        <time>2020-06-02T00:17:40Z</time>
      </trkpt>
      <trkpt lat="43.17032" lon="0.93692">
        <ele>416.58</ele>
        <time>2020-06-02T00:17:20Z</time>
      </trkpt>
      <trkpt lat="43.17049" lon="0.9366">
        <ele>415.908</ele>
        <time>2020-06-02T00:17:00Z</time>
      </trkpt>
      <trkpt lat="43.17089" lon="0.93613">
        <ele>415.115</ele>
        <time>2020-06-02T00:16:40Z</time>
      </trkpt>
      <trkpt lat="43.17142" lon="0.93534">
        <ele>412.623</ele>
        <time>2020-06-02T00:16:20Z</time>
      </trkpt>
      <trkpt lat="43.17178" lon="0.93486">
        <ele>410.933</ele>
        <time>2020-06-02T00:16:00Z</time>
      </trkpt>
      <trkpt lat="43.17248" lon="0.9345">
        <ele>410.083</ele>
        <time>2020-06-02T00:15:40Z</time>
      </trkpt>
      <trkpt lat="43.17323" lon="0.93402">
        <ele>410.069</ele>
        <time>2020-06-02T00:15:20Z</time>
      </trkpt>
      <trkpt lat="43.17443" lon="0.93299">
        <ele>410.018</ele>
        <time>2020-06-02T00:15:00Z</time>
      </trkpt>
      <trkpt lat="43.17449" lon="0.93315">
        <ele>409.943</ele>
        <time>2020-06-02T00:14:40Z</time>
      </trkpt>
      <trkpt lat="43.17467" lon="0.93326">
        <ele>409.499</ele>
        <time>2020-06-02T00:14:20Z</time>
      </trkpt>
      <trkpt lat="43.17494" lon="0.93331">
        <ele>407.083</ele>
        <time>2020-06-02T00:14:00Z</time>
      </trkpt>
      <trkpt lat="43.17538" lon="0.93334">
        <ele>400.536</ele>
        <time>2020-06-02T00:13:40Z</time>
      </trkpt>
      <trkpt lat="43.17581" lon="0.93324">
        <ele>399.121</ele>
        <time>2020-06-02T00:13:20Z</time>
      </trkpt>
      <trkpt lat="43.17578" lon="0.9335">
        <ele>393.308</ele>
        <time>2020-06-02T00:13:00Z</time>
      </trkpt>
      <trkpt lat="43.17538" lon="0.93404">
        <ele>388.411</ele>
        <time>2020-06-02T00:12:40Z</time>
      </trkpt>
      <trkpt lat="43.17544" lon="0.93464">
        <ele>379.847</ele>
        <time>2020-06-02T00:12:20Z</time>
      </trkpt>
      <trkpt lat="43.17546" lon="0.9356">
        <ele>367.045</ele>
        <time>2020-06-02T00:12:00Z</time>
      </trkpt>
      <trkpt lat="43.17565" lon="0.93604">
        <ele>363.974</ele>
        <time>2020-06-02T00:11:40Z</time>
      </trkpt>
      <trkpt lat="43.1757" lon="0.93687">
        <ele>358.96</ele>
        <time>2020-06-02T00:11:20Z</time>
      </trkpt>
      <trkpt lat="43.17601" lon="0.93732">
        <ele>357.299</ele>
        <time>2020-06-02T00:11:00Z</time>
      </trkpt>
      <trkpt lat="43.17609" lon="0.93777">
        <ele>353.944</ele>
        <time>2020-10-31T22:20:05Z</time>
      </trkpt>
      <trkpt lat="43.17675" lon="0.93743">
        <ele>362.17</ele>
        <time>2020-06-02T00:09:00Z</time>
      </trkpt>
      <trkpt lat="43.17713" lon="0.93965">
        <ele>341.074</ele>
        <time>2020-06-02T00:08:40Z</time>
      </trkpt>
      <trkpt lat="43.17636" lon="0.94125">
        <ele>333.657</ele>
        <time>2020-06-02T00:07:40Z</time>
      </trkpt>
      <trkpt lat="43.17632" lon="0.94178">
        <ele>332.212</ele>
        <time>2020-06-02T00:07:20Z</time>
      </trkpt>
      <trkpt lat="43.17648" lon="0.94237">
        <ele>330.608</ele>
        <time>2020-06-02T00:07:00Z</time>
      </trkpt>
      <trkpt lat="43.17678" lon="0.94297">
        <ele>330.314</ele>
        <time>2020-06-02T00:06:40Z</time>
      </trkpt>
      <trkpt lat="43.17711" lon="0.94334">
        <ele>328.404</ele>
        <time>2020-06-02T00:06:20Z</time>
      </trkpt>
      <trkpt lat="43.17718" lon="0.94473">
        <ele>320.253</ele>
        <time>2020-06-02T00:06:00Z</time>
      </trkpt>
      <trkpt lat="43.17751" lon="0.9461">
        <ele>320.016</ele>
        <time>2020-06-02T00:05:40Z</time>
      </trkpt>
      <trkpt lat="43.17728" lon="0.94642">
        <ele>320.092</ele>
        <time>2020-06-02T00:05:20Z</time>
      </trkpt>
      <trkpt lat="43.17761" lon="0.94661">
        <ele>320.051</ele>
        <time>2020-06-02T00:05:00Z</time>
      </trkpt>
      <trkpt lat="43.17787" lon="0.94664">
        <ele>320.366</ele>
        <time>2020-06-02T00:04:40Z</time>
      </trkpt>
      <trkpt lat="43.17809" lon="0.94657">
        <ele>320.612</ele>
        <time>2020-06-02T00:04:20Z</time>
      </trkpt>
      <trkpt lat="43.1787" lon="0.94659">
        <ele>321.886</ele>
        <time>2020-06-02T00:04:00Z</time>
      </trkpt>
      <trkpt lat="43.18037" lon="0.94613">
        <ele>330.089</ele>
        <time>2020-06-02T00:03:40Z</time>
      </trkpt>
      <trkpt lat="43.18103" lon="0.94643">
        <ele>338.084</ele>
        <time>2020-06-02T00:03:20Z</time>
      </trkpt>
      <trkpt lat="43.18119" lon="0.94633">
        <ele>339.408</ele>
        <time>2020-06-02T00:03:00Z</time>
      </trkpt>
      <trkpt lat="43.18148" lon="0.94603">
        <ele>340.625</ele>
        <time>2020-06-02T00:02:40Z</time>
      </trkpt>
      <trkpt lat="43.18181" lon="0.94594">
        <ele>344.205</ele>
        <time>2020-06-02T00:02:20Z</time>
      </trkpt>
      <trkpt lat="43.18212" lon="0.94574">
        <ele>347.579</ele>
        <time>2020-06-02T00:02:00Z</time>
      </trkpt>
      <trkpt lat="43.18248" lon="0.94519">
        <ele>347.746</ele>
        <time>2020-06-02T00:01:40Z</time>
      </trkpt>
      <trkpt lat="43.18247" lon="0.94538">
        <ele>350.252</ele>
        <time>2020-06-02T00:01:20Z</time>
      </trkpt>
      <trkpt lat="43.18173" lon="0.94688">
        <ele>354.581</ele>
        <time>2020-06-02T00:01:00Z</time>
      </trkpt>
      <trkpt lat="43.18143" lon="0.94721">
        <ele>351.066</ele>
        <time>2020-06-02T00:00:40Z</time>
      </trkpt>
      <trkpt lat="43.1814" lon="0.94752">
        <ele>351.492</ele>
        <time>2020-06-02T00:00:20Z</time>
      </trkpt>
      <trkpt lat="43.18137" lon="0.94941">
        <ele>357.866</ele>
        <time>2020-06-02T00:00:00Z</time>
      </trkpt>
      <trkpt lat="43.18161" lon="0.95081">
        <ele>353.579</ele>
        <time>2020-06-01T23:59:40Z</time>
      </trkpt>
      <trkpt lat="43.18191" lon="0.95097">
        <ele>355.254</ele>
        <time>2020-06-01T23:59:00Z</time>
      </trkpt>
      <trkpt lat="43.18187" lon="0.95231">
        <ele>345.508</ele>
        <time>2020-06-01T23:58:40Z</time>
      </trkpt>
      <trkpt lat="43.18208" lon="0.95314">
        <ele>341.814</ele>
        <time>2020-06-01T23:58:20Z</time>
      </trkpt>
      <trkpt lat="43.18218" lon="0.95379">
        <ele>337.413</ele>
        <time>2020-06-01T23:58:00Z</time>
      </trkpt>
      <trkpt lat="43.18251" lon="0.95447">
        <ele>334.972</ele>
        <time>2020-06-01T23:57:40Z</time>
      </trkpt>
      <trkpt lat="43.18236" lon="0.95691">
        <ele>324.646</ele>
        <time>2020-06-01T23:57:00Z</time>
      </trkpt>
      <trkpt lat="43.18246" lon="0.95757">
        <ele>323.522</ele>
        <time>2020-06-01T23:56:40Z</time>
      </trkpt>
      <trkpt lat="43.18236" lon="0.95787">
        <ele>321.741</ele>
        <time>2020-06-01T23:56:20Z</time>
      </trkpt>
      <trkpt lat="43.18271" lon="0.95931">
        <ele>320.026</ele>
        <time>2020-06-01T23:56:00Z</time>
      </trkpt>
      <trkpt lat="43.18497" lon="0.9564">
        <ele>339.262</ele>
        <time>2020-06-01T23:53:20Z</time>
      </trkpt>
      <trkpt lat="43.18537" lon="0.9557">
        <ele>339.286</ele>
        <time>2020-06-01T23:53:00Z</time>
      </trkpt>
      <trkpt lat="43.18554" lon="0.95525">
        <ele>339.479</ele>
        <time>2020-06-01T23:52:40Z</time>
      </trkpt>
      <trkpt lat="43.18581" lon="0.95477">
        <ele>337.944</ele>
        <time>2020-06-01T23:52:20Z</time>
      </trkpt>
      <trkpt lat="43.18608" lon="0.95572">
        <ele>322.608</ele>
        <time>2020-06-01T23:52:00Z</time>
      </trkpt>
      <trkpt lat="43.18631" lon="0.9561">
        <ele>320.021</ele>
        <time>2020-06-01T23:51:40Z</time>
      </trkpt>
      <trkpt lat="43.18603" lon="0.95729">
        <ele>317.156</ele>
        <time>2020-06-01T23:51:20Z</time>
      </trkpt>
      <trkpt lat="43.1858" lon="0.95857">
        <ele>309.274</ele>
        <time>2020-06-01T23:51:00Z</time>
      </trkpt>
      <trkpt lat="43.18578" lon="0.95969">
        <ele>306.791</ele>
        <time>2020-06-01T23:50:40Z</time>
      </trkpt>
      <trkpt lat="43.18583" lon="0.96022">
        <ele>306.957</ele>
        <time>2020-10-31T22:00:05Z</time>
      </trkpt>
      <trkpt lat="43.18582" lon="0.96077">
        <ele>305.836</ele>
        <time>2020-06-01T23:50:00Z</time>
      </trkpt>
      <trkpt lat="43.18574" lon="0.96137">
        <ele>303.371</ele>
        <time>2020-06-01T23:49:40Z</time>
      </trkpt>
      <trkpt lat="43.18549" lon="0.96235">
        <ele>300.457</ele>
        <time>2020-06-01T23:49:20Z</time>
      </trkpt>
      <trkpt lat="43.18537" lon="0.96271">
        <ele>300.021</ele>
        <time>2020-06-01T23:49:00Z</time>
      </trkpt>
      <trkpt lat="43.18552" lon="0.96311">
        <ele>300.054</ele>
        <time>2020-06-01T23:48:40Z</time>
      </trkpt>
      <trkpt lat="43.18535" lon="0.96383">
        <ele>300.079</ele>
        <time>2020-06-01T23:48:20Z</time>
      </trkpt>
      <trkpt lat="43.18481" lon="0.96421">
        <ele>300.008</ele>
        <time>2020-06-01T23:48:00Z</time>
      </trkpt>
      <trkpt lat="43.18463" lon="0.96459">
        <ele>299.314</ele>
        <time>2020-06-01T23:47:40Z</time>
      </trkpt>
      <trkpt lat="43.18431" lon="0.96551">
        <ele>295.168</ele>
        <time>2020-06-01T23:47:20Z</time>
      </trkpt>
      <trkpt lat="43.1841" lon="0.96648">
        <ele>294.027</ele>
        <time>2020-06-01T23:47:00Z</time>
      </trkpt>
      <trkpt lat="43.18392" lon="0.9665">
        <ele>290.781</ele>
        <time>2020-06-01T23:46:40Z</time>
      </trkpt>
      <trkpt lat="43.18348" lon="0.96754">
        <ele>288.467</ele>
        <time>2020-06-01T23:46:20Z</time>
      </trkpt>
      <trkpt lat="43.18285" lon="0.96821">
        <ele>287.816</ele>
        <time>2020-06-01T23:46:00Z</time>
      </trkpt>
      <trkpt lat="43.18247" lon="0.96826">
        <ele>287.451</ele>
        <time>2020-06-01T23:45:40Z</time>
      </trkpt>
      <trkpt lat="43.18206" lon="0.96811">
        <ele>286.227</ele>
        <time>2020-06-01T23:45:20Z</time>
      </trkpt>
      <trkpt lat="43.18164" lon="0.96793">
        <ele>285.931</ele>
        <time>2020-06-01T23:45:00Z</time>
      </trkpt>
      <trkpt lat="43.18087" lon="0.96805">
        <ele>284.184</ele>
        <time>2020-06-01T23:44:40Z</time>
      </trkpt>
      <trkpt lat="43.18005" lon="0.96802">
        <ele>285.399</ele>
        <time>2020-06-01T23:44:20Z</time>
      </trkpt>
      <trkpt lat="43.17964" lon="0.96815">
        <ele>284.108</ele>
        <time>2020-06-01T23:44:00Z</time>
      </trkpt>
      <trkpt lat="43.17852" lon="0.96877">
        <ele>279.408</ele>
        <time>2020-06-01T23:43:40Z</time>
      </trkpt>
      <trkpt lat="43.17806" lon="0.96887">
        <ele>278.262</ele>
        <time>2020-06-01T23:43:20Z</time>
      </trkpt>
      <trkpt lat="43.17787" lon="0.96879">
        <ele>278.522</ele>
        <time>2020-06-01T23:43:00Z</time>
      </trkpt>
      <trkpt lat="43.1776" lon="0.969">
        <ele>276.514</ele>
        <time>2020-06-01T23:42:40Z</time>
      </trkpt>
      <trkpt lat="43.17723" lon="0.96945">
        <ele>272.07</ele>
        <time>2020-06-01T23:42:20Z</time>
      </trkpt>
      <trkpt lat="43.17696" lon="0.9696">
        <ele>270.539</ele>
        <time>2020-06-01T23:42:00Z</time>
      </trkpt>
      <trkpt lat="43.17666" lon="0.96958">
        <ele>270.034</ele>
        <time>2020-06-01T23:41:40Z</time>
      </trkpt>
      <trkpt lat="43.17647" lon="0.96965">
        <ele>270.05</ele>
        <time>2020-06-01T23:41:20Z</time>
      </trkpt>
      <trkpt lat="43.17624" lon="0.96998">
        <ele>269.044</ele>
        <time>2020-06-01T23:41:00Z</time>
      </trkpt>
      <trkpt lat="43.17614" lon="0.97032">
        <ele>268.957</ele>
        <time>2020-06-01T23:40:40Z</time>
      </trkpt>
      <trkpt lat="43.17616" lon="0.97086">
        <ele>267.922</ele>
        <time>2020-10-31T21:50:05Z</time>
      </trkpt>
      <trkpt lat="43.17422" lon="0.97334">
        <ele>265.008</ele>
        <time>2020-06-01T23:39:20Z</time>
      </trkpt>
      <trkpt lat="43.17604" lon="0.97528">
        <ele>260.011</ele>
        <time>2020-06-01T23:37:40Z</time>
      </trkpt>
      <trkpt lat="43.17627" lon="0.97536">
        <ele>260.001</ele>
        <time>2020-06-01T23:37:20Z</time>
      </trkpt>
      <trkpt lat="43.17667" lon="0.97528">
        <ele>260.051</ele>
        <time>2020-06-01T23:37:00Z</time>
      </trkpt>
      <trkpt lat="43.17787" lon="0.97464">
        <ele>260.271</ele>
        <time>2020-06-01T23:36:40Z</time>
      </trkpt>
      <trkpt lat="43.17804" lon="0.97462">
        <ele>260.017</ele>
        <time>2020-06-01T23:36:20Z</time>
      </trkpt>
      <trkpt lat="43.1784" lon="0.97466">
        <ele>260.036</ele>
        <time>2020-10-31T21:45:45Z</time>
      </trkpt>
      <trkpt lat="43.17851" lon="0.97439">
        <ele>260.071</ele>
        <time>2020-06-01T23:35:40Z</time>
      </trkpt>
      <trkpt lat="43.17852" lon="0.9739">
        <ele>262.667</ele>
        <time>2020-10-31T21:45:05Z</time>
      </trkpt>
      <trkpt lat="43.17903" lon="0.97363">
        <ele>264.751</ele>
        <time>2020-10-31T21:44:45Z</time>
      </trkpt>
      <trkpt lat="43.1787" lon="0.97257">
        <ele>267.224</ele>
        <time>2020-10-31T21:44:25Z</time>
      </trkpt>
      <trkpt lat="43.1788" lon="0.97245">
        <ele>267.759</ele>
        <time>2020-10-31T21:44:05Z</time>
      </trkpt>
      <trkpt lat="43.17993" lon="0.97322">
        <ele>267.408</ele>
        <time>2020-10-31T21:43:45Z</time>
      </trkpt>
      <trkpt lat="43.18015" lon="0.97329">
        <ele>267.708</ele>
        <time>2020-06-01T23:34:40Z</time>
      </trkpt>
      <trkpt lat="43.1805" lon="0.97314">
        <ele>268.926</ele>
        <time>2020-06-01T23:34:20Z</time>
      </trkpt>
      <trkpt lat="43.18087" lon="0.97274">
        <ele>270.325</ele>
        <time>2020-06-01T23:34:00Z</time>
      </trkpt>
      <trkpt lat="43.18122" lon="0.97254">
        <ele>271.323</ele>
        <time>2020-06-01T23:33:40Z</time>
      </trkpt>
      <trkpt lat="43.18147" lon="0.97256">
        <ele>271.889</ele>
        <time>2020-10-31T21:42:05Z</time>
      </trkpt>
      <trkpt lat="43.18185" lon="0.97268">
        <ele>272.058</ele>
        <time>2020-10-31T21:41:45Z</time>
      </trkpt>
      <trkpt lat="43.18234" lon="0.97287">
        <ele>272.543</ele>
        <time>2020-10-31T21:41:25Z</time>
      </trkpt>
      <trkpt lat="43.18245" lon="0.97285">
        <ele>272.789</ele>
        <time>2020-06-01T23:33:00Z</time>
      </trkpt>
      <trkpt lat="43.18229" lon="0.97254">
        <ele>273.283</ele>
        <time>2020-10-31T21:40:45Z</time>
      </trkpt>
      <trkpt lat="43.1825" lon="0.97257">
        <ele>273.756</ele>
        <time>2020-10-31T21:40:25Z</time>
      </trkpt>
      <trkpt lat="43.18293" lon="0.97286">
        <ele>273.471</ele>
        <time>2020-10-31T21:40:05Z</time>
      </trkpt>
      <trkpt lat="43.18319" lon="0.97332">
        <ele>273.508</ele>
        <time>2020-10-31T21:39:45Z</time>
      </trkpt>
      <trkpt lat="43.18337" lon="0.97429">
        <ele>272.611</ele>
        <time>2020-10-31T21:39:25Z</time>
      </trkpt>
      <trkpt lat="43.18383" lon="0.97525">
        <ele>272.047</ele>
        <time>2020-10-31T21:39:05Z</time>
      </trkpt>
      <trkpt lat="43.18464" lon="0.97595">
        <ele>271.945</ele>
        <time>2020-10-31T21:38:45Z</time>
      </trkpt>
      <trkpt lat="43.18522" lon="0.97677">
        <ele>272.098</ele>
        <time>2020-10-31T21:38:25Z</time>
      </trkpt>
      <trkpt lat="43.18596" lon="0.97811">
        <ele>272.524</ele>
        <time>2020-10-31T21:38:05Z</time>
      </trkpt>
      <trkpt lat="43.18623" lon="0.97838">
        <ele>272.833</ele>
        <time>2020-10-31T21:37:45Z</time>
      </trkpt>
      <trkpt lat="43.18674" lon="0.97861">
        <ele>272.028</ele>
        <time>2020-10-31T21:37:25Z</time>
      </trkpt>
      <trkpt lat="43.18711" lon="0.97877">
        <ele>272.024</ele>
        <time>2020-10-31T21:37:05Z</time>
      </trkpt>
      <trkpt lat="43.18739" lon="0.97909">
        <ele>272.058</ele>
        <time>2020-10-31T21:36:45Z</time>
      </trkpt>
      <trkpt lat="43.1877" lon="0.9799">
        <ele>272.011</ele>
        <time>2020-10-31T21:36:25Z</time>
      </trkpt>
      <trkpt lat="43.18791" lon="0.98032">
        <ele>272.086</ele>
        <time>2020-10-31T21:36:05Z</time>
      </trkpt>
      <trkpt lat="43.18817" lon="0.97992">
        <ele>272.108</ele>
        <time>2020-10-31T21:35:45Z</time>
      </trkpt>
      <trkpt lat="43.1888" lon="0.97949">
        <ele>273.024</ele>
        <time>2020-10-31T21:35:25Z</time>
      </trkpt>
      <trkpt lat="43.18997" lon="0.97891">
        <ele>274.031</ele>
        <time>2020-06-01T23:28:20Z</time>
      </trkpt>
      <trkpt lat="43.19039" lon="0.97851">
        <ele>274.696</ele>
        <time>2020-10-31T21:34:45Z</time>
      </trkpt>
      <trkpt lat="43.1912" lon="0.97812">
        <ele>277.418</ele>
        <time>2020-06-01T23:27:40Z</time>
      </trkpt>
      <trkpt lat="43.19132" lon="0.97817">
        <ele>278.114</ele>
        <time>2020-06-01T23:27:20Z</time>
      </trkpt>
      <trkpt lat="43.19133" lon="0.97904">
        <ele>276.633</ele>
        <time>2020-06-01T23:27:00Z</time>
      </trkpt>
      <trkpt lat="43.19134" lon="0.97968">
        <ele>275.888</ele>
        <time>2020-10-31T21:33:25Z</time>
      </trkpt>
      <trkpt lat="43.19143" lon="0.98009">
        <ele>276.124</ele>
        <time>2020-06-01T23:26:40Z</time>
      </trkpt>
      <trkpt lat="43.19174" lon="0.98112">
        <ele>276.568</ele>
        <time>2020-06-01T23:26:20Z</time>
      </trkpt>
      <trkpt lat="43.19187" lon="0.98173">
        <ele>276.511</ele>
        <time>2020-06-01T23:26:00Z</time>
      </trkpt>
      <trkpt lat="43.19218" lon="0.98243">
        <ele>277.256</ele>
        <time>2020-06-01T23:25:40Z</time>
      </trkpt>
      <trkpt lat="43.19237" lon="0.9827">
        <ele>279.208</ele>
        <time>2020-06-01T23:25:20Z</time>
      </trkpt>
      <trkpt lat="43.19248" lon="0.98289">
        <ele>279.524</ele>
        <time>2020-06-01T23:25:00Z</time>
      </trkpt>
      <trkpt lat="43.19265" lon="0.9833">
        <ele>277.931</ele>
        <time>2020-06-01T23:24:40Z</time>
      </trkpt>
      <trkpt lat="43.19295" lon="0.98392">
        <ele>276.996</ele>
        <time>2020-10-31T21:30:45Z</time>
      </trkpt>
      <trkpt lat="43.19301" lon="0.98421">
        <ele>277.251</ele>
        <time>2020-06-01T23:23:20Z</time>
      </trkpt>
      <trkpt lat="43.19305" lon="0.98447">
        <ele>275.947</ele>
        <time>2020-06-01T23:23:00Z</time>
      </trkpt>
      <trkpt lat="43.19315" lon="0.98482">
        <ele>276.716</ele>
        <time>2020-06-01T23:22:40Z</time>
      </trkpt>
      <trkpt lat="43.19342" lon="0.98552">
        <ele>276.551</ele>
        <time>2020-06-01T23:22:20Z</time>
      </trkpt>
      <trkpt lat="43.19352" lon="0.98583">
        <ele>277.027</ele>
        <time>2020-06-01T23:22:00Z</time>
      </trkpt>
      <trkpt lat="43.19358" lon="0.98606">
        <ele>276.881</ele>
        <time>2020-06-01T23:21:40Z</time>
      </trkpt>
      <trkpt lat="43.19364" lon="0.98637">
        <ele>276.454</ele>
        <time>2020-06-01T23:21:20Z</time>
      </trkpt>
      <trkpt lat="43.19374" lon="0.98719">
        <ele>275.599</ele>
        <time>2020-06-01T23:21:00Z</time>
      </trkpt>
      <trkpt lat="43.19381" lon="0.9878">
        <ele>274.708</ele>
        <time>2020-06-01T23:20:20Z</time>
      </trkpt>
      <trkpt lat="43.19412" lon="0.98857">
        <ele>274.205</ele>
        <time>2020-10-31T21:27:25Z</time>
      </trkpt>
      <trkpt lat="43.19455" lon="0.98927">
        <ele>273.841</ele>
        <time>2020-06-01T23:19:00Z</time>
      </trkpt>
      <trkpt lat="43.19484" lon="0.98958">
        <ele>273.721</ele>
        <time>2020-06-01T23:18:20Z</time>
      </trkpt>
      <trkpt lat="43.19473" lon="0.98979">
        <ele>273.018</ele>
        <time>2020-10-31T21:26:25Z</time>
      </trkpt>
      <trkpt lat="43.19503" lon="0.99068">
        <ele>272.164</ele>
        <time>2020-06-01T23:16:00Z</time>
      </trkpt>
      <trkpt lat="43.19415" lon="0.99149">
        <ele>271.033</ele>
        <time>2020-06-01T23:13:00Z</time>
      </trkpt>
      <trkpt lat="43.19422" lon="0.99162">
        <ele>270.868</ele>
        <time>2020-06-01T23:12:40Z</time>
      </trkpt>
      <trkpt lat="43.19438" lon="0.99172">
        <ele>270.254</ele>
        <time>2020-06-01T23:12:20Z</time>
      </trkpt>
      <trkpt lat="43.19449" lon="0.99181">
        <ele>270.058</ele>
        <time>2020-06-01T23:12:00Z</time>
      </trkpt>
      <trkpt lat="43.1946" lon="0.99199">
        <ele>270.071</ele>
        <time>2020-06-01T23:11:40Z</time>
      </trkpt>
      <trkpt lat="43.19711" lon="0.99734">
        <ele>269.066</ele>
        <time>2020-10-31T21:24:05Z</time>
      </trkpt>
      <trkpt lat="43.19704" lon="0.99772">
        <ele>269.008</ele>
        <time>2020-10-31T21:23:45Z</time>
      </trkpt>
      <trkpt lat="43.19709" lon="0.99832">
        <ele>269.027</ele>
        <time>2020-10-31T21:23:25Z</time>
      </trkpt>
      <trkpt lat="43.19735" lon="0.99981">
        <ele>268.607</ele>
        <time>2020-06-01T23:07:20Z</time>
      </trkpt>
      <trkpt lat="43.19751" lon="1.00039">
        <ele>268.699</ele>
        <time>2020-06-01T23:07:00Z</time>
      </trkpt>
      <trkpt lat="43.19782" lon="1.00171">
        <ele>267.078</ele>
        <time>2020-06-01T23:06:40Z</time>
      </trkpt>
      <trkpt lat="43.19805" lon="1.00287">
        <ele>267.094</ele>
        <time>2020-06-01T23:06:20Z</time>
      </trkpt>
      <trkpt lat="43.19818" lon="1.0045">
        <ele>266.823</ele>
        <time>2020-06-01T23:05:00Z</time>
      </trkpt>
      <trkpt lat="43.19823" lon="1.00483">
        <ele>266.078</ele>
        <time>2020-06-01T23:04:40Z</time>
      </trkpt>
      <trkpt lat="43.19823" lon="1.00496">
        <ele>266.014</ele>
        <time>2020-06-01T23:04:20Z</time>
      </trkpt>
      <trkpt lat="43.19814" lon="1.00513">
        <ele>266.028</ele>
        <time>2020-06-01T23:04:00Z</time>
      </trkpt>
      <trkpt lat="43.19807" lon="1.00545">
        <ele>266.081</ele>
        <time>2020-10-31T21:20:25Z</time>
      </trkpt>
      <trkpt lat="43.19803" lon="1.00594">
        <ele>266.076</ele>
        <time>2020-10-31T21:20:05Z</time>
      </trkpt>
      <trkpt lat="43.19782" lon="1.00713">
        <ele>266.008</ele>
        <time>2020-10-31T21:19:45Z</time>
      </trkpt>
      <trkpt lat="43.19792" lon="1.00737">
        <ele>266.021</ele>
        <time>2020-06-01T23:01:20Z</time>
      </trkpt>
      <trkpt lat="43.19808" lon="1.00799">
        <ele>265.265</ele>
        <time>2020-06-01T23:01:00Z</time>
      </trkpt>
      <trkpt lat="43.19846" lon="1.00915">
        <ele>265.093</ele>
        <time>2020-10-31T21:18:45Z</time>
      </trkpt>
      <trkpt lat="43.19893" lon="1.01004">
        <ele>265.04</ele>
        <time>2020-06-01T22:58:20Z</time>
      </trkpt>
      <trkpt lat="43.1995" lon="1.01202">
        <ele>265.066</ele>
        <time>2020-10-31T21:18:05Z</time>
      </trkpt>
      <trkpt lat="43.19938" lon="1.01206">
        <ele>265.015</ele>
        <time>2020-10-31T21:17:45Z</time>
      </trkpt>
      <trkpt lat="43.19902" lon="1.01199">
        <ele>265.02</ele>
        <time>2020-10-31T21:17:25Z</time>
      </trkpt>
      <trkpt lat="43.19878" lon="1.01183">
        <ele>265.076</ele>
        <time>2020-10-31T21:17:05Z</time>
      </trkpt>
      <trkpt lat="43.1983" lon="1.01264">
        <ele>265.03</ele>
        <time>2020-06-01T22:56:40Z</time>
      </trkpt>
      <trkpt lat="43.19801" lon="1.01301">
        <ele>265.073</ele>
        <time>2020-06-01T22:56:20Z</time>
      </trkpt>
      <trkpt lat="43.19771" lon="1.01349">
        <ele>264.078</ele>
        <time>2020-06-01T22:56:00Z</time>
      </trkpt>
      <trkpt lat="43.19736" lon="1.0145">
        <ele>263.008</ele>
        <time>2020-10-31T21:15:45Z</time>
      </trkpt>
      <trkpt lat="43.19703" lon="1.01668">
        <ele>262.011</ele>
        <time>2020-10-31T21:15:25Z</time>
      </trkpt>
      <trkpt lat="43.1969" lon="1.01807">
        <ele>262.065</ele>
        <time>2020-10-31T21:15:05Z</time>
      </trkpt>
      <trkpt lat="43.19738" lon="1.02054">
        <ele>262.015</ele>
        <time>2020-10-31T21:14:45Z</time>
      </trkpt>
      <trkpt lat="43.19732" lon="1.02084">
        <ele>262.097</ele>
        <time>2020-10-31T21:14:25Z</time>
      </trkpt>
      <trkpt lat="43.19719" lon="1.02105">
        <ele>262.063</ele>
        <time>2020-06-01T22:52:20Z</time>
      </trkpt>
      <trkpt lat="43.19704" lon="1.02129">
        <ele>262.042</ele>
        <time>2020-06-01T22:52:00Z</time>
      </trkpt>
      <trkpt lat="43.19458" lon="1.02384">
        <ele>258.297</ele>
        <time>2020-10-31T21:13:25Z</time>
      </trkpt>
      <trkpt lat="43.19453" lon="1.02408">
        <ele>256.393</ele>
        <time>2020-06-01T22:47:40Z</time>
      </trkpt>
      <trkpt lat="43.19463" lon="1.02456">
        <ele>255.587</ele>
        <time>2020-06-01T22:47:00Z</time>
      </trkpt>
      <trkpt lat="43.19475" lon="1.02502">
        <ele>254.58</ele>
        <time>2020-10-31T21:12:25Z</time>
      </trkpt>
      <trkpt lat="43.19474" lon="1.02528">
        <ele>252.415</ele>
        <time>2020-06-01T22:46:00Z</time>
      </trkpt>
      <trkpt lat="43.19462" lon="1.02564">
        <ele>249.008</ele>
        <time>2020-06-01T22:45:20Z</time>
      </trkpt>
      <trkpt lat="43.19439" lon="1.02619">
        <ele>246.417</ele>
        <time>2020-06-01T22:45:00Z</time>
      </trkpt>
      <trkpt lat="43.1943" lon="1.02648">
        <ele>245.389</ele>
        <time>2020-06-01T22:44:40Z</time>
      </trkpt>
      <trkpt lat="43.19427" lon="1.02673">
        <ele>244.785</ele>
        <time>2020-06-01T22:43:40Z</time>
      </trkpt>
      <trkpt lat="43.19427" lon="1.02715">
        <ele>244.776</ele>
        <time>2020-06-01T22:43:00Z</time>
      </trkpt>
      <trkpt lat="43.19444" lon="1.02804">
        <ele>245.022</ele>
        <time>2020-06-01T22:41:40Z</time>
      </trkpt>
      <trkpt lat="43.19455" lon="1.02855">
        <ele>245.411</ele>
        <time>2020-06-01T22:41:20Z</time>
      </trkpt>
      <trkpt lat="43.19516" lon="1.0309">
        <ele>247.646</ele>
        <time>2020-10-31T21:09:25Z</time>
      </trkpt>
      <trkpt lat="43.19529" lon="1.03127">
        <ele>248.022</ele>
        <time>2020-06-01T22:39:20Z</time>
      </trkpt>
      <trkpt lat="43.19551" lon="1.03165">
        <ele>248.096</ele>
        <time>2020-06-01T22:38:00Z</time>
      </trkpt>
      <trkpt lat="43.19569" lon="1.03207">
        <ele>249.029</ele>
        <time>2020-10-31T21:08:25Z</time>
      </trkpt>
      <trkpt lat="43.1958" lon="1.03251">
        <ele>249.914</ele>
        <time>2020-10-31T21:08:05Z</time>
      </trkpt>
      <trkpt lat="43.19586" lon="1.03283">
        <ele>250.008</ele>
        <time>2020-06-01T22:36:20Z</time>
      </trkpt>
      <trkpt lat="43.19596" lon="1.03312">
        <ele>250.026</ele>
        <time>2020-10-31T21:07:25Z</time>
      </trkpt>
      <trkpt lat="43.19633" lon="1.0335">
        <ele>250.833</ele>
        <time>2020-06-01T22:35:00Z</time>
      </trkpt>
      <trkpt lat="43.19667" lon="1.03386">
        <ele>251.078</ele>
        <time>2020-06-01T22:34:40Z</time>
      </trkpt>
      <trkpt lat="43.19697" lon="1.03421">
        <ele>252.076</ele>
        <time>2020-10-31T21:06:25Z</time>
      </trkpt>
      <trkpt lat="43.19733" lon="1.03476">
        <ele>252.042</ele>
        <time>2020-06-01T22:34:00Z</time>
      </trkpt>
      <trkpt lat="43.19732" lon="1.03485">
        <ele>252.071</ele>
        <time>2020-06-01T22:33:40Z</time>
      </trkpt>
      <trkpt lat="43.19756" lon="1.03509">
        <ele>252.026</ele>
        <time>2020-06-01T22:33:20Z</time>
      </trkpt>
      <trkpt lat="43.1978" lon="1.03523">
        <ele>252.052</ele>
        <time>2020-06-01T22:32:40Z</time>
      </trkpt>
      <trkpt lat="43.19811" lon="1.03533">
        <ele>252.096</ele>
        <time>2020-06-01T22:32:00Z</time>
      </trkpt>
      <trkpt lat="43.19839" lon="1.03548">
        <ele>252.169</ele>
        <time>2020-06-01T22:31:20Z</time>
      </trkpt>
      <trkpt lat="43.19866" lon="1.03566">
        <ele>252.284</ele>
        <time>2020-06-01T22:30:40Z</time>
      </trkpt>
      <trkpt lat="43.19889" lon="1.03581">
        <ele>253.008</ele>
        <time>2020-06-01T22:30:20Z</time>
      </trkpt>
      <trkpt lat="43.19897" lon="1.03585">
        <ele>252.919</ele>
        <time>2020-06-01T22:30:00Z</time>
      </trkpt>
      <trkpt lat="43.19922" lon="1.03593">
        <ele>252.79</ele>
        <time>2020-06-01T22:29:40Z</time>
      </trkpt>
      <trkpt lat="43.1994" lon="1.036">
        <ele>252.976</ele>
        <time>2020-06-01T22:29:20Z</time>
      </trkpt>
      <trkpt lat="43.19975" lon="1.03615">
        <ele>252.941</ele>
        <time>2020-06-01T22:29:00Z</time>
      </trkpt>
      <trkpt lat="43.20005" lon="1.03633">
        <ele>252.237</ele>
        <time>2020-06-01T22:28:00Z</time>
      </trkpt>
      <trkpt lat="43.20037" lon="1.03661">
        <ele>250.946</ele>
        <time>2020-06-01T22:27:40Z</time>
      </trkpt>
      <trkpt lat="43.20059" lon="1.03676">
        <ele>250.291</ele>
        <time>2020-06-01T22:27:20Z</time>
      </trkpt>
      <trkpt lat="43.20087" lon="1.03701">
        <ele>250.997</ele>
        <time>2020-06-01T22:26:40Z</time>
      </trkpt>
      <trkpt lat="43.20149" lon="1.0377">
        <ele>250.911</ele>
        <time>2020-06-01T22:26:20Z</time>
      </trkpt>
      <trkpt lat="43.20176" lon="1.03807">
        <ele>251.324</ele>
        <time>2020-10-31T21:00:25Z</time>
      </trkpt>
      <trkpt lat="43.2021" lon="1.03861">
        <ele>251.169</ele>
        <time>2020-06-01T22:25:40Z</time>
      </trkpt>
      <trkpt lat="43.20243" lon="1.03938">
        <ele>251.008</ele>
        <time>2020-10-31T20:59:45Z</time>
      </trkpt>
      <trkpt lat="43.20257" lon="1.03959">
        <ele>250.708</ele>
        <time>2020-10-31T20:59:25Z</time>
      </trkpt>
      <trkpt lat="43.20273" lon="1.03971">
        <ele>250.962</ele>
        <time>2020-10-31T20:59:05Z</time>
      </trkpt>
      <trkpt lat="43.20304" lon="1.03999">
        <ele>251.022</ele>
        <time>2020-10-31T20:58:45Z</time>
      </trkpt>
      <trkpt lat="43.2038" lon="1.04249">
        <ele>250.042</ele>
        <time>2020-10-31T20:58:25Z</time>
      </trkpt>
      <trkpt lat="43.20442" lon="1.04519">
        <ele>250.058</ele>
        <time>2020-10-31T20:57:45Z</time>
      </trkpt>
      <trkpt lat="43.20608" lon="1.05522">
        <ele>250.977</ele>
        <time>2020-10-31T20:56:45Z</time>
      </trkpt>
      <trkpt lat="43.20624" lon="1.05667">
        <ele>251.012</ele>
        <time>2020-06-01T22:20:00Z</time>
      </trkpt>
      <trkpt lat="43.20628" lon="1.05748">
        <ele>251.028</ele>
        <time>2020-06-01T22:19:20Z</time>
      </trkpt>
      <trkpt lat="43.20612" lon="1.05829">
        <ele>251.092</ele>
        <time>2020-10-31T20:55:25Z</time>
      </trkpt>
      <trkpt lat="43.20592" lon="1.05892">
        <ele>251.065</ele>
        <time>2020-10-31T20:55:05Z</time>
      </trkpt>
      <trkpt lat="43.20542" lon="1.05895">
        <ele>250.61</ele>
        <time>2020-10-31T20:54:25Z</time>
      </trkpt>
      <trkpt lat="43.20486" lon="1.05798">
        <ele>250.008</ele>
        <time>2020-10-31T20:54:05Z</time>
      </trkpt>
      <trkpt lat="43.20456" lon="1.05856">
        <ele>250.015</ele>
        <time>2020-06-01T22:18:00Z</time>
      </trkpt>
      <trkpt lat="43.20436" lon="1.0589">
        <ele>250.023</ele>
        <time>2020-10-31T20:53:25Z</time>
      </trkpt>
      <trkpt lat="43.20401" lon="1.05931">
        <ele>250.033</ele>
        <time>2020-06-01T22:17:40Z</time>
      </trkpt>
      <trkpt lat="43.20343" lon="1.05983">
        <ele>247.315</ele>
        <time>2020-10-31T20:52:45Z</time>
      </trkpt>
      <trkpt lat="43.20302" lon="1.06004">
        <ele>245.051</ele>
        <time>2020-10-31T20:52:25Z</time>
      </trkpt>
      <trkpt lat="43.20292" lon="1.05999">
        <ele>245.01</ele>
        <time>2020-10-31T20:52:05Z</time>
      </trkpt>
      <trkpt lat="43.20267" lon="1.05942">
        <ele>244.765</ele>
        <time>2020-10-31T20:51:45Z</time>
      </trkpt>
      <trkpt lat="43.20234" lon="1.05887">
        <ele>244.551</ele>
        <time>2020-10-31T20:51:25Z</time>
      </trkpt>
      <trkpt lat="43.20216" lon="1.05881">
        <ele>244.255</ele>
        <time>2020-10-31T20:51:05Z</time>
      </trkpt>
      <trkpt lat="43.20075" lon="1.05962">
        <ele>242.418</ele>
        <time>2020-10-31T20:50:45Z</time>
      </trkpt>
      <trkpt lat="43.20068" lon="1.06032">
        <ele>241.413</ele>
        <time>2020-10-31T20:50:25Z</time>
      </trkpt>
      <trkpt lat="43.20077" lon="1.06084">
        <ele>241.808</ele>
        <time>2020-10-31T20:50:05Z</time>
      </trkpt>
      <trkpt lat="43.20049" lon="1.06096">
        <ele>241.016</ele>
        <time>2020-10-31T20:49:45Z</time>
      </trkpt>
      <trkpt lat="43.20037" lon="1.06207">
        <ele>241.306</ele>
        <time>2020-10-31T20:49:25Z</time>
      </trkpt>
      <trkpt lat="43.20039" lon="1.06292">
        <ele>241.064</ele>
        <time>2020-10-31T20:49:05Z</time>
      </trkpt>
      <trkpt lat="43.20058" lon="1.06419">
        <ele>240.167</ele>
        <time>2020-10-31T20:48:45Z</time>
      </trkpt>
      <trkpt lat="43.20085" lon="1.06483">
        <ele>240.133</ele>
        <time>2020-10-31T20:48:25Z</time>
      </trkpt>
      <trkpt lat="43.2014" lon="1.06462">
        <ele>242.022</ele>
        <time>2020-10-31T20:47:45Z</time>
      </trkpt>
      <trkpt lat="43.20227" lon="1.06855">
        <ele>245.817</ele>
        <time>2020-10-31T20:47:25Z</time>
      </trkpt>
      <trkpt lat="43.20177" lon="1.06871">
        <ele>240.563</ele>
        <time>2020-10-31T20:47:05Z</time>
      </trkpt>
      <trkpt lat="43.20196" lon="1.06928">
        <ele>245.197</ele>
        <time>2021-05-14T16:54:02Z</time>
      </trkpt>
      <trkpt lat="43.20202" lon="1.06988">
        <ele>244.68</ele>
        <time>2021-05-14T16:53:42Z</time>
      </trkpt>
      <trkpt lat="43.20176" lon="1.06997">
        <ele>237.385</ele>
        <time>2021-05-14T16:53:22Z</time>
      </trkpt>
      <trkpt lat="43.20177" lon="1.07052">
        <ele>236.608</ele>
        <time>2020-10-31T20:46:45Z</time>
      </trkpt>
      <trkpt lat="43.20271" lon="1.07019">
        <ele>247.017</ele>
        <time>2020-10-31T20:46:25Z</time>
      </trkpt>
      <trkpt lat="43.20281" lon="1.07069">
        <ele>247.161</ele>
        <time>2020-06-01T22:15:20Z</time>
      </trkpt>
      <trkpt lat="43.20334" lon="1.07367">
        <ele>247.081</ele>
        <time>2020-06-01T22:15:00Z</time>
      </trkpt>
      <trkpt lat="43.20278" lon="1.07384">
        <ele>246.044</ele>
        <time>2020-06-01T22:14:40Z</time>
      </trkpt>
      <trkpt lat="43.20215" lon="1.07409">
        <ele>242.41</ele>
        <time>2020-06-01T22:14:20Z</time>
      </trkpt>
      <trkpt lat="43.20209" lon="1.07439">
        <ele>240.539</ele>
        <time>2020-06-01T22:14:00Z</time>
      </trkpt>
      <trkpt lat="43.20202" lon="1.07499">
        <ele>240.694</ele>
        <time>2020-06-01T22:13:40Z</time>
      </trkpt>
      <trkpt lat="43.20204" lon="1.0756">
        <ele>243.19</ele>
        <time>2020-06-01T22:13:20Z</time>
      </trkpt>
      <trkpt lat="43.20215" lon="1.07603">
        <ele>244.774</ele>
        <time>2020-06-01T22:13:00Z</time>
      </trkpt>
      <trkpt lat="43.20251" lon="1.07688">
        <ele>245.097</ele>
        <time>2020-06-01T22:12:40Z</time>
      </trkpt>
      <trkpt lat="43.20269" lon="1.07743">
        <ele>245.062</ele>
        <time>2020-06-01T22:12:20Z</time>
      </trkpt>
      <trkpt lat="43.20164" lon="1.07772">
        <ele>242.408</ele>
        <time>2020-10-31T20:42:45Z</time>
      </trkpt>
      <trkpt lat="43.20154" lon="1.07818">
        <ele>238.214</ele>
        <time>2020-10-31T20:42:25Z</time>
      </trkpt>
      <trkpt lat="43.20165" lon="1.07971">
        <ele>238.759</ele>
        <time>2020-06-01T22:10:40Z</time>
      </trkpt>
      <trkpt lat="43.20142" lon="1.07935">
        <ele>233.256</ele>
        <time>2020-06-01T22:10:20Z</time>
      </trkpt>
      <trkpt lat="43.20114" lon="1.08296">
        <ele>237.95</ele>
        <time>2020-06-01T22:08:40Z</time>
      </trkpt>
      <trkpt lat="43.20153" lon="1.08402">
        <ele>240.586</ele>
        <time>2020-06-01T22:07:00Z</time>
      </trkpt>
      <trkpt lat="43.20226" lon="1.08537">
        <ele>240.075</ele>
        <time>2020-06-01T22:06:40Z</time>
      </trkpt>
      <trkpt lat="43.20252" lon="1.08555">
        <ele>240.04</ele>
        <time>2020-06-01T22:06:20Z</time>
      </trkpt>
      <trkpt lat="43.20288" lon="1.08618">
        <ele>235.516</ele>
        <time>2020-06-01T22:06:00Z</time>
      </trkpt>
      <trkpt lat="43.20406" lon="1.08689">
        <ele>232.89</ele>
        <time>2020-06-01T22:05:40Z</time>
      </trkpt>
      <trkpt lat="43.20463" lon="1.08714">
        <ele>234.313</ele>
        <time>2020-06-01T22:05:20Z</time>
      </trkpt>
      <trkpt lat="43.20553" lon="1.08766">
        <ele>234.828</ele>
        <time>2020-10-31T20:36:25Z</time>
      </trkpt>
      <trkpt lat="43.20586" lon="1.08805">
        <ele>233.808</ele>
        <time>2020-10-31T20:36:05Z</time>
      </trkpt>
      <trkpt lat="43.20606" lon="1.08845">
        <ele>237.711</ele>
        <time>2020-10-31T20:35:45Z</time>
      </trkpt>
      <trkpt lat="43.20634" lon="1.09074">
        <ele>235.665</ele>
        <time>2020-10-31T20:35:25Z</time>
      </trkpt>
      <trkpt lat="43.20671" lon="1.09272">
        <ele>240.015</ele>
        <time>2020-10-31T20:35:05Z</time>
      </trkpt>
      <trkpt lat="43.20657" lon="1.09312">
        <ele>240.035</ele>
        <time>2020-06-01T21:58:00Z</time>
      </trkpt>
      <trkpt lat="43.20614" lon="1.094">
        <ele>239.111</ele>
        <time>2020-06-01T21:57:40Z</time>
      </trkpt>
      <trkpt lat="43.20611" lon="1.09434">
        <ele>239.05</ele>
        <time>2020-06-01T21:57:20Z</time>
      </trkpt>
      <trkpt lat="43.20615" lon="1.09469">
        <ele>238.395</ele>
        <time>2020-06-01T21:57:00Z</time>
      </trkpt>
      <trkpt lat="43.20657" lon="1.09576">
        <ele>238.221</ele>
        <time>2020-10-31T20:33:25Z</time>
      </trkpt>
      <trkpt lat="43.2061" lon="1.09611">
        <ele>237.015</ele>
        <time>2020-10-31T20:33:05Z</time>
      </trkpt>
      <trkpt lat="43.2063" lon="1.09753">
        <ele>236.058</ele>
        <time>2020-10-31T20:32:45Z</time>
      </trkpt>
      <trkpt lat="43.20605" lon="1.09786">
        <ele>235.673</ele>
        <time>2020-10-31T20:32:25Z</time>
      </trkpt>
      <trkpt lat="43.20616" lon="1.09919">
        <ele>235.208</ele>
        <time>2020-10-31T20:32:05Z</time>
      </trkpt>
      <trkpt lat="43.20597" lon="1.09927">
        <ele>235.013</ele>
        <time>2020-10-31T20:31:45Z</time>
      </trkpt>
      <trkpt lat="43.20599" lon="1.09982">
        <ele>235.021</ele>
        <time>2020-10-31T20:31:25Z</time>
      </trkpt>
      <trkpt lat="43.20745" lon="1.0994">
        <ele>238.061</ele>
        <time>2020-10-31T20:31:05Z</time>
      </trkpt>
      <trkpt lat="43.20749" lon="1.10075">
        <ele>238.776</ele>
        <time>2020-06-01T21:55:00Z</time>
      </trkpt>
      <trkpt lat="43.20753" lon="1.10132">
        <ele>239.122</ele>
        <time>2020-06-01T21:54:40Z</time>
      </trkpt>
      <trkpt lat="43.20778" lon="1.10373">
        <ele>239.031</ele>
        <time>2020-06-01T21:54:20Z</time>
      </trkpt>
      <trkpt lat="43.20791" lon="1.10384">
        <ele>239.546</ele>
        <time>2020-06-01T21:54:00Z</time>
      </trkpt>
      <trkpt lat="43.20959" lon="1.1032">
        <ele>241.032</ele>
        <time>2020-10-31T20:29:25Z</time>
      </trkpt>
      <trkpt lat="43.20971" lon="1.10404">
        <ele>241.046</ele>
        <time>2020-06-01T21:53:20Z</time>
      </trkpt>
      <trkpt lat="43.21006" lon="1.10516">
        <ele>240.029</ele>
        <time>2020-06-01T21:53:00Z</time>
      </trkpt>
      <trkpt lat="43.21105" lon="1.1078">
        <ele>239.064</ele>
        <time>2020-06-01T21:52:40Z</time>
      </trkpt>
      <trkpt lat="43.2116" lon="1.1095">
        <ele>237.808</ele>
        <time>2020-06-01T21:52:20Z</time>
      </trkpt>
      <trkpt lat="43.21209" lon="1.11121">
        <ele>238.025</ele>
        <time>2020-06-01T21:52:00Z</time>
      </trkpt>
      <trkpt lat="43.21262" lon="1.1128">
        <ele>237.005</ele>
        <time>2020-06-01T21:51:40Z</time>
      </trkpt>
      <trkpt lat="43.21311" lon="1.11402">
        <ele>237.079</ele>
        <time>2020-06-01T21:51:20Z</time>
      </trkpt>
      <trkpt lat="43.21336" lon="1.11451">
        <ele>236.054</ele>
        <time>2020-06-01T21:51:00Z</time>
      </trkpt>
      <trkpt lat="43.2155" lon="1.11625">
        <ele>235.99</ele>
        <time>2020-06-01T21:50:40Z</time>
      </trkpt>
      <trkpt lat="43.21645" lon="1.11646">
        <ele>236.029</ele>
        <time>2020-06-01T21:50:20Z</time>
      </trkpt>
      <trkpt lat="43.21708" lon="1.11677">
        <ele>236.094</ele>
        <time>2020-06-01T21:50:00Z</time>
      </trkpt>
      <trkpt lat="43.21751" lon="1.11711">
        <ele>235.44</ele>
        <time>2020-06-01T21:49:40Z</time>
      </trkpt>
      <trkpt lat="43.218" lon="1.11765">
        <ele>235.064</ele>
        <time>2020-06-01T21:49:20Z</time>
      </trkpt>
      <trkpt lat="43.2208" lon="1.12136">
        <ele>235.067</ele>
        <time>2020-06-01T21:49:00Z</time>
      </trkpt>
      <trkpt lat="43.22299" lon="1.12425">
        <ele>234.062</ele>
        <time>2020-06-01T21:48:40Z</time>
      </trkpt>
      <trkpt lat="43.22597" lon="1.12819">
        <ele>232.008</ele>
        <time>2020-06-01T21:48:00Z</time>
      </trkpt>
      <trkpt lat="43.22572" lon="1.12946">
        <ele>231.017</ele>
        <time>2020-10-31T20:23:25Z</time>
      </trkpt>
      <trkpt lat="43.22621" lon="1.13003">
        <ele>231.052</ele>
        <time>2020-10-31T20:23:05Z</time>
      </trkpt>
      <trkpt lat="43.22683" lon="1.13054">
        <ele>230.658</ele>
        <time>2020-06-01T21:47:00Z</time>
      </trkpt>
      <trkpt lat="43.23063" lon="1.13553">
        <ele>230.378</ele>
        <time>2020-06-01T21:46:40Z</time>
      </trkpt>
      <trkpt lat="43.23138" lon="1.13656">
        <ele>231.054</ele>
        <time>2020-06-01T21:46:20Z</time>
      </trkpt>
      <trkpt lat="43.23211" lon="1.13788">
        <ele>231.043</ele>
        <time>2020-06-01T21:46:00Z</time>
      </trkpt>
      <trkpt lat="43.2332" lon="1.1405">
        <ele>231.068</ele>
        <time>2020-06-01T21:45:40Z</time>
      </trkpt>
      <trkpt lat="43.2353" lon="1.14564">
        <ele>228.624</ele>
        <time>2020-06-01T21:45:20Z</time>
      </trkpt>
      <trkpt lat="43.23763" lon="1.15129">
        <ele>225.068</ele>
        <time>2020-06-01T21:45:00Z</time>
      </trkpt>
      <trkpt lat="43.23796" lon="1.15107">
        <ele>225.151</ele>
        <time>2020-06-01T21:44:40Z</time>
      </trkpt>
      <trkpt lat="43.23794" lon="1.1506">
        <ele>226.026</ele>
        <time>2020-06-01T21:44:20Z</time>
      </trkpt>
      <trkpt lat="43.23819" lon="1.15028">
        <ele>226.008</ele>
        <time>2020-06-01T21:44:00Z</time>
      </trkpt>
      <trkpt lat="43.2386" lon="1.15008">
        <ele>226.019</ele>
        <time>2020-06-01T21:43:40Z</time>
      </trkpt>
      <trkpt lat="43.24012" lon="1.15094">
        <ele>226.081</ele>
        <time>2020-10-31T20:19:05Z</time>
      </trkpt>
      <trkpt lat="43.24048" lon="1.15133">
        <ele>225.891</ele>
        <time>2020-10-31T20:18:45Z</time>
      </trkpt>
      <trkpt lat="43.24073" lon="1.15152">
        <ele>225.345</ele>
        <time>2020-10-31T20:18:25Z</time>
      </trkpt>
      <trkpt lat="43.24103" lon="1.15169">
        <ele>225.491</ele>
        <time>2020-06-01T21:42:40Z</time>
      </trkpt>
      <trkpt lat="43.24142" lon="1.15167">
        <ele>227.15</ele>
        <time>2020-06-01T21:42:20Z</time>
      </trkpt>
      <trkpt lat="43.24162" lon="1.15115">
        <ele>228.025</ele>
        <time>2020-06-01T21:42:00Z</time>
      </trkpt>
      <trkpt lat="43.24182" lon="1.15132">
        <ele>228.041</ele>
        <time>2020-06-01T21:41:40Z</time>
      </trkpt>
      <trkpt lat="43.24206" lon="1.15146">
        <ele>228.085</ele>
        <time>2020-10-31T20:16:45Z</time>
      </trkpt>
      <trkpt lat="43.24221" lon="1.15133">
        <ele>228.018</ele>
        <time>2020-10-31T20:16:25Z</time>
      </trkpt>
      <trkpt lat="43.24264" lon="1.15173">
        <ele>228.093</ele>
        <time>2020-10-31T20:16:05Z</time>
      </trkpt>
      <trkpt lat="43.24232" lon="1.15246">
        <ele>226.908</ele>
        <time>2020-10-31T20:15:45Z</time>
      </trkpt>
      <trkpt lat="43.24272" lon="1.15291">
        <ele>226.224</ele>
        <time>2020-10-31T20:15:25Z</time>
      </trkpt>
      <trkpt lat="43.24308" lon="1.15219">
        <ele>228.004</ele>
        <time>2020-10-31T20:15:05Z</time>
      </trkpt>
      <trkpt lat="43.2439" lon="1.15314">
        <ele>228.069</ele>
        <time>2020-06-01T21:40:20Z</time>
      </trkpt>
      <trkpt lat="43.24379" lon="1.15378">
        <ele>227.277</ele>
        <time>2020-06-01T21:40:00Z</time>
      </trkpt>
      <trkpt lat="43.24401" lon="1.15426">
        <ele>226.873</ele>
        <time>2020-06-01T21:39:40Z</time>
      </trkpt>
      <trkpt lat="43.24257" lon="1.15591">
        <ele>212.812</ele>
        <time>2021-05-14T16:23:02Z</time>
      </trkpt>
      <trkpt lat="43.24218" lon="1.1561">
        <ele>218.277</ele>
        <time>2020-10-31T20:13:25Z</time>
      </trkpt>
      <trkpt lat="43.24018" lon="1.15903">
        <ele>229.853</ele>
        <time>2020-10-31T20:12:45Z</time>
      </trkpt>
      <trkpt lat="43.24007" lon="1.15991">
        <ele>238.397</ele>
        <time>2020-10-31T20:11:25Z</time>
      </trkpt>
      <trkpt lat="43.24067" lon="1.16193">
        <ele>258.97</ele>
        <time>2020-10-31T20:11:05Z</time>
      </trkpt>
      <trkpt lat="43.24164" lon="1.16319">
        <ele>250.555</ele>
        <time>2020-10-31T20:10:45Z</time>
      </trkpt>
      <trkpt lat="43.24167" lon="1.16364">
        <ele>253.108</ele>
        <time>2020-10-31T20:10:25Z</time>
      </trkpt>
      <trkpt lat="43.24183" lon="1.16419">
        <ele>254.317</ele>
        <time>2020-10-31T20:10:05Z</time>
      </trkpt>
      <trkpt lat="43.24195" lon="1.16417">
        <ele>253.025</ele>
        <time>2020-10-31T20:09:45Z</time>
      </trkpt>
      <trkpt lat="43.24187" lon="1.16377">
        <ele>251.483</ele>
        <time>2020-06-01T21:37:20Z</time>
      </trkpt>
      <trkpt lat="43.24241" lon="1.1636">
        <ele>245.564</ele>
        <time>2020-06-01T21:37:00Z</time>
      </trkpt>
      <trkpt lat="43.24347" lon="1.16475">
        <ele>249.94</ele>
        <time>2020-06-01T21:36:40Z</time>
      </trkpt>
      <trkpt lat="43.24369" lon="1.16523">
        <ele>255.069</ele>
        <time>2020-10-31T20:08:25Z</time>
      </trkpt>
      <trkpt lat="43.24392" lon="1.16545">
        <ele>258.364</ele>
        <time>2020-10-31T20:08:05Z</time>
      </trkpt>
      <trkpt lat="43.24448" lon="1.16564">
        <ele>260.43</ele>
        <time>2020-10-31T20:07:45Z</time>
      </trkpt>
      <trkpt lat="43.24492" lon="1.16586">
        <ele>260.884</ele>
        <time>2020-10-31T20:07:25Z</time>
      </trkpt>
      <trkpt lat="43.24528" lon="1.16615">
        <ele>255.987</ele>
        <time>2020-06-01T21:35:40Z</time>
      </trkpt>
      <trkpt lat="43.24547" lon="1.16677">
        <ele>261.152</ele>
        <time>2020-06-01T21:35:20Z</time>
      </trkpt>
      <trkpt lat="43.24586" lon="1.16723">
        <ele>255.708</ele>
        <time>2020-06-01T21:35:00Z</time>
      </trkpt>
      <trkpt lat="43.2462" lon="1.16794">
        <ele>260.623</ele>
        <time>2020-06-01T21:34:40Z</time>
      </trkpt>
      <trkpt lat="43.24665" lon="1.16845">
        <ele>256.303</ele>
        <time>2020-06-01T21:34:20Z</time>
      </trkpt>
      <trkpt lat="43.24748" lon="1.16954">
        <ele>261.259</ele>
        <time>2020-10-31T20:05:25Z</time>
      </trkpt>
      <trkpt lat="43.24797" lon="1.16993">
        <ele>261.064</ele>
        <time>2020-06-01T21:33:40Z</time>
      </trkpt>
      <trkpt lat="43.24865" lon="1.1699">
        <ele>259.65</ele>
        <time>2020-06-01T21:33:20Z</time>
      </trkpt>
      <trkpt lat="43.2493" lon="1.17106">
        <ele>262.289</ele>
        <time>2020-06-01T21:33:00Z</time>
      </trkpt>
      <trkpt lat="43.24982" lon="1.17173">
        <ele>259.064</ele>
        <time>2020-06-01T21:32:40Z</time>
      </trkpt>
      <trkpt lat="43.24976" lon="1.17229">
        <ele>255.71</ele>
        <time>2020-06-01T21:32:20Z</time>
      </trkpt>
      <trkpt lat="43.25023" lon="1.17333">
        <ele>250.084</ele>
        <time>2020-10-31T20:03:25Z</time>
      </trkpt>
      <trkpt lat="43.25082" lon="1.17402">
        <ele>246.567</ele>
        <time>2020-10-31T20:03:05Z</time>
      </trkpt>
      <trkpt lat="43.25219" lon="1.17541">
        <ele>243.412</ele>
        <time>2020-06-01T21:31:20Z</time>
      </trkpt>
      <trkpt lat="43.25242" lon="1.17547">
        <ele>243.308</ele>
        <time>2020-06-01T21:31:00Z</time>
      </trkpt>
      <trkpt lat="43.25273" lon="1.17576">
        <ele>242.32</ele>
        <time>2020-06-01T21:30:40Z</time>
      </trkpt>
      <trkpt lat="43.25363" lon="1.17757">
        <ele>238.1</ele>
        <time>2020-10-31T20:01:45Z</time>
      </trkpt>
      <trkpt lat="43.25464" lon="1.1793">
        <ele>235.557</ele>
        <time>2020-06-01T21:30:20Z</time>
      </trkpt>
      <trkpt lat="43.25577" lon="1.18118">
        <ele>234.014</ele>
        <time>2020-06-01T21:30:00Z</time>
      </trkpt>
      <trkpt lat="43.25614" lon="1.18154">
        <ele>233.95</ele>
        <time>2020-06-01T21:29:40Z</time>
      </trkpt>
      <trkpt lat="43.25689" lon="1.18195">
        <ele>233.029</ele>
        <time>2020-06-01T21:29:20Z</time>
      </trkpt>
      <trkpt lat="43.25701" lon="1.18222">
        <ele>232.894</ele>
        <time>2020-06-01T21:29:00Z</time>
      </trkpt>
      <trkpt lat="43.25707" lon="1.18424">
        <ele>230.05</ele>
        <time>2020-06-01T21:28:40Z</time>
      </trkpt>
      <trkpt lat="43.2576" lon="1.1864">
        <ele>228.694</ele>
        <time>2020-06-01T21:28:20Z</time>
      </trkpt>
      <trkpt lat="43.25774" lon="1.18804">
        <ele>226.127</ele>
        <time>2020-06-01T21:28:00Z</time>
      </trkpt>
      <trkpt lat="43.25802" lon="1.18968">
        <ele>224.142</ele>
        <time>2020-06-01T21:27:00Z</time>
      </trkpt>
      <trkpt lat="43.25837" lon="1.19039">
        <ele>223.108</ele>
        <time>2020-06-01T21:26:40Z</time>
      </trkpt>
      <trkpt lat="43.25839" lon="1.19127">
        <ele>221.62</ele>
        <time>2020-06-01T21:26:20Z</time>
      </trkpt>
      <trkpt lat="43.25814" lon="1.19216">
        <ele>220</ele>
        <time>2020-06-01T21:26:00Z</time>
      </trkpt>
      <trkpt lat="43.25813" lon="1.19258">
        <ele>219.557</ele>
        <time>2020-06-01T21:25:40Z</time>
      </trkpt>
      <trkpt lat="43.25824" lon="1.19379">
        <ele>217.134</ele>
        <time>2020-06-01T21:25:20Z</time>
      </trkpt>
      <trkpt lat="43.25823" lon="1.19446">
        <ele>216.37</ele>
        <time>2020-06-01T21:25:00Z</time>
      </trkpt>
      <trkpt lat="43.25818" lon="1.19469">
        <ele>215.769</ele>
        <time>2020-10-31T19:55:45Z</time>
      </trkpt>
      <trkpt lat="43.25765" lon="1.19457">
        <ele>217.094</ele>
        <time>2020-10-31T19:55:25Z</time>
      </trkpt>
      <trkpt lat="43.2572" lon="1.19614">
        <ele>216.09</ele>
        <time>2020-10-31T19:54:25Z</time>
      </trkpt>
      <trkpt lat="43.25732" lon="1.19643">
        <ele>216.074</ele>
        <time>2021-05-14T16:06:02Z</time>
      </trkpt>
      <trkpt lat="43.25773" lon="1.19658">
        <ele>215.287</ele>
        <time>2020-10-31T19:54:05Z</time>
      </trkpt>
      <trkpt lat="43.2571" lon="1.19941">
        <ele>215.022</ele>
        <time>2020-06-01T21:23:40Z</time>
      </trkpt>
      <trkpt lat="43.25679" lon="1.19957">
        <ele>214.708</ele>
        <time>2020-10-31T19:53:25Z</time>
      </trkpt>
      <trkpt lat="43.25699" lon="1.20038">
        <ele>214.017</ele>
        <time>2020-10-31T19:53:05Z</time>
      </trkpt>
      <trkpt lat="43.25703" lon="1.20105">
        <ele>213.052</ele>
        <time>2020-10-31T19:52:45Z</time>
      </trkpt>
      <trkpt lat="43.25734" lon="1.2011">
        <ele>212.658</ele>
        <time>2020-10-31T19:52:25Z</time>
      </trkpt>
      <trkpt lat="43.25731" lon="1.20284">
        <ele>210.87</ele>
        <time>2020-10-31T19:52:05Z</time>
      </trkpt>
      <trkpt lat="43.25801" lon="1.20275">
        <ele>210.076</ele>
        <time>2020-10-31T19:51:45Z</time>
      </trkpt>
      <trkpt lat="43.25832" lon="1.20416">
        <ele>207.875</ele>
        <time>2020-10-31T19:50:45Z</time>
      </trkpt>
      <trkpt lat="43.25826" lon="1.20437">
        <ele>210.91</ele>
        <time>2020-06-01T21:21:20Z</time>
      </trkpt>
      <trkpt lat="43.25771" lon="1.20483">
        <ele>215.196</ele>
        <time>2020-06-01T21:21:00Z</time>
      </trkpt>
      <trkpt lat="43.25758" lon="1.20579">
        <ele>226.87</ele>
        <time>2020-06-01T21:20:40Z</time>
      </trkpt>
      <trkpt lat="43.25694" lon="1.20695">
        <ele>229.053</ele>
        <time>2020-06-01T21:20:20Z</time>
      </trkpt>
      <trkpt lat="43.25659" lon="1.20705">
        <ele>231.448</ele>
        <time>2020-06-01T21:20:00Z</time>
      </trkpt>
      <trkpt lat="43.2553" lon="1.2065">
        <ele>248.108</ele>
        <time>2020-06-01T21:19:40Z</time>
      </trkpt>
      <trkpt lat="43.25467" lon="1.20718">
        <ele>248.703</ele>
        <time>2020-06-01T21:19:20Z</time>
      </trkpt>
      <trkpt lat="43.25424" lon="1.20732">
        <ele>250.821</ele>
        <time>2020-06-01T21:19:00Z</time>
      </trkpt>
      <trkpt lat="43.25385" lon="1.20791">
        <ele>250.711</ele>
        <time>2020-06-01T21:18:40Z</time>
      </trkpt>
      <trkpt lat="43.25373" lon="1.20799">
        <ele>251.873</ele>
        <time>2020-06-01T21:18:20Z</time>
      </trkpt>
      <trkpt lat="43.25355" lon="1.20907">
        <ele>243.919</ele>
        <time>2020-06-01T21:18:00Z</time>
      </trkpt>
      <trkpt lat="43.2533" lon="1.20968">
        <ele>241.658</ele>
        <time>2020-06-01T21:17:40Z</time>
      </trkpt>
      <trkpt lat="43.25271" lon="1.21029">
        <ele>242.813</ele>
        <time>2020-06-01T21:17:20Z</time>
      </trkpt>
      <trkpt lat="43.25289" lon="1.21053">
        <ele>236.239</ele>
        <time>2020-06-01T21:17:00Z</time>
      </trkpt>
      <trkpt lat="43.25299" lon="1.21067">
        <ele>231.763</ele>
        <time>2020-06-01T21:16:40Z</time>
      </trkpt>
      <trkpt lat="43.25297" lon="1.21084">
        <ele>229.626</ele>
        <time>2020-06-01T21:16:20Z</time>
      </trkpt>
      <trkpt lat="43.25247" lon="1.21124">
        <ele>226.151</ele>
        <time>2020-06-01T21:16:00Z</time>
      </trkpt>
      <trkpt lat="43.25114" lon="1.21083">
        <ele>230.608</ele>
        <time>2020-06-01T21:15:40Z</time>
      </trkpt>
      <trkpt lat="43.25036" lon="1.21067">
        <ele>235.817</ele>
        <time>2020-06-01T21:15:20Z</time>
      </trkpt>
      <trkpt lat="43.25041" lon="1.21111">
        <ele>244.561</ele>
        <time>2020-06-01T21:15:00Z</time>
      </trkpt>
      <trkpt lat="43.2509" lon="1.21203">
        <ele>261.948</ele>
        <time>2020-06-01T21:14:40Z</time>
      </trkpt>
      <trkpt lat="43.25116" lon="1.21285">
        <ele>271.08</ele>
        <time>2020-06-01T21:14:20Z</time>
      </trkpt>
      <trkpt lat="43.25116" lon="1.21407">
        <ele>279.316</ele>
        <time>2020-06-01T21:14:00Z</time>
      </trkpt>
      <trkpt lat="43.25214" lon="1.21436">
        <ele>257.025</ele>
        <time>2020-06-01T21:13:40Z</time>
      </trkpt>
      <trkpt lat="43.25254" lon="1.21412">
        <ele>249.38</ele>
        <time>2020-10-31T19:42:25Z</time>
      </trkpt>
      <trkpt lat="43.25295" lon="1.21368">
        <ele>238.756</ele>
        <time>2020-10-31T19:42:05Z</time>
      </trkpt>
      <trkpt lat="43.2536" lon="1.21304">
        <ele>229.99</ele>
        <time>2020-06-01T21:13:00Z</time>
      </trkpt>
      <trkpt lat="43.25369" lon="1.21299">
        <ele>231.093</ele>
        <time>2020-06-01T21:12:40Z</time>
      </trkpt>
      <trkpt lat="43.25424" lon="1.21324">
        <ele>243.368</ele>
        <time>2020-06-01T21:12:20Z</time>
      </trkpt>
      <trkpt lat="43.25433" lon="1.21306">
        <ele>244.208</ele>
        <time>2020-10-31T19:40:45Z</time>
      </trkpt>
      <trkpt lat="43.25439" lon="1.21317">
        <ele>246.717</ele>
        <time>2020-10-31T19:40:25Z</time>
      </trkpt>
      <trkpt lat="43.25384" lon="1.21532">
        <ele>246.398</ele>
        <time>2020-06-01T21:09:20Z</time>
      </trkpt>
      <trkpt lat="43.25383" lon="1.21568">
        <ele>247.318</ele>
        <time>2020-06-01T21:09:00Z</time>
      </trkpt>
      <trkpt lat="43.25385" lon="1.21594">
        <ele>249.016</ele>
        <time>2020-06-01T21:08:40Z</time>
      </trkpt>
      <trkpt lat="43.25458" lon="1.21727">
        <ele>279.912</ele>
        <time>2020-06-01T21:07:40Z</time>
      </trkpt>
      <trkpt lat="43.25517" lon="1.21654">
        <ele>277.261</ele>
        <time>2020-10-31T19:38:05Z</time>
      </trkpt>
      <trkpt lat="43.25768" lon="1.21807">
        <ele>264.846</ele>
        <time>2020-06-01T21:05:00Z</time>
      </trkpt>
      <trkpt lat="43.25781" lon="1.21776">
        <ele>257.682</ele>
        <time>2020-06-01T21:04:40Z</time>
      </trkpt>
      <trkpt lat="43.25808" lon="1.21757">
        <ele>254.916</ele>
        <time>2020-06-01T21:04:00Z</time>
      </trkpt>
      <trkpt lat="43.2598" lon="1.2179">
        <ele>238.529</ele>
        <time>2020-06-01T21:03:40Z</time>
      </trkpt>
      <trkpt lat="43.26042" lon="1.2175">
        <ele>236.564</ele>
        <time>2020-06-01T21:03:20Z</time>
      </trkpt>
      <trkpt lat="43.26093" lon="1.21691">
        <ele>234.208</ele>
        <time>2020-06-01T21:03:00Z</time>
      </trkpt>
      <trkpt lat="43.26139" lon="1.21604">
        <ele>235.22</ele>
        <time>2020-06-01T21:02:40Z</time>
      </trkpt>
      <trkpt lat="43.2616" lon="1.21561">
        <ele>234.628</ele>
        <time>2020-06-01T21:02:20Z</time>
      </trkpt>
      <trkpt lat="43.26255" lon="1.21688">
        <ele>220.975</ele>
        <time>2020-06-01T21:02:00Z</time>
      </trkpt>
      <trkpt lat="43.26236" lon="1.21729">
        <ele>221.123</ele>
        <time>2020-06-01T21:01:40Z</time>
      </trkpt>
      <trkpt lat="43.26236" lon="1.21769">
        <ele>218.079</ele>
        <time>2020-06-01T21:01:20Z</time>
      </trkpt>
      <trkpt lat="43.26244" lon="1.21801">
        <ele>212.878</ele>
        <time>2020-06-01T21:01:00Z</time>
      </trkpt>
      <trkpt lat="43.26289" lon="1.21914">
        <ele>217.423</ele>
        <time>2020-06-01T21:00:40Z</time>
      </trkpt>
      <trkpt lat="43.26292" lon="1.21939">
        <ele>217.999</ele>
        <time>2020-06-01T21:00:20Z</time>
      </trkpt>
      <trkpt lat="43.26302" lon="1.21938">
        <ele>218.563</ele>
        <time>2020-06-01T21:00:00Z</time>
      </trkpt>
      <trkpt lat="43.26373" lon="1.21845">
        <ele>218.416</ele>
        <time>2020-06-01T20:59:40Z</time>
      </trkpt>
      <trkpt lat="43.26393" lon="1.21799">
        <ele>215.721</ele>
        <time>2020-06-01T20:59:20Z</time>
      </trkpt>
      <trkpt lat="43.26449" lon="1.2177">
        <ele>215.908</ele>
        <time>2020-06-01T20:59:00Z</time>
      </trkpt>
      <trkpt lat="43.26448" lon="1.21823">
        <ele>218.71</ele>
        <time>2020-06-01T20:58:40Z</time>
      </trkpt>
      <trkpt lat="43.26484" lon="1.21883">
        <ele>223.064</ele>
        <time>2020-06-01T20:58:20Z</time>
      </trkpt>
      <trkpt lat="43.26507" lon="1.21902">
        <ele>225.843</ele>
        <time>2020-06-01T20:58:00Z</time>
      </trkpt>
      <trkpt lat="43.26541" lon="1.219">
        <ele>231.352</ele>
        <time>2020-06-01T20:57:40Z</time>
      </trkpt>
      <trkpt lat="43.26561" lon="1.21892">
        <ele>237.058</ele>
        <time>2020-06-01T20:57:20Z</time>
      </trkpt>
      <trkpt lat="43.26596" lon="1.21847">
        <ele>240.567</ele>
        <time>2020-06-01T20:57:00Z</time>
      </trkpt>
      <trkpt lat="43.26627" lon="1.21836">
        <ele>241.932</ele>
        <time>2020-06-01T20:56:40Z</time>
      </trkpt>
      <trkpt lat="43.26636" lon="1.21849">
        <ele>244.148</ele>
        <time>2020-06-01T20:56:20Z</time>
      </trkpt>
      <trkpt lat="43.26645" lon="1.2197">
        <ele>252.912</ele>
        <time>2020-06-01T20:56:00Z</time>
      </trkpt>
      <trkpt lat="43.26702" lon="1.22057">
        <ele>258.145</ele>
        <time>2020-06-01T20:55:40Z</time>
      </trkpt>
      <trkpt lat="43.26769" lon="1.22163">
        <ele>268.51</ele>
        <time>2020-06-01T20:55:20Z</time>
      </trkpt>
      <trkpt lat="43.26777" lon="1.22293">
        <ele>279.008</ele>
        <time>2020-06-01T20:55:00Z</time>
      </trkpt>
      <trkpt lat="43.2677" lon="1.22405">
        <ele>285.415</ele>
        <time>2020-06-01T20:54:40Z</time>
      </trkpt>
      <trkpt lat="43.26902" lon="1.22443">
        <ele>298.423</ele>
        <time>2020-06-01T20:54:20Z</time>
      </trkpt>
      <trkpt lat="43.2698" lon="1.22479">
        <ele>303.433</ele>
        <time>2020-06-01T20:54:00Z</time>
      </trkpt>
      <trkpt lat="43.27038" lon="1.22491">
        <ele>305.714</ele>
        <time>2020-10-31T19:25:05Z</time>
      </trkpt>
      <trkpt lat="43.27098" lon="1.22492">
        <ele>297.74</ele>
        <time>2020-10-31T19:24:45Z</time>
      </trkpt>
      <trkpt lat="43.27142" lon="1.22472">
        <ele>295.019</ele>
        <time>2020-10-31T19:24:25Z</time>
      </trkpt>
      <trkpt lat="43.27209" lon="1.22433">
        <ele>286.814</ele>
        <time>2020-10-31T19:24:05Z</time>
      </trkpt>
      <trkpt lat="43.27231" lon="1.22442">
        <ele>284.74</ele>
        <time>2020-06-01T20:52:20Z</time>
      </trkpt>
      <trkpt lat="43.27244" lon="1.22494">
        <ele>284.834</ele>
        <time>2020-06-01T20:52:00Z</time>
      </trkpt>
      <trkpt lat="43.27268" lon="1.22541">
        <ele>285.237</ele>
        <time>2020-06-01T20:51:40Z</time>
      </trkpt>
      <trkpt lat="43.27298" lon="1.22567">
        <ele>285.072</ele>
        <time>2020-06-01T20:51:20Z</time>
      </trkpt>
      <trkpt lat="43.27325" lon="1.22576">
        <ele>286.608</ele>
        <time>2020-06-01T20:51:00Z</time>
      </trkpt>
      <trkpt lat="43.27355" lon="1.22582">
        <ele>290.211</ele>
        <time>2020-06-01T20:50:40Z</time>
      </trkpt>
      <trkpt lat="43.27384" lon="1.22622">
        <ele>295.301</ele>
        <time>2020-06-01T20:50:20Z</time>
      </trkpt>
      <trkpt lat="43.27412" lon="1.22704">
        <ele>304.351</ele>
        <time>2020-06-01T20:50:00Z</time>
      </trkpt>
      <trkpt lat="43.2742" lon="1.2275">
        <ele>307.775</ele>
        <time>2020-06-01T20:49:40Z</time>
      </trkpt>
      <trkpt lat="43.27432" lon="1.22869">
        <ele>312.761</ele>
        <time>2020-06-01T20:49:20Z</time>
      </trkpt>
      <trkpt lat="43.27448" lon="1.22898">
        <ele>312.48</ele>
        <time>2020-10-31T19:20:25Z</time>
      </trkpt>
      <trkpt lat="43.27474" lon="1.229">
        <ele>315.235</ele>
        <time>2020-10-31T19:20:05Z</time>
      </trkpt>
      <trkpt lat="43.27517" lon="1.22864">
        <ele>317.431</ele>
        <time>2020-10-31T19:19:45Z</time>
      </trkpt>
      <trkpt lat="43.27623" lon="1.22804">
        <ele>316.315</ele>
        <time>2020-06-01T20:48:20Z</time>
      </trkpt>
      <trkpt lat="43.27648" lon="1.22807">
        <ele>316.848</ele>
        <time>2020-06-01T20:48:00Z</time>
      </trkpt>
      <trkpt lat="43.27689" lon="1.2284">
        <ele>316.963</ele>
        <time>2020-06-01T20:47:40Z</time>
      </trkpt>
      <trkpt lat="43.27873" lon="1.23007">
        <ele>286.008</ele>
        <time>2020-06-01T20:47:20Z</time>
      </trkpt>
      <trkpt lat="43.27908" lon="1.23014">
        <ele>282.916</ele>
        <time>2020-06-01T20:47:00Z</time>
      </trkpt>
      <trkpt lat="43.28022" lon="1.22996">
        <ele>278.206</ele>
        <time>2020-06-01T20:46:40Z</time>
      </trkpt>
      <trkpt lat="43.28137" lon="1.22929">
        <ele>271.864</ele>
        <time>2020-06-01T20:46:20Z</time>
      </trkpt>
      <trkpt lat="43.28211" lon="1.22882">
        <ele>268.526</ele>
        <time>2020-06-01T20:46:00Z</time>
      </trkpt>
      <trkpt lat="43.28238" lon="1.22824">
        <ele>265.572</ele>
        <time>2020-06-01T20:45:40Z</time>
      </trkpt>
      <trkpt lat="43.28329" lon="1.22434">
        <ele>251.071</ele>
        <time>2020-06-01T20:45:20Z</time>
      </trkpt>
      <trkpt lat="43.2834" lon="1.22393">
        <ele>249.816</ele>
        <time>2020-06-01T20:45:00Z</time>
      </trkpt>
      <trkpt lat="43.28373" lon="1.22386">
        <ele>246.042</ele>
        <time>2020-06-01T20:44:40Z</time>
      </trkpt>
      <trkpt lat="43.28377" lon="1.22369">
        <ele>241.436</ele>
        <time>2020-06-01T20:44:20Z</time>
      </trkpt>
      <trkpt lat="43.28411" lon="1.22317">
        <ele>221.489</ele>
        <time>2020-06-01T20:44:00Z</time>
      </trkpt>
      <trkpt lat="43.28416" lon="1.22298">
        <ele>216.344</ele>
        <time>2020-06-01T20:43:40Z</time>
      </trkpt>
      <trkpt lat="43.28485" lon="1.22321">
        <ele>214.408</ele>
        <time>2020-06-01T20:43:20Z</time>
      </trkpt>
      <trkpt lat="43.28501" lon="1.22335">
        <ele>215.213</ele>
        <time>2020-06-01T20:43:00Z</time>
      </trkpt>
      <trkpt lat="43.28551" lon="1.22319">
        <ele>205.985</ele>
        <time>2020-06-01T20:42:40Z</time>
      </trkpt>
      <trkpt lat="43.2861" lon="1.22334">
        <ele>197.473</ele>
        <time>2020-06-01T20:42:20Z</time>
      </trkpt>
      <trkpt lat="43.28631" lon="1.22347">
        <ele>194.494</ele>
        <time>2020-06-01T20:42:00Z</time>
      </trkpt>
      <trkpt lat="43.28705" lon="1.22225">
        <ele>205.51</ele>
        <time>2020-06-01T20:41:40Z</time>
      </trkpt>
      <trkpt lat="43.28735" lon="1.22164">
        <ele>205.319</ele>
        <time>2020-06-01T20:41:20Z</time>
      </trkpt>
      <trkpt lat="43.28743" lon="1.22135">
        <ele>204.444</ele>
        <time>2020-06-01T20:41:00Z</time>
      </trkpt>
      <trkpt lat="43.28733" lon="1.22014">
        <ele>206.38</ele>
        <time>2020-06-01T20:40:40Z</time>
      </trkpt>
      <trkpt lat="43.28751" lon="1.21969">
        <ele>206.134</ele>
        <time>2020-06-01T20:40:20Z</time>
      </trkpt>
      <trkpt lat="43.28795" lon="1.21899">
        <ele>206.827</ele>
        <time>2020-06-01T20:40:00Z</time>
      </trkpt>
      <trkpt lat="43.28806" lon="1.21845">
        <ele>207.072</ele>
        <time>2020-06-01T20:39:40Z</time>
      </trkpt>
      <trkpt lat="43.2882" lon="1.21674">
        <ele>205.908</ele>
        <time>2020-06-01T20:39:20Z</time>
      </trkpt>
      <trkpt lat="43.29105" lon="1.21643">
        <ele>199.82</ele>
        <time>2020-10-31T19:10:05Z</time>
      </trkpt>
      <trkpt lat="43.29103" lon="1.21651">
        <ele>199.7</ele>
        <time>2020-10-31T19:09:45Z</time>
      </trkpt>
      <trkpt lat="43.29078" lon="1.21667">
        <ele>198.157</ele>
        <time>2020-10-31T19:09:25Z</time>
      </trkpt>
      <trkpt lat="43.29051" lon="1.21669">
        <ele>194.092</ele>
        <time>2020-06-01T20:37:00Z</time>
      </trkpt>
      <trkpt lat="43.29056" lon="1.21711">
        <ele>194.758</ele>
        <time>2020-06-01T20:36:40Z</time>
      </trkpt>
      <trkpt lat="43.29057" lon="1.21747">
        <ele>195.247</ele>
        <time>2020-06-01T20:36:20Z</time>
      </trkpt>
      <trkpt lat="43.29073" lon="1.21858">
        <ele>195.322</ele>
        <time>2020-06-01T20:36:00Z</time>
      </trkpt>
      <trkpt lat="43.29073" lon="1.21938">
        <ele>193.888</ele>
        <time>2020-06-01T20:35:40Z</time>
      </trkpt>
      <trkpt lat="43.29085" lon="1.21989">
        <ele>194.212</ele>
        <time>2020-06-01T20:35:20Z</time>
      </trkpt>
      <trkpt lat="43.29082" lon="1.22017">
        <ele>193.435</ele>
        <time>2020-06-01T20:35:00Z</time>
      </trkpt>
      <trkpt lat="43.29098" lon="1.22161">
        <ele>194.19</ele>
        <time>2020-06-01T20:34:40Z</time>
      </trkpt>
      <trkpt lat="43.29107" lon="1.22437">
        <ele>192.208</ele>
        <time>2020-06-01T20:34:20Z</time>
      </trkpt>
      <trkpt lat="43.29096" lon="1.22514">
        <ele>192.407</ele>
        <time>2020-06-01T20:34:00Z</time>
      </trkpt>
      <trkpt lat="43.29085" lon="1.22566">
        <ele>192.461</ele>
        <time>2020-06-01T20:33:40Z</time>
      </trkpt>
      <trkpt lat="43.29108" lon="1.22623">
        <ele>195.731</ele>
        <time>2020-06-01T20:33:20Z</time>
      </trkpt>
      <trkpt lat="43.29137" lon="1.2262">
        <ele>195.627</ele>
        <time>2020-06-01T20:33:00Z</time>
      </trkpt>
      <trkpt lat="43.29099" lon="1.22657">
        <ele>198.713</ele>
        <time>2020-06-01T20:32:40Z</time>
      </trkpt>
      <trkpt lat="43.29131" lon="1.22647">
        <ele>199.182</ele>
        <time>2020-06-01T20:32:20Z</time>
      </trkpt>
      <trkpt lat="43.29258" lon="1.22636">
        <ele>199.697</ele>
        <time>2020-06-01T20:32:00Z</time>
      </trkpt>
      <trkpt lat="43.29363" lon="1.22602">
        <ele>199.783</ele>
        <time>2020-10-31T19:03:45Z</time>
      </trkpt>
      <trkpt lat="43.29462" lon="1.22559">
        <ele>201.797</ele>
        <time>2020-10-31T19:03:25Z</time>
      </trkpt>
      <trkpt lat="43.29475" lon="1.2263">
        <ele>202.07</ele>
        <time>2020-10-31T19:03:05Z</time>
      </trkpt>
      <trkpt lat="43.29559" lon="1.22594">
        <ele>203.735</ele>
        <time>2020-06-01T20:31:00Z</time>
      </trkpt>
      <trkpt lat="43.29602" lon="1.22605">
        <ele>203.508</ele>
        <time>2020-06-01T20:30:40Z</time>
      </trkpt>
      <trkpt lat="43.29695" lon="1.22605">
        <ele>202.826</ele>
        <time>2020-06-01T20:30:20Z</time>
      </trkpt>
      <trkpt lat="43.29809" lon="1.22642">
        <ele>201.924</ele>
        <time>2020-06-01T20:30:00Z</time>
      </trkpt>
      <trkpt lat="43.30014" lon="1.22782">
        <ele>208.088</ele>
        <time>2020-06-01T20:29:40Z</time>
      </trkpt>
      <trkpt lat="43.30156" lon="1.22857">
        <ele>208.067</ele>
        <time>2020-06-01T20:29:20Z</time>
      </trkpt>
      <trkpt lat="43.30219" lon="1.22881">
        <ele>208.093</ele>
        <time>2020-06-01T20:29:00Z</time>
      </trkpt>
      <trkpt lat="43.3044" lon="1.22954">
        <ele>207.072</ele>
        <time>2020-06-01T20:28:40Z</time>
      </trkpt>
      <trkpt lat="43.30445" lon="1.22981">
        <ele>206.717</ele>
        <time>2020-06-01T20:28:20Z</time>
      </trkpt>
      <trkpt lat="43.30464" lon="1.23">
        <ele>206.053</ele>
        <time>2020-06-01T20:28:00Z</time>
      </trkpt>
      <trkpt lat="43.30534" lon="1.23105">
        <ele>205.227</ele>
        <time>2020-06-01T20:27:40Z</time>
      </trkpt>
      <trkpt lat="43.30617" lon="1.23191">
        <ele>205.01</ele>
        <time>2020-06-01T20:27:20Z</time>
      </trkpt>
      <trkpt lat="43.30653" lon="1.23212">
        <ele>205.075</ele>
        <time>2020-06-01T20:27:00Z</time>
      </trkpt>
      <trkpt lat="43.30781" lon="1.23249">
        <ele>201.108</ele>
        <time>2020-06-01T20:26:40Z</time>
      </trkpt>
      <trkpt lat="43.30918" lon="1.23272">
        <ele>204.226</ele>
        <time>2020-06-01T20:26:20Z</time>
      </trkpt>
      <trkpt lat="43.30956" lon="1.23298">
        <ele>203.742</ele>
        <time>2020-06-01T20:26:00Z</time>
      </trkpt>
      <trkpt lat="43.30977" lon="1.2333">
        <ele>201.787</ele>
        <time>2020-06-01T20:25:40Z</time>
      </trkpt>
      <trkpt lat="43.31075" lon="1.23401">
        <ele>201.988</ele>
        <time>2020-06-01T20:25:20Z</time>
      </trkpt>
      <trkpt lat="43.31122" lon="1.23488">
        <ele>200.734</ele>
        <time>2020-06-01T20:25:00Z</time>
      </trkpt>
      <trkpt lat="43.3116" lon="1.23529">
        <ele>200.723</ele>
        <time>2020-06-01T20:24:40Z</time>
      </trkpt>
      <trkpt lat="43.31252" lon="1.23606">
        <ele>200.278</ele>
        <time>2020-06-01T20:24:20Z</time>
      </trkpt>
      <trkpt lat="43.31292" lon="1.23624">
        <ele>200.354</ele>
        <time>2020-06-01T20:24:00Z</time>
      </trkpt>
      <trkpt lat="43.31406" lon="1.23839">
        <ele>199.568</ele>
        <time>2020-06-01T20:23:40Z</time>
      </trkpt>
      <trkpt lat="43.31434" lon="1.23879">
        <ele>199.151</ele>
        <time>2020-06-01T20:23:20Z</time>
      </trkpt>
      <trkpt lat="43.3143" lon="1.23934">
        <ele>195.856</ele>
        <time>2020-06-01T20:23:00Z</time>
      </trkpt>
      <trkpt lat="43.31464" lon="1.24021">
        <ele>192.908</ele>
        <time>2020-06-01T20:22:40Z</time>
      </trkpt>
      <trkpt lat="43.31512" lon="1.24116">
        <ele>189.726</ele>
        <time>2020-06-01T20:22:20Z</time>
      </trkpt>
      <trkpt lat="43.3157" lon="1.24255">
        <ele>185.415</ele>
        <time>2020-06-01T20:22:00Z</time>
      </trkpt>
      <trkpt lat="43.31618" lon="1.243">
        <ele>184.698</ele>
        <time>2020-06-01T20:21:40Z</time>
      </trkpt>
      <trkpt lat="43.31705" lon="1.24353">
        <ele>184.378</ele>
        <time>2020-06-01T20:21:20Z</time>
      </trkpt>
      <trkpt lat="43.31738" lon="1.2425">
        <ele>189.064</ele>
        <time>2021-05-14T15:07:22Z</time>
      </trkpt>
      <trkpt lat="43.31764" lon="1.24234">
        <ele>190.173</ele>
        <time>2020-06-01T20:21:00Z</time>
      </trkpt>
      <trkpt lat="43.31688" lon="1.24564">
        <ele>196.448</ele>
        <time>2020-06-01T20:20:40Z</time>
      </trkpt>
      <trkpt lat="43.31707" lon="1.2457">
        <ele>196.194</ele>
        <time>2020-06-01T20:20:20Z</time>
      </trkpt>
      <trkpt lat="43.31757" lon="1.24619">
        <ele>195.748</ele>
        <time>2020-06-01T20:20:00Z</time>
      </trkpt>
      <trkpt lat="43.31855" lon="1.24666">
        <ele>195.061</ele>
        <time>2020-06-01T20:19:40Z</time>
      </trkpt>
      <trkpt lat="43.31884" lon="1.24603">
        <ele>195.046</ele>
        <time>2020-06-01T20:19:20Z</time>
      </trkpt>
      <trkpt lat="43.31935" lon="1.24622">
        <ele>195.008</ele>
        <time>2020-06-01T20:19:00Z</time>
      </trkpt>
      <trkpt lat="43.31977" lon="1.24604">
        <ele>192.123</ele>
        <time>2020-06-01T20:18:40Z</time>
      </trkpt>
      <trkpt lat="43.3201" lon="1.24619">
        <ele>188.649</ele>
        <time>2020-06-01T20:18:20Z</time>
      </trkpt>
      <trkpt lat="43.32089" lon="1.24677">
        <ele>184.595</ele>
        <time>2020-06-01T20:18:00Z</time>
      </trkpt>
      <trkpt lat="43.32111" lon="1.24701">
        <ele>184.275</ele>
        <time>2020-06-01T20:17:40Z</time>
      </trkpt>
      <trkpt lat="43.32161" lon="1.24759">
        <ele>183.531</ele>
        <time>2020-06-01T20:17:20Z</time>
      </trkpt>
      <trkpt lat="43.32194" lon="1.24783">
        <ele>183.06</ele>
        <time>2020-06-01T20:17:00Z</time>
      </trkpt>
      <trkpt lat="43.32199" lon="1.248">
        <ele>182.915</ele>
        <time>2020-06-01T20:16:40Z</time>
      </trkpt>
      <trkpt lat="43.3218" lon="1.24819">
        <ele>183.891</ele>
        <time>2020-06-01T20:16:20Z</time>
      </trkpt>
      <trkpt lat="43.32167" lon="1.24819">
        <ele>184.025</ele>
        <time>2020-06-01T20:16:00Z</time>
      </trkpt>
      <trkpt lat="43.3213" lon="1.24899">
        <ele>188.458</ele>
        <time>2020-06-01T20:15:40Z</time>
      </trkpt>
      <trkpt lat="43.32101" lon="1.24928">
        <ele>193.113</ele>
        <time>2020-06-01T20:15:20Z</time>
      </trkpt>
      <trkpt lat="43.32071" lon="1.24938">
        <ele>196.508</ele>
        <time>2020-06-01T20:15:00Z</time>
      </trkpt>
      <trkpt lat="43.32063" lon="1.24987">
        <ele>215.918</ele>
        <time>2020-06-01T20:14:40Z</time>
      </trkpt>
      <trkpt lat="43.32075" lon="1.25006">
        <ele>221.344</ele>
        <time>2020-06-01T20:14:20Z</time>
      </trkpt>
      <trkpt lat="43.32062" lon="1.25012">
        <ele>226.563</ele>
        <time>2020-06-01T20:14:00Z</time>
      </trkpt>
      <trkpt lat="43.32061" lon="1.25032">
        <ele>232.19</ele>
        <time>2020-06-01T20:13:40Z</time>
      </trkpt>
      <trkpt lat="43.32086" lon="1.25045">
        <ele>226.946</ele>
        <time>2020-06-01T20:13:20Z</time>
      </trkpt>
      <trkpt lat="43.32111" lon="1.25097">
        <ele>229.935</ele>
        <time>2020-06-01T20:13:00Z</time>
      </trkpt>
      <trkpt lat="43.3213" lon="1.25168">
        <ele>233.12</ele>
        <time>2020-06-01T20:12:40Z</time>
      </trkpt>
      <trkpt lat="43.32167" lon="1.25246">
        <ele>234.636</ele>
        <time>2020-06-01T20:12:20Z</time>
      </trkpt>
      <trkpt lat="43.32182" lon="1.25246">
        <ele>233.94</ele>
        <time>2020-06-01T20:12:00Z</time>
      </trkpt>
      <trkpt lat="43.32222" lon="1.25341">
        <ele>243.043</ele>
        <time>2020-06-01T20:11:40Z</time>
      </trkpt>
      <trkpt lat="43.32235" lon="1.25398">
        <ele>250.248</ele>
        <time>2020-06-01T20:11:20Z</time>
      </trkpt>
      <trkpt lat="43.32271" lon="1.25453">
        <ele>258.108</ele>
        <time>2020-06-01T20:11:00Z</time>
      </trkpt>
      <trkpt lat="43.3232" lon="1.25559">
        <ele>265.109</ele>
        <time>2020-06-01T20:10:40Z</time>
      </trkpt>
      <trkpt lat="43.32334" lon="1.25619">
        <ele>266.054</ele>
        <time>2020-06-01T20:10:20Z</time>
      </trkpt>
      <trkpt lat="43.32332" lon="1.2568">
        <ele>267.514</ele>
        <time>2020-06-01T20:10:00Z</time>
      </trkpt>
      <trkpt lat="43.32317" lon="1.25744">
        <ele>271.458</ele>
        <time>2020-06-01T20:09:40Z</time>
      </trkpt>
      <trkpt lat="43.32279" lon="1.25806">
        <ele>275.984</ele>
        <time>2020-06-01T20:09:20Z</time>
      </trkpt>
      <trkpt lat="43.32265" lon="1.25867">
        <ele>280.053</ele>
        <time>2020-06-01T20:09:00Z</time>
      </trkpt>
      <trkpt lat="43.32258" lon="1.26003">
        <ele>280.068</ele>
        <time>2020-06-01T20:08:40Z</time>
      </trkpt>
      <trkpt lat="43.32273" lon="1.2605">
        <ele>280.074</ele>
        <time>2020-06-01T20:08:20Z</time>
      </trkpt>
      <trkpt lat="43.32295" lon="1.2607">
        <ele>278.268</ele>
        <time>2020-06-01T20:08:00Z</time>
      </trkpt>
      <trkpt lat="43.32299" lon="1.26096">
        <ele>275.851</ele>
        <time>2020-06-01T20:07:40Z</time>
      </trkpt>
      <trkpt lat="43.32315" lon="1.26118">
        <ele>272.596</ele>
        <time>2020-06-01T20:07:20Z</time>
      </trkpt>
      <trkpt lat="43.324" lon="1.26144">
        <ele>264.808</ele>
        <time>2020-06-01T20:07:00Z</time>
      </trkpt>
      <trkpt lat="43.32462" lon="1.26176">
        <ele>270.224</ele>
        <time>2020-06-01T20:06:40Z</time>
      </trkpt>
      <trkpt lat="43.3257" lon="1.26242">
        <ele>270.931</ele>
        <time>2020-06-01T20:06:20Z</time>
      </trkpt>
      <trkpt lat="43.32607" lon="1.26295">
        <ele>269.196</ele>
        <time>2020-06-01T20:06:00Z</time>
      </trkpt>
      <trkpt lat="43.32704" lon="1.26472">
        <ele>271.436</ele>
        <time>2020-06-01T20:05:40Z</time>
      </trkpt>
      <trkpt lat="43.32741" lon="1.26566">
        <ele>267.522</ele>
        <time>2020-06-01T20:05:00Z</time>
      </trkpt>
      <trkpt lat="43.32819" lon="1.26605">
        <ele>265.981</ele>
        <time>2020-06-01T20:04:40Z</time>
      </trkpt>
      <trkpt lat="43.32826" lon="1.26538">
        <ele>264.856</ele>
        <time>2020-06-01T20:04:20Z</time>
      </trkpt>
      <trkpt lat="43.32868" lon="1.26552">
        <ele>266.172</ele>
        <time>2020-06-01T20:04:00Z</time>
      </trkpt>
      <trkpt lat="43.32891" lon="1.26537">
        <ele>266.656</ele>
        <time>2020-06-01T20:03:40Z</time>
      </trkpt>
      <trkpt lat="43.32926" lon="1.26526">
        <ele>269.929</ele>
        <time>2020-06-01T20:03:20Z</time>
      </trkpt>
      <trkpt lat="43.32937" lon="1.26533">
        <ele>271.564</ele>
        <time>2020-06-01T20:03:00Z</time>
      </trkpt>
      <trkpt lat="43.33033" lon="1.26566">
        <ele>278.708</ele>
        <time>2020-06-01T20:02:40Z</time>
      </trkpt>
      <trkpt lat="43.33138" lon="1.26601">
        <ele>277.315</ele>
        <time>2020-06-01T20:02:20Z</time>
      </trkpt>
      <trkpt lat="43.33312" lon="1.26721">
        <ele>248.041</ele>
        <time>2020-06-01T20:02:00Z</time>
      </trkpt>
      <trkpt lat="43.33368" lon="1.26746">
        <ele>242.271</ele>
        <time>2020-06-01T20:01:40Z</time>
      </trkpt>
      <trkpt lat="43.33402" lon="1.26801">
        <ele>239.953</ele>
        <time>2020-06-01T20:01:20Z</time>
      </trkpt>
      <trkpt lat="43.33449" lon="1.26783">
        <ele>234.879</ele>
        <time>2020-06-01T20:01:00Z</time>
      </trkpt>
      <trkpt lat="43.33496" lon="1.26752">
        <ele>231.238</ele>
        <time>2020-06-01T20:00:40Z</time>
      </trkpt>
      <trkpt lat="43.33509" lon="1.26755">
        <ele>230.983</ele>
        <time>2020-06-01T20:00:20Z</time>
      </trkpt>
      <trkpt lat="43.33562" lon="1.26708">
        <ele>233.999</ele>
        <time>2020-06-01T20:00:00Z</time>
      </trkpt>
      <trkpt lat="43.3362" lon="1.26643">
        <ele>227.213</ele>
        <time>2020-06-01T19:59:40Z</time>
      </trkpt>
      <trkpt lat="43.33634" lon="1.26599">
        <ele>214.086</ele>
        <time>2020-06-01T19:59:20Z</time>
      </trkpt>
      <trkpt lat="43.33672" lon="1.26545">
        <ele>204.171</ele>
        <time>2020-06-01T19:59:00Z</time>
      </trkpt>
      <trkpt lat="43.33689" lon="1.26498">
        <ele>201.608</ele>
        <time>2020-06-01T19:58:40Z</time>
      </trkpt>
      <trkpt lat="43.33734" lon="1.26418">
        <ele>197.214</ele>
        <time>2020-06-01T19:58:20Z</time>
      </trkpt>
      <trkpt lat="43.33769" lon="1.26329">
        <ele>194.922</ele>
        <time>2020-06-01T19:58:00Z</time>
      </trkpt>
      <trkpt lat="43.33782" lon="1.26223">
        <ele>192.942</ele>
        <time>2020-06-01T19:57:40Z</time>
      </trkpt>
      <trkpt lat="43.33775" lon="1.2618">
        <ele>192.168</ele>
        <time>2020-06-01T19:57:20Z</time>
      </trkpt>
      <trkpt lat="43.33777" lon="1.26167">
        <ele>192.044</ele>
        <time>2020-06-01T19:57:00Z</time>
      </trkpt>
      <trkpt lat="43.33727" lon="1.2602">
        <ele>191.093</ele>
        <time>2020-06-01T19:56:40Z</time>
      </trkpt>
      <trkpt lat="43.33735" lon="1.25993">
        <ele>190.448</ele>
        <time>2020-06-01T19:56:20Z</time>
      </trkpt>
      <trkpt lat="43.34038" lon="1.25726">
        <ele>196.034</ele>
        <time>2020-06-01T19:55:40Z</time>
      </trkpt>
      <trkpt lat="43.34061" lon="1.25763">
        <ele>196.298</ele>
        <time>2020-10-31T18:27:25Z</time>
      </trkpt>
      <trkpt lat="43.34105" lon="1.25858">
        <ele>197.091</ele>
        <time>2020-06-01T19:54:40Z</time>
      </trkpt>
      <trkpt lat="43.34173" lon="1.25961">
        <ele>197.046</ele>
        <time>2020-10-31T18:26:45Z</time>
      </trkpt>
      <trkpt lat="43.34195" lon="1.26005">
        <ele>196.008</ele>
        <time>2020-10-31T18:26:25Z</time>
      </trkpt>
      <trkpt lat="43.34197" lon="1.26025">
        <ele>196.023</ele>
        <time>2020-10-31T18:26:05Z</time>
      </trkpt>
      <trkpt lat="43.34177" lon="1.26088">
        <ele>196.049</ele>
        <time>2020-06-01T19:53:00Z</time>
      </trkpt>
      <trkpt lat="43.34196" lon="1.2627">
        <ele>195.095</ele>
        <time>2020-06-01T19:52:40Z</time>
      </trkpt>
      <trkpt lat="43.34136" lon="1.26314">
        <ele>193.661</ele>
        <time>2020-06-01T19:52:20Z</time>
      </trkpt>
      <trkpt lat="43.34116" lon="1.26354">
        <ele>192.487</ele>
        <time>2020-06-01T19:52:00Z</time>
      </trkpt>
      <trkpt lat="43.34193" lon="1.26594">
        <ele>192.366</ele>
        <time>2020-06-01T19:51:40Z</time>
      </trkpt>
      <trkpt lat="43.34221" lon="1.26702">
        <ele>191.531</ele>
        <time>2020-06-01T19:51:20Z</time>
      </trkpt>
      <trkpt lat="43.34267" lon="1.26826">
        <ele>191.097</ele>
        <time>2020-06-01T19:51:00Z</time>
      </trkpt>
      <trkpt lat="43.34279" lon="1.26874">
        <ele>191.621</ele>
        <time>2020-06-01T19:50:40Z</time>
      </trkpt>
      <trkpt lat="43.34318" lon="1.26924">
        <ele>192.054</ele>
        <time>2020-06-01T19:50:20Z</time>
      </trkpt>
      <trkpt lat="43.34622" lon="1.27203">
        <ele>192.039</ele>
        <time>2020-06-01T19:50:00Z</time>
      </trkpt>
      <trkpt lat="43.34839" lon="1.27382">
        <ele>190.008</ele>
        <time>2020-06-01T19:49:40Z</time>
      </trkpt>
      <trkpt lat="43.34792" lon="1.27611">
        <ele>190.02</ele>
        <time>2020-06-01T19:49:20Z</time>
      </trkpt>
      <trkpt lat="43.34757" lon="1.27626">
        <ele>190</ele>
        <time>2020-06-01T19:49:00Z</time>
      </trkpt>
      <trkpt lat="43.34726" lon="1.27599">
        <ele>190.029</ele>
        <time>2020-06-01T19:48:40Z</time>
      </trkpt>
      <trkpt lat="43.34706" lon="1.27634">
        <ele>189.595</ele>
        <time>2020-06-01T19:48:20Z</time>
      </trkpt>
      <trkpt lat="43.34705" lon="1.27653">
        <ele>188.821</ele>
        <time>2020-06-01T19:48:00Z</time>
      </trkpt>
      <trkpt lat="43.34687" lon="1.27657">
        <ele>188.44</ele>
        <time>2020-06-01T19:47:40Z</time>
      </trkpt>
      <trkpt lat="43.34654" lon="1.27644">
        <ele>188.895</ele>
        <time>2020-06-01T19:47:20Z</time>
      </trkpt>
      <trkpt lat="43.34649" lon="1.27662">
        <ele>188.221</ele>
        <time>2020-06-01T19:47:00Z</time>
      </trkpt>
      <trkpt lat="43.34681" lon="1.27685">
        <ele>187.485</ele>
        <time>2020-06-01T19:46:40Z</time>
      </trkpt>
      <trkpt lat="43.34688" lon="1.27705">
        <ele>186.968</ele>
        <time>2020-06-01T19:46:20Z</time>
      </trkpt>
      <trkpt lat="43.34669" lon="1.27712">
        <ele>186.423</ele>
        <time>2020-06-01T19:46:00Z</time>
      </trkpt>
      <trkpt lat="43.34631" lon="1.27684">
        <ele>187.408</ele>
        <time>2020-06-01T19:45:40Z</time>
      </trkpt>
      <trkpt lat="43.34567" lon="1.2767">
        <ele>185.616</ele>
        <time>2020-06-01T19:45:20Z</time>
      </trkpt>
      <trkpt lat="43.34557" lon="1.27689">
        <ele>183.606</ele>
        <time>2020-06-01T19:45:00Z</time>
      </trkpt>
      <trkpt lat="43.3461" lon="1.27761">
        <ele>181.364</ele>
        <time>2020-06-01T19:44:40Z</time>
      </trkpt>
      <trkpt lat="43.3474" lon="1.27845">
        <ele>180.231</ele>
        <time>2020-06-01T19:44:20Z</time>
      </trkpt>
      <trkpt lat="43.34822" lon="1.27874">
        <ele>180.487</ele>
        <time>2020-06-01T19:44:00Z</time>
      </trkpt>
      <trkpt lat="43.34888" lon="1.27885">
        <ele>180.326</ele>
        <time>2020-06-01T19:43:40Z</time>
      </trkpt>
      <trkpt lat="43.35089" lon="1.27842">
        <ele>181.771</ele>
        <time>2020-06-01T19:43:20Z</time>
      </trkpt>
      <trkpt lat="43.3518" lon="1.27837">
        <ele>181.897</ele>
        <time>2020-06-01T19:43:00Z</time>
      </trkpt>
      <trkpt lat="43.3523" lon="1.27849">
        <ele>179.771</ele>
        <time>2020-06-01T19:42:40Z</time>
      </trkpt>
      <trkpt lat="43.35247" lon="1.27844">
        <ele>179.974</ele>
        <time>2020-06-01T19:42:20Z</time>
      </trkpt>
      <trkpt lat="43.35244" lon="1.278">
        <ele>183.449</ele>
        <time>2020-06-01T19:42:00Z</time>
      </trkpt>
      <trkpt lat="43.35254" lon="1.27749">
        <ele>185.008</ele>
        <time>2020-06-01T19:41:40Z</time>
      </trkpt>
      <trkpt lat="43.35269" lon="1.27728">
        <ele>185.811</ele>
        <time>2020-06-01T19:41:20Z</time>
      </trkpt>
      <trkpt lat="43.35263" lon="1.27791">
        <ele>184.083</ele>
        <time>2020-06-01T19:41:00Z</time>
      </trkpt>
      <trkpt lat="43.35298" lon="1.28036">
        <ele>186.523</ele>
        <time>2020-06-01T19:40:40Z</time>
      </trkpt>
      <trkpt lat="43.35145" lon="1.2804">
        <ele>186.122</ele>
        <time>2020-06-01T19:40:20Z</time>
      </trkpt>
      <trkpt lat="43.35131" lon="1.28114">
        <ele>191.168</ele>
        <time>2020-06-01T19:40:00Z</time>
      </trkpt>
      <trkpt lat="43.35142" lon="1.28184">
        <ele>192.697</ele>
        <time>2020-06-01T19:39:40Z</time>
      </trkpt>
      <trkpt lat="43.35156" lon="1.28221">
        <ele>193.032</ele>
        <time>2020-06-01T19:39:20Z</time>
      </trkpt>
      <trkpt lat="43.35204" lon="1.28308">
        <ele>193.758</ele>
        <time>2020-06-01T19:39:00Z</time>
      </trkpt>
      <trkpt lat="43.35204" lon="1.28336">
        <ele>194.132</ele>
        <time>2020-06-01T19:38:40Z</time>
      </trkpt>
      <trkpt lat="43.35226" lon="1.28401">
        <ele>197.165</ele>
        <time>2020-06-01T19:38:20Z</time>
      </trkpt>
      <trkpt lat="43.35229" lon="1.28423">
        <ele>199.81</ele>
        <time>2020-06-01T19:38:00Z</time>
      </trkpt>
      <trkpt lat="43.35238" lon="1.28425">
        <ele>199.908</ele>
        <time>2020-06-01T19:37:40Z</time>
      </trkpt>
      <trkpt lat="43.35267" lon="1.28507">
        <ele>212.018</ele>
        <time>2020-06-01T19:37:20Z</time>
      </trkpt>
      <trkpt lat="43.35291" lon="1.28563">
        <ele>216.117</ele>
        <time>2020-10-31T18:09:45Z</time>
      </trkpt>
      <trkpt lat="43.35307" lon="1.28635">
        <ele>224.536</ele>
        <time>2020-06-01T19:36:20Z</time>
      </trkpt>
      <trkpt lat="43.35323" lon="1.28673">
        <ele>232.075</ele>
        <time>2020-06-01T19:36:00Z</time>
      </trkpt>
      <trkpt lat="43.35368" lon="1.28749">
        <ele>247.581</ele>
        <time>2020-06-01T19:35:40Z</time>
      </trkpt>
      <trkpt lat="43.35362" lon="1.28776">
        <ele>252.74</ele>
        <time>2020-06-01T19:35:20Z</time>
      </trkpt>
      <trkpt lat="43.35389" lon="1.28756">
        <ele>248.475</ele>
        <time>2020-06-01T19:35:00Z</time>
      </trkpt>
      <trkpt lat="43.3543" lon="1.28776">
        <ele>250.511</ele>
        <time>2020-06-01T19:34:40Z</time>
      </trkpt>
      <trkpt lat="43.35454" lon="1.28827">
        <ele>259.625</ele>
        <time>2020-06-01T19:34:20Z</time>
      </trkpt>
      <trkpt lat="43.35485" lon="1.28852">
        <ele>260.458</ele>
        <time>2020-06-01T19:34:00Z</time>
      </trkpt>
      <trkpt lat="43.35511" lon="1.28866">
        <ele>259.953</ele>
        <time>2020-06-01T19:33:40Z</time>
      </trkpt>
      <trkpt lat="43.35525" lon="1.28893">
        <ele>265.408</ele>
        <time>2020-06-01T19:33:20Z</time>
      </trkpt>
      <trkpt lat="43.35557" lon="1.28986">
        <ele>272.418</ele>
        <time>2020-06-01T19:33:00Z</time>
      </trkpt>
      <trkpt lat="43.35587" lon="1.29038">
        <ele>274.144</ele>
        <time>2020-06-01T19:32:40Z</time>
      </trkpt>
      <trkpt lat="43.35585" lon="1.29066">
        <ele>274.563</ele>
        <time>2020-06-01T19:32:20Z</time>
      </trkpt>
      <trkpt lat="43.35567" lon="1.29145">
        <ele>273.957</ele>
        <time>2020-06-01T19:32:00Z</time>
      </trkpt>
      <trkpt lat="43.35585" lon="1.29145">
        <ele>275.473</ele>
        <time>2020-06-01T19:31:40Z</time>
      </trkpt>
      <trkpt lat="43.35612" lon="1.29158">
        <ele>279.032</ele>
        <time>2020-06-01T19:31:20Z</time>
      </trkpt>
      <trkpt lat="43.35651" lon="1.29242">
        <ele>280.017</ele>
        <time>2020-06-01T19:31:00Z</time>
      </trkpt>
      <trkpt lat="43.35692" lon="1.29268">
        <ele>279.713</ele>
        <time>2020-06-01T19:30:40Z</time>
      </trkpt>
      <trkpt lat="43.35723" lon="1.29277">
        <ele>275.867</ele>
        <time>2020-06-01T19:30:20Z</time>
      </trkpt>
      <trkpt lat="43.35758" lon="1.29296">
        <ele>269.57</ele>
        <time>2020-06-01T19:30:00Z</time>
      </trkpt>
      <trkpt lat="43.35799" lon="1.29292">
        <ele>255.735</ele>
        <time>2020-10-31T18:02:45Z</time>
      </trkpt>
      <trkpt lat="43.35829" lon="1.29287">
        <ele>248.708</ele>
        <time>2020-10-31T18:02:25Z</time>
      </trkpt>
      <trkpt lat="43.35923" lon="1.29281">
        <ele>241.626</ele>
        <time>2020-06-01T19:28:40Z</time>
      </trkpt>
      <trkpt lat="43.36001" lon="1.29227">
        <ele>232.742</ele>
        <time>2020-06-01T19:28:00Z</time>
      </trkpt>
      <trkpt lat="43.36037" lon="1.29237">
        <ele>237.287</ele>
        <time>2020-06-01T19:27:40Z</time>
      </trkpt>
      <trkpt lat="43.3607" lon="1.29226">
        <ele>238.327</ele>
        <time>2020-06-01T19:27:20Z</time>
      </trkpt>
      <trkpt lat="43.36125" lon="1.29232">
        <ele>241.023</ele>
        <time>2020-06-01T19:27:00Z</time>
      </trkpt>
      <trkpt lat="43.36152" lon="1.29246">
        <ele>243.532</ele>
        <time>2020-06-01T19:26:40Z</time>
      </trkpt>
      <trkpt lat="43.36264" lon="1.29354">
        <ele>255.857</ele>
        <time>2020-06-01T19:26:20Z</time>
      </trkpt>
      <trkpt lat="43.36302" lon="1.29372">
        <ele>260.623</ele>
        <time>2020-06-01T19:26:00Z</time>
      </trkpt>
      <trkpt lat="43.3635" lon="1.29384">
        <ele>269.077</ele>
        <time>2020-06-01T19:25:40Z</time>
      </trkpt>
      <trkpt lat="43.36388" lon="1.29396">
        <ele>275.49</ele>
        <time>2020-06-01T19:25:20Z</time>
      </trkpt>
      <trkpt lat="43.36465" lon="1.29399">
        <ele>279.515</ele>
        <time>2020-06-01T19:25:00Z</time>
      </trkpt>
      <trkpt lat="43.36498" lon="1.29374">
        <ele>278.708</ele>
        <time>2020-06-01T19:24:40Z</time>
      </trkpt>
      <trkpt lat="43.36502" lon="1.29355">
        <ele>275.926</ele>
        <time>2020-06-01T19:24:20Z</time>
      </trkpt>
      <trkpt lat="43.36507" lon="1.29354">
        <ele>275.142</ele>
        <time>2020-06-01T19:24:00Z</time>
      </trkpt>
      <trkpt lat="43.36515" lon="1.29418">
        <ele>272.287</ele>
        <time>2020-06-01T19:23:40Z</time>
      </trkpt>
      <trkpt lat="43.36568" lon="1.29489">
        <ele>264.17</ele>
        <time>2020-06-01T19:23:20Z</time>
      </trkpt>
      <trkpt lat="43.36573" lon="1.29509">
        <ele>265.436</ele>
        <time>2020-06-01T19:23:00Z</time>
      </trkpt>
      <trkpt lat="43.36762" lon="1.29333">
        <ele>224.715</ele>
        <time>2020-06-01T19:22:00Z</time>
      </trkpt>
      <trkpt lat="43.36903" lon="1.29213">
        <ele>199.84</ele>
        <time>2020-06-01T19:20:20Z</time>
      </trkpt>
      <trkpt lat="43.3692" lon="1.29172">
        <ele>194.046</ele>
        <time>2020-06-01T19:20:00Z</time>
      </trkpt>
      <trkpt lat="43.36932" lon="1.29124">
        <ele>190.98</ele>
        <time>2020-06-01T19:19:40Z</time>
      </trkpt>
      <trkpt lat="43.36966" lon="1.28847">
        <ele>183.313</ele>
        <time>2020-06-01T19:19:20Z</time>
      </trkpt>
      <trkpt lat="43.36965" lon="1.288">
        <ele>176.658</ele>
        <time>2020-06-01T19:19:00Z</time>
      </trkpt>
      <trkpt lat="43.36972" lon="1.28779">
        <ele>174.208</ele>
        <time>2020-06-01T19:18:40Z</time>
      </trkpt>
      <trkpt lat="43.3699" lon="1.28771">
        <ele>175.103</ele>
        <time>2020-06-01T19:18:20Z</time>
      </trkpt>
      <trkpt lat="43.37005" lon="1.28744">
        <ele>173.021</ele>
        <time>2020-06-01T19:18:00Z</time>
      </trkpt>
      <trkpt lat="43.37027" lon="1.2873">
        <ele>172.811</ele>
        <time>2020-06-01T19:17:40Z</time>
      </trkpt>
      <trkpt lat="43.37169" lon="1.28723">
        <ele>172.091</ele>
        <time>2020-06-01T19:17:20Z</time>
      </trkpt>
      <trkpt lat="43.37219" lon="1.28727">
        <ele>172.217</ele>
        <time>2020-06-01T19:17:00Z</time>
      </trkpt>
      <trkpt lat="43.37311" lon="1.28745">
        <ele>171.756</ele>
        <time>2020-06-01T19:16:40Z</time>
      </trkpt>
      <trkpt lat="43.3737" lon="1.28782">
        <ele>171.731</ele>
        <time>2020-06-01T19:16:20Z</time>
      </trkpt>
      <trkpt lat="43.37531" lon="1.28926">
        <ele>172.277</ele>
        <time>2020-06-01T19:16:00Z</time>
      </trkpt>
      <trkpt lat="43.37559" lon="1.2897">
        <ele>172.751</ele>
        <time>2020-06-01T19:15:40Z</time>
      </trkpt>
      <trkpt lat="43.37585" lon="1.29017">
        <ele>173.564</ele>
        <time>2020-06-01T19:15:20Z</time>
      </trkpt>
      <trkpt lat="43.37558" lon="1.29089">
        <ele>180.239</ele>
        <time>2020-10-31T17:48:05Z</time>
      </trkpt>
      <trkpt lat="43.37613" lon="1.29148">
        <ele>179.908</ele>
        <time>2020-10-31T17:47:45Z</time>
      </trkpt>
      <trkpt lat="43.37609" lon="1.29191">
        <ele>180.908</ele>
        <time>2020-10-31T17:47:25Z</time>
      </trkpt>
      <trkpt lat="43.37591" lon="1.29206">
        <ele>181.326</ele>
        <time>2020-10-31T17:47:05Z</time>
      </trkpt>
      <trkpt lat="43.37583" lon="1.29222">
        <ele>182.025</ele>
        <time>2020-10-31T17:46:45Z</time>
      </trkpt>
      <trkpt lat="43.37563" lon="1.29306">
        <ele>183.096</ele>
        <time>2020-10-31T17:46:25Z</time>
      </trkpt>
      <trkpt lat="43.37643" lon="1.29298">
        <ele>181.062</ele>
        <time>2020-10-31T17:46:05Z</time>
      </trkpt>
      <trkpt lat="43.37707" lon="1.29332">
        <ele>180.011</ele>
        <time>2020-10-31T17:45:45Z</time>
      </trkpt>
      <trkpt lat="43.37766" lon="1.29354">
        <ele>176.036</ele>
        <time>2020-10-31T17:45:25Z</time>
      </trkpt>
      <trkpt lat="43.37779" lon="1.29372">
        <ele>174.872</ele>
        <time>2020-06-01T19:10:40Z</time>
      </trkpt>
      <trkpt lat="43.37818" lon="1.29513">
        <ele>174.946</ele>
        <time>2020-06-01T19:10:20Z</time>
      </trkpt>
      <trkpt lat="43.37879" lon="1.2983">
        <ele>173.989</ele>
        <time>2020-06-01T19:09:20Z</time>
      </trkpt>
      <trkpt lat="43.37895" lon="1.29875">
        <ele>173.344</ele>
        <time>2020-06-01T19:09:00Z</time>
      </trkpt>
      <trkpt lat="43.37914" lon="1.29962">
        <ele>182.608</ele>
        <time>2020-06-01T19:08:40Z</time>
      </trkpt>
      <trkpt lat="43.3792" lon="1.3001">
        <ele>188.426</ele>
        <time>2020-06-01T19:08:20Z</time>
      </trkpt>
      <trkpt lat="43.37914" lon="1.3005">
        <ele>194.133</ele>
        <time>2020-06-01T19:08:00Z</time>
      </trkpt>
      <trkpt lat="43.37898" lon="1.30081">
        <ele>203.278</ele>
        <time>2020-06-01T19:07:40Z</time>
      </trkpt>
      <trkpt lat="43.37913" lon="1.30117">
        <ele>206.215</ele>
        <time>2020-06-01T19:06:40Z</time>
      </trkpt>
      <trkpt lat="43.37888" lon="1.30115">
        <ele>212.871</ele>
        <time>2020-06-01T19:06:20Z</time>
      </trkpt>
      <trkpt lat="43.37881" lon="1.30145">
        <ele>221.06</ele>
        <time>2020-06-01T19:06:00Z</time>
      </trkpt>
      <trkpt lat="43.37849" lon="1.30181">
        <ele>237.975</ele>
        <time>2020-06-01T19:05:40Z</time>
      </trkpt>
      <trkpt lat="43.37837" lon="1.30247">
        <ele>242.091</ele>
        <time>2020-06-01T19:05:20Z</time>
      </trkpt>
      <trkpt lat="43.37812" lon="1.304">
        <ele>241.735</ele>
        <time>2020-06-01T19:05:00Z</time>
      </trkpt>
      <trkpt lat="43.37797" lon="1.30582">
        <ele>238.128</ele>
        <time>2020-06-01T19:04:40Z</time>
      </trkpt>
      <trkpt lat="43.37804" lon="1.30628">
        <ele>237.443</ele>
        <time>2020-06-01T19:04:20Z</time>
      </trkpt>
      <trkpt lat="43.37841" lon="1.30631">
        <ele>239.308</ele>
        <time>2020-06-01T19:04:00Z</time>
      </trkpt>
      <trkpt lat="43.3796" lon="1.30682">
        <ele>246.814</ele>
        <time>2020-06-01T19:03:40Z</time>
      </trkpt>
      <trkpt lat="43.3811" lon="1.30708">
        <ele>263.468</ele>
        <time>2020-06-01T19:03:20Z</time>
      </trkpt>
      <trkpt lat="43.38161" lon="1.30842">
        <ele>275.965</ele>
        <time>2020-06-01T19:03:00Z</time>
      </trkpt>
      <trkpt lat="43.38193" lon="1.30886">
        <ele>277.055</ele>
        <time>2020-06-01T19:02:40Z</time>
      </trkpt>
      <trkpt lat="43.38234" lon="1.30898">
        <ele>274.441</ele>
        <time>2020-06-01T19:02:20Z</time>
      </trkpt>
      <trkpt lat="43.38338" lon="1.30918">
        <ele>265.39</ele>
        <time>2020-06-01T19:02:00Z</time>
      </trkpt>
      <trkpt lat="43.38344" lon="1.30936">
        <ele>264.265</ele>
        <time>2020-06-01T19:01:40Z</time>
      </trkpt>
      <trkpt lat="43.38344" lon="1.31064">
        <ele>264.211</ele>
        <time>2020-06-01T19:01:20Z</time>
      </trkpt>
      <trkpt lat="43.38409" lon="1.31086">
        <ele>253.045</ele>
        <time>2020-06-01T19:01:00Z</time>
      </trkpt>
      <trkpt lat="43.38493" lon="1.31089">
        <ele>240.898</ele>
        <time>2020-06-01T19:00:40Z</time>
      </trkpt>
      <trkpt lat="43.38676" lon="1.31108">
        <ele>226.723</ele>
        <time>2020-06-01T19:00:20Z</time>
      </trkpt>
      <trkpt lat="43.38716" lon="1.30849">
        <ele>228.908</ele>
        <time>2020-06-01T19:00:00Z</time>
      </trkpt>
      <trkpt lat="43.38786" lon="1.30867">
        <ele>233.613</ele>
        <time>2020-06-01T18:59:40Z</time>
      </trkpt>
      <trkpt lat="43.38925" lon="1.30888">
        <ele>247.121</ele>
        <time>2020-06-01T18:59:20Z</time>
      </trkpt>
      <trkpt lat="43.39071" lon="1.30849">
        <ele>266.861</ele>
        <time>2020-06-01T18:59:00Z</time>
      </trkpt>
      <trkpt lat="43.39165" lon="1.30836">
        <ele>278.794</ele>
        <time>2020-06-01T18:58:40Z</time>
      </trkpt>
      <trkpt lat="43.3929" lon="1.30874">
        <ele>274.35</ele>
        <time>2020-06-01T18:58:20Z</time>
      </trkpt>
      <trkpt lat="43.39384" lon="1.30878">
        <ele>264.939</ele>
        <time>2020-06-01T18:58:00Z</time>
      </trkpt>
      <trkpt lat="43.39431" lon="1.30891">
        <ele>262.854</ele>
        <time>2020-06-01T18:57:40Z</time>
      </trkpt>
      <trkpt lat="43.39464" lon="1.30916">
        <ele>261.12</ele>
        <time>2020-06-01T18:57:20Z</time>
      </trkpt>
      <trkpt lat="43.39502" lon="1.30958">
        <ele>255.464</ele>
        <time>2020-06-01T18:57:00Z</time>
      </trkpt>
      <trkpt lat="43.39559" lon="1.31001">
        <ele>250.937</ele>
        <time>2020-06-01T18:56:40Z</time>
      </trkpt>
      <trkpt lat="43.39614" lon="1.31055">
        <ele>254.022</ele>
        <time>2020-06-01T18:56:20Z</time>
      </trkpt>
      <trkpt lat="43.39647" lon="1.31083">
        <ele>256.608</ele>
        <time>2020-06-01T18:56:00Z</time>
      </trkpt>
      <trkpt lat="43.39699" lon="1.31154">
        <ele>263.514</ele>
        <time>2020-06-01T18:55:40Z</time>
      </trkpt>
      <trkpt lat="43.3973" lon="1.31183">
        <ele>267.004</ele>
        <time>2020-06-01T18:55:20Z</time>
      </trkpt>
      <trkpt lat="43.3979" lon="1.31203">
        <ele>270.953</ele>
        <time>2020-06-01T18:55:00Z</time>
      </trkpt>
      <trkpt lat="43.39832" lon="1.31236">
        <ele>273.942</ele>
        <time>2020-06-01T18:54:40Z</time>
      </trkpt>
      <trkpt lat="43.39848" lon="1.31262">
        <ele>276.318</ele>
        <time>2020-06-01T18:54:20Z</time>
      </trkpt>
      <trkpt lat="43.39889" lon="1.31275">
        <ele>278.477</ele>
        <time>2020-06-01T18:54:00Z</time>
      </trkpt>
      <trkpt lat="43.39945" lon="1.31273">
        <ele>277.182</ele>
        <time>2020-06-01T18:53:40Z</time>
      </trkpt>
      <trkpt lat="43.40007" lon="1.3128">
        <ele>279.238</ele>
        <time>2020-06-01T18:53:20Z</time>
      </trkpt>
      <trkpt lat="43.40043" lon="1.3127">
        <ele>277.992</ele>
        <time>2020-06-01T18:53:00Z</time>
      </trkpt>
      <trkpt lat="43.40068" lon="1.31296">
        <ele>277.915</ele>
        <time>2020-06-01T18:52:40Z</time>
      </trkpt>
      <trkpt lat="43.40099" lon="1.31319">
        <ele>272.03</ele>
        <time>2020-06-01T18:52:20Z</time>
      </trkpt>
      <trkpt lat="43.40207" lon="1.31273">
        <ele>260.108</ele>
        <time>2020-06-01T18:52:00Z</time>
      </trkpt>
      <trkpt lat="43.40245" lon="1.31234">
        <ele>255.71</ele>
        <time>2020-06-01T18:51:40Z</time>
      </trkpt>
      <trkpt lat="43.40274" lon="1.31232">
        <ele>252.255</ele>
        <time>2020-06-01T18:51:20Z</time>
      </trkpt>
      <trkpt lat="43.40311" lon="1.31192">
        <ele>244.934</ele>
        <time>2020-06-01T18:51:00Z</time>
      </trkpt>
      <trkpt lat="43.40337" lon="1.31145">
        <ele>243.18</ele>
        <time>2020-10-31T17:25:05Z</time>
      </trkpt>
      <trkpt lat="43.40352" lon="1.31087">
        <ele>231.076</ele>
        <time>2020-10-31T17:24:45Z</time>
      </trkpt>
      <trkpt lat="43.4045" lon="1.31061">
        <ele>217.725</ele>
        <time>2020-10-31T17:24:25Z</time>
      </trkpt>
      <trkpt lat="43.40421" lon="1.31033">
        <ele>211.26</ele>
        <time>2020-10-31T17:24:05Z</time>
      </trkpt>
      <trkpt lat="43.40445" lon="1.31024">
        <ele>204.086</ele>
        <time>2020-10-31T17:23:45Z</time>
      </trkpt>
      <trkpt lat="43.40568" lon="1.31038">
        <ele>182.61</ele>
        <time>2020-10-31T18:34:59Z</time>
      </trkpt>
      <trkpt lat="43.40596" lon="1.31089">
        <ele>180.053</ele>
        <time>2020-10-31T17:23:05Z</time>
      </trkpt>
      <trkpt lat="43.40613" lon="1.31078">
        <ele>182.068</ele>
        <time>2020-10-31T17:22:45Z</time>
      </trkpt>
      <trkpt lat="43.40611" lon="1.31022">
        <ele>176.408</ele>
        <time>2020-10-31T17:22:05Z</time>
      </trkpt>
      <trkpt lat="43.40634" lon="1.30942">
        <ele>173.219</ele>
        <time>2020-10-31T17:21:45Z</time>
      </trkpt>
      <trkpt lat="43.40721" lon="1.30937">
        <ele>173.409</ele>
        <time>2020-10-31T17:21:25Z</time>
      </trkpt>
      <trkpt lat="43.40781" lon="1.30927">
        <ele>173.419</ele>
        <time>2020-06-01T18:46:40Z</time>
      </trkpt>
      <trkpt lat="43.40805" lon="1.30947">
        <ele>176.08</ele>
        <time>2020-06-01T18:46:20Z</time>
      </trkpt>
      <trkpt lat="43.40868" lon="1.30968">
        <ele>176.886</ele>
        <time>2020-06-01T18:46:00Z</time>
      </trkpt>
      <trkpt lat="43.41069" lon="1.30969">
        <ele>175.095</ele>
        <time>2020-06-01T18:45:40Z</time>
      </trkpt>
      <trkpt lat="43.41097" lon="1.30835">
        <ele>169.12</ele>
        <time>2020-06-01T18:45:20Z</time>
      </trkpt>
      <trkpt lat="43.41202" lon="1.30855">
        <ele>168.246</ele>
        <time>2020-06-01T18:45:00Z</time>
      </trkpt>
      <trkpt lat="43.41251" lon="1.30899">
        <ele>171.73</ele>
        <time>2020-06-01T18:44:40Z</time>
      </trkpt>
      <trkpt lat="43.41309" lon="1.30916">
        <ele>171.883</ele>
        <time>2020-06-01T18:44:20Z</time>
      </trkpt>
      <trkpt lat="43.41453" lon="1.30991">
        <ele>170.488</ele>
        <time>2020-06-01T18:44:00Z</time>
      </trkpt>
      <trkpt lat="43.416" lon="1.31082">
        <ele>168.008</ele>
        <time>2020-06-01T18:43:40Z</time>
      </trkpt>
      <trkpt lat="43.41643" lon="1.31136">
        <ele>169.611</ele>
        <time>2020-06-01T18:43:20Z</time>
      </trkpt>
      <trkpt lat="43.41797" lon="1.31244">
        <ele>169.465</ele>
        <time>2020-06-01T18:43:00Z</time>
      </trkpt>
      <trkpt lat="43.41831" lon="1.31283">
        <ele>168.515</ele>
        <time>2020-06-01T18:42:40Z</time>
      </trkpt>
      <trkpt lat="43.41792" lon="1.31491">
        <ele>176.355</ele>
        <time>2020-06-01T18:42:00Z</time>
      </trkpt>
      <trkpt lat="43.41979" lon="1.31602">
        <ele>172.931</ele>
        <time>2020-06-01T18:41:20Z</time>
      </trkpt>
      <trkpt lat="43.42036" lon="1.31447">
        <ele>170.19</ele>
        <time>2020-06-01T18:41:00Z</time>
      </trkpt>
      <trkpt lat="43.42096" lon="1.31484">
        <ele>170.075</ele>
        <time>2020-06-01T18:40:40Z</time>
      </trkpt>
      <trkpt lat="43.42107" lon="1.31449">
        <ele>167.961</ele>
        <time>2020-06-01T18:40:20Z</time>
      </trkpt>
      <trkpt lat="43.42167" lon="1.3147">
        <ele>166.265</ele>
        <time>2020-06-01T18:39:40Z</time>
      </trkpt>
      <trkpt lat="43.42214" lon="1.31509">
        <ele>167.798</ele>
        <time>2020-06-01T18:39:00Z</time>
      </trkpt>
      <trkpt lat="43.42228" lon="1.31513">
        <ele>166.333</ele>
        <time>2020-06-01T18:38:40Z</time>
      </trkpt>
      <trkpt lat="43.4235" lon="1.3161">
        <ele>164.908</ele>
        <time>2020-06-01T18:38:20Z</time>
      </trkpt>
      <trkpt lat="43.42553" lon="1.31744">
        <ele>159.816</ele>
        <time>2020-06-01T18:37:20Z</time>
      </trkpt>
      <trkpt lat="43.42593" lon="1.31776">
        <ele>159.606</ele>
        <time>2020-06-01T18:37:00Z</time>
      </trkpt>
      <trkpt lat="43.42616" lon="1.31785">
        <ele>159.364</ele>
        <time>2020-06-01T18:36:40Z</time>
      </trkpt>
      <trkpt lat="43.42728" lon="1.31898">
        <ele>159.938</ele>
        <time>2020-06-01T18:36:20Z</time>
      </trkpt>
      <trkpt lat="43.42877" lon="1.32044">
        <ele>159.024</ele>
        <time>2020-06-01T18:36:00Z</time>
      </trkpt>
      <trkpt lat="43.42784" lon="1.32204">
        <ele>170.123</ele>
        <time>2020-06-01T18:35:40Z</time>
      </trkpt>
      <trkpt lat="43.42762" lon="1.3225">
        <ele>174.698</ele>
        <time>2020-06-01T18:35:20Z</time>
      </trkpt>
      <trkpt lat="43.42711" lon="1.32322">
        <ele>182.784</ele>
        <time>2020-06-01T18:35:00Z</time>
      </trkpt>
      <trkpt lat="43.42672" lon="1.32362">
        <ele>192.618</ele>
        <time>2020-06-01T18:34:40Z</time>
      </trkpt>
      <trkpt lat="43.42606" lon="1.32481">
        <ele>217.021</ele>
        <time>2020-06-01T18:34:20Z</time>
      </trkpt>
      <trkpt lat="43.42596" lon="1.32527">
        <ele>222.996</ele>
        <time>2020-06-01T18:34:00Z</time>
      </trkpt>
      <trkpt lat="43.42566" lon="1.32591">
        <ele>231.908</ele>
        <time>2020-06-01T18:33:40Z</time>
      </trkpt>
      <trkpt lat="43.42528" lon="1.32787">
        <ele>263.025</ele>
        <time>2020-06-01T18:33:20Z</time>
      </trkpt>
      <trkpt lat="43.4253" lon="1.32836">
        <ele>267.023</ele>
        <time>2020-06-01T18:33:00Z</time>
      </trkpt>
      <trkpt lat="43.42694" lon="1.32706">
        <ele>267.897</ele>
        <time>2020-06-01T18:32:40Z</time>
      </trkpt>
      <trkpt lat="43.42844" lon="1.3275">
        <ele>275.094</ele>
        <time>2020-06-01T18:32:20Z</time>
      </trkpt>
      <trkpt lat="43.42955" lon="1.32801">
        <ele>275.07</ele>
        <time>2020-06-01T18:32:00Z</time>
      </trkpt>
      <trkpt lat="43.43076" lon="1.32904">
        <ele>266.129</ele>
        <time>2020-06-01T18:31:40Z</time>
      </trkpt>
      <trkpt lat="43.43156" lon="1.32964">
        <ele>261.714</ele>
        <time>2020-10-31T17:05:25Z</time>
      </trkpt>
      <trkpt lat="43.43231" lon="1.33001">
        <ele>260.32</ele>
        <time>2020-06-01T18:31:00Z</time>
      </trkpt>
      <trkpt lat="43.43343" lon="1.33001">
        <ele>265.044</ele>
        <time>2020-06-01T18:30:40Z</time>
      </trkpt>
      <trkpt lat="43.43416" lon="1.32942">
        <ele>261.377</ele>
        <time>2020-06-01T18:30:20Z</time>
      </trkpt>
      <trkpt lat="43.43452" lon="1.32941">
        <ele>255.842</ele>
        <time>2020-06-01T18:30:00Z</time>
      </trkpt>
      <trkpt lat="43.43546" lon="1.32959">
        <ele>248.108</ele>
        <time>2020-06-01T18:29:40Z</time>
      </trkpt>
      <trkpt lat="43.43629" lon="1.3293">
        <ele>226.217</ele>
        <time>2020-06-01T18:29:20Z</time>
      </trkpt>
      <trkpt lat="43.43792" lon="1.32979">
        <ele>224.652</ele>
        <time>2020-06-01T18:28:00Z</time>
      </trkpt>
      <trkpt lat="43.43858" lon="1.32975">
        <ele>223.358</ele>
        <time>2020-10-31T17:01:45Z</time>
      </trkpt>
      <trkpt lat="43.43893" lon="1.32976">
        <ele>224.371</ele>
        <time>2020-10-31T17:01:25Z</time>
      </trkpt>
      <trkpt lat="43.43914" lon="1.32953">
        <ele>220.497</ele>
        <time>2020-10-31T17:01:05Z</time>
      </trkpt>
      <trkpt lat="43.44028" lon="1.33001">
        <ele>230.016</ele>
        <time>2020-06-01T18:27:00Z</time>
      </trkpt>
      <trkpt lat="43.44074" lon="1.33004">
        <ele>229.451</ele>
        <time>2020-06-01T18:26:40Z</time>
      </trkpt>
      <trkpt lat="43.44096" lon="1.33017">
        <ele>229.557</ele>
        <time>2020-10-31T17:00:05Z</time>
      </trkpt>
      <trkpt lat="43.4418" lon="1.33041">
        <ele>230.761</ele>
        <time>2020-06-01T18:26:20Z</time>
      </trkpt>
      <trkpt lat="43.44293" lon="1.33042">
        <ele>236.234</ele>
        <time>2020-06-01T18:26:00Z</time>
      </trkpt>
      <trkpt lat="43.44327" lon="1.33051">
        <ele>237.989</ele>
        <time>2020-06-01T18:25:40Z</time>
      </trkpt>
      <trkpt lat="43.44362" lon="1.33049">
        <ele>235.008</ele>
        <time>2020-06-01T18:25:20Z</time>
      </trkpt>
      <trkpt lat="43.44366" lon="1.33164">
        <ele>231.008</ele>
        <time>2020-06-01T18:25:00Z</time>
      </trkpt>
      <trkpt lat="43.44356" lon="1.33242">
        <ele>228.362</ele>
        <time>2020-06-01T18:24:40Z</time>
      </trkpt>
      <trkpt lat="43.44659" lon="1.33365">
        <ele>214.922</ele>
        <time>2020-10-31T16:57:45Z</time>
      </trkpt>
      <trkpt lat="43.44752" lon="1.33399">
        <ele>213.06</ele>
        <time>2020-06-01T18:24:20Z</time>
      </trkpt>
      <trkpt lat="43.44802" lon="1.33396">
        <ele>212.146</ele>
        <time>2020-06-01T18:24:00Z</time>
      </trkpt>
      <trkpt lat="43.44868" lon="1.33413">
        <ele>210.155</ele>
        <time>2020-06-01T18:23:40Z</time>
      </trkpt>
      <trkpt lat="43.44918" lon="1.33441">
        <ele>210.08</ele>
        <time>2020-06-01T18:23:20Z</time>
      </trkpt>
      <trkpt lat="43.44943" lon="1.33323">
        <ele>210.066</ele>
        <time>2020-06-01T18:23:00Z</time>
      </trkpt>
      <trkpt lat="43.44917" lon="1.3314">
        <ele>187.07</ele>
        <time>2020-10-31T16:55:45Z</time>
      </trkpt>
      <trkpt lat="43.44956" lon="1.33064">
        <ele>175.163</ele>
        <time>2020-06-01T18:22:00Z</time>
      </trkpt>
      <trkpt lat="43.45014" lon="1.32826">
        <ele>167.068</ele>
        <time>2020-06-01T18:21:40Z</time>
      </trkpt>
      <trkpt lat="43.4502" lon="1.32726">
        <ele>166.008</ele>
        <time>2020-06-01T18:21:20Z</time>
      </trkpt>
      <trkpt lat="43.45117" lon="1.32726">
        <ele>166.003</ele>
        <time>2020-06-01T18:21:00Z</time>
      </trkpt>
      <trkpt lat="43.45166" lon="1.32542">
        <ele>158.521</ele>
        <time>2020-06-01T18:20:40Z</time>
      </trkpt>
      <trkpt lat="43.45242" lon="1.32528">
        <ele>158.011</ele>
        <time>2020-06-01T18:20:20Z</time>
      </trkpt>
      <trkpt lat="43.45338" lon="1.32533">
        <ele>158.578</ele>
        <time>2020-06-01T18:20:00Z</time>
      </trkpt>
      <trkpt lat="43.45362" lon="1.32544">
        <ele>159.354</ele>
        <time>2020-06-01T18:19:40Z</time>
      </trkpt>
      <trkpt lat="43.4539" lon="1.32529">
        <ele>157.223</ele>
        <time>2020-06-01T18:19:20Z</time>
      </trkpt>
      <trkpt lat="43.45507" lon="1.32567">
        <ele>158.028</ele>
        <time>2020-06-01T18:19:00Z</time>
      </trkpt>
      <trkpt lat="43.45579" lon="1.32611">
        <ele>158.344</ele>
        <time>2020-06-01T18:18:40Z</time>
      </trkpt>
      <trkpt lat="43.4563" lon="1.32681">
        <ele>162.728</ele>
        <time>2020-06-01T18:18:20Z</time>
      </trkpt>
      <trkpt lat="43.45649" lon="1.32689">
        <ele>162.151</ele>
        <time>2020-10-31T16:51:05Z</time>
      </trkpt>
      <trkpt lat="43.45703" lon="1.32748">
        <ele>163.296</ele>
        <time>2020-10-31T16:50:25Z</time>
      </trkpt>
      <trkpt lat="43.45763" lon="1.32879">
        <ele>164.408</ele>
        <time>2020-10-31T16:49:25Z</time>
      </trkpt>
      <trkpt lat="43.45807" lon="1.32883">
        <ele>162.424</ele>
        <time>2020-10-31T16:49:05Z</time>
      </trkpt>
      <trkpt lat="43.4591" lon="1.33042">
        <ele>161.631</ele>
        <time>2020-10-31T16:48:25Z</time>
      </trkpt>
      <trkpt lat="43.45959" lon="1.33139">
        <ele>158.996</ele>
        <time>2020-10-31T16:48:05Z</time>
      </trkpt>
      <trkpt lat="43.46057" lon="1.33381">
        <ele>159.945</ele>
        <time>2020-10-31T16:47:25Z</time>
      </trkpt>
      <trkpt lat="43.46088" lon="1.33474">
        <ele>162.991</ele>
        <time>2020-10-31T16:47:05Z</time>
      </trkpt>
      <trkpt lat="43.46089" lon="1.33513">
        <ele>164.17</ele>
        <time>2020-10-31T16:46:45Z</time>
      </trkpt>
      <trkpt lat="43.46111" lon="1.33576">
        <ele>164.735</ele>
        <time>2020-10-31T16:46:25Z</time>
      </trkpt>
      <trkpt lat="43.46148" lon="1.33699">
        <ele>161.861</ele>
        <time>2020-10-31T16:45:45Z</time>
      </trkpt>
      <trkpt lat="43.46136" lon="1.33817">
        <ele>166.065</ele>
        <time>2020-06-01T18:11:00Z</time>
      </trkpt>
      <trkpt lat="43.46108" lon="1.33798">
        <ele>165.858</ele>
        <time>2020-06-01T18:10:40Z</time>
      </trkpt>
      <trkpt lat="43.46082" lon="1.33798">
        <ele>166.053</ele>
        <time>2020-06-01T18:10:20Z</time>
      </trkpt>
      <trkpt lat="43.46066" lon="1.33891">
        <ele>168.008</ele>
        <time>2020-06-01T18:10:00Z</time>
      </trkpt>
      <trkpt lat="43.46027" lon="1.34057">
        <ele>180.226</ele>
        <time>2020-10-31T16:43:25Z</time>
      </trkpt>
      <trkpt lat="43.46012" lon="1.34161">
        <ele>187.242</ele>
        <time>2020-10-31T16:43:05Z</time>
      </trkpt>
      <trkpt lat="43.46012" lon="1.34235">
        <ele>190.568</ele>
        <time>2020-10-31T16:42:45Z</time>
      </trkpt>
      <trkpt lat="43.46004" lon="1.34242">
        <ele>190.738</ele>
        <time>2020-10-31T16:42:25Z</time>
      </trkpt>
      <trkpt lat="43.45999" lon="1.3432">
        <ele>193.694</ele>
        <time>2020-10-31T16:42:05Z</time>
      </trkpt>
      <trkpt lat="43.46021" lon="1.34435">
        <ele>196.173</ele>
        <time>2020-10-31T16:41:45Z</time>
      </trkpt>
      <trkpt lat="43.46084" lon="1.34442">
        <ele>192.088</ele>
        <time>2020-10-31T16:41:25Z</time>
      </trkpt>
      <trkpt lat="43.46159" lon="1.34425">
        <ele>187.894</ele>
        <time>2020-10-31T16:41:05Z</time>
      </trkpt>
      <trkpt lat="43.46224" lon="1.34442">
        <ele>191.278</ele>
        <time>2020-10-31T16:40:45Z</time>
      </trkpt>
      <trkpt lat="43.4626" lon="1.34422">
        <ele>194.231</ele>
        <time>2020-10-31T16:40:25Z</time>
      </trkpt>
      <trkpt lat="43.46283" lon="1.34387">
        <ele>195.216</ele>
        <time>2020-06-01T18:07:20Z</time>
      </trkpt>
      <trkpt lat="43.46298" lon="1.34334">
        <ele>192.808</ele>
        <time>2020-06-01T18:07:00Z</time>
      </trkpt>
      <trkpt lat="43.46359" lon="1.34436">
        <ele>199.627</ele>
        <time>2020-10-31T16:39:05Z</time>
      </trkpt>
      <trkpt lat="43.46393" lon="1.34472">
        <ele>199.807</ele>
        <time>2020-10-31T16:38:45Z</time>
      </trkpt>
      <trkpt lat="43.46415" lon="1.34559">
        <ele>196.899</ele>
        <time>2020-10-31T16:38:25Z</time>
      </trkpt>
      <trkpt lat="43.46477" lon="1.3461">
        <ele>194.423</ele>
        <time>2020-10-31T16:38:05Z</time>
      </trkpt>
      <trkpt lat="43.46523" lon="1.34699">
        <ele>195.739</ele>
        <time>2020-06-01T18:05:40Z</time>
      </trkpt>
      <trkpt lat="43.46557" lon="1.34564">
        <ele>200.028</ele>
        <time>2020-06-01T18:05:20Z</time>
      </trkpt>
      <trkpt lat="43.46621" lon="1.34612">
        <ele>197.283</ele>
        <time>2020-06-01T18:05:00Z</time>
      </trkpt>
      <trkpt lat="43.46756" lon="1.34639">
        <ele>191.849</ele>
        <time>2020-06-01T18:04:40Z</time>
      </trkpt>
      <trkpt lat="43.46913" lon="1.34738">
        <ele>184.153</ele>
        <time>2020-10-31T16:35:45Z</time>
      </trkpt>
      <trkpt lat="43.46974" lon="1.34759">
        <ele>184.046</ele>
        <time>2020-06-01T18:03:40Z</time>
      </trkpt>
      <trkpt lat="43.46993" lon="1.34778">
        <ele>184.051</ele>
        <time>2020-10-31T16:35:05Z</time>
      </trkpt>
      <trkpt lat="43.47011" lon="1.34755">
        <ele>184.008</ele>
        <time>2020-06-01T18:03:00Z</time>
      </trkpt>
      <trkpt lat="43.47137" lon="1.34781">
        <ele>189.509</ele>
        <time>2020-06-01T18:02:00Z</time>
      </trkpt>
      <trkpt lat="43.47164" lon="1.34698">
        <ele>192.881</ele>
        <time>2020-10-31T16:33:05Z</time>
      </trkpt>
      <trkpt lat="43.47194" lon="1.34573">
        <ele>194.641</ele>
        <time>2020-10-31T16:32:45Z</time>
      </trkpt>
      <trkpt lat="43.47106" lon="1.34455">
        <ele>168.456</ele>
        <time>2020-10-31T16:32:25Z</time>
      </trkpt>
      <trkpt lat="43.47151" lon="1.34241">
        <ele>155.772</ele>
        <time>2020-06-01T18:00:40Z</time>
      </trkpt>
      <trkpt lat="43.47191" lon="1.34246">
        <ele>155.871</ele>
        <time>2020-06-01T18:00:20Z</time>
      </trkpt>
      <trkpt lat="43.47243" lon="1.34278">
        <ele>156.356</ele>
        <time>2020-06-01T18:00:00Z</time>
      </trkpt>
      <trkpt lat="43.47299" lon="1.34346">
        <ele>157.372</ele>
        <time>2020-06-01T17:59:40Z</time>
      </trkpt>
      <trkpt lat="43.47342" lon="1.34409">
        <ele>157.176</ele>
        <time>2020-06-01T17:59:20Z</time>
      </trkpt>
      <trkpt lat="43.47365" lon="1.34467">
        <ele>158.649</ele>
        <time>2020-06-01T17:59:00Z</time>
      </trkpt>
      <trkpt lat="43.47441" lon="1.34555">
        <ele>163.274</ele>
        <time>2020-06-01T17:58:40Z</time>
      </trkpt>
      <trkpt lat="43.47576" lon="1.34671">
        <ele>158.808</ele>
        <time>2020-06-01T17:58:20Z</time>
      </trkpt>
      <trkpt lat="43.4766" lon="1.34711">
        <ele>157.515</ele>
        <time>2020-10-31T16:29:25Z</time>
      </trkpt>
      <trkpt lat="43.4777" lon="1.34736">
        <ele>157.641</ele>
        <time>2020-06-01T17:57:40Z</time>
      </trkpt>
      <trkpt lat="43.47839" lon="1.34742">
        <ele>158.471</ele>
        <time>2020-10-31T16:28:45Z</time>
      </trkpt>
      <trkpt lat="43.47855" lon="1.34731">
        <ele>155.821</ele>
        <time>2020-10-31T16:28:25Z</time>
      </trkpt>
      <trkpt lat="43.47915" lon="1.34765">
        <ele>160.097</ele>
        <time>2020-10-31T16:27:25Z</time>
      </trkpt>
      <trkpt lat="43.47905" lon="1.34825">
        <ele>161.046</ele>
        <time>2020-06-01T17:56:00Z</time>
      </trkpt>
      <trkpt lat="43.47887" lon="1.34862">
        <ele>162.171</ele>
        <time>2020-06-01T17:55:40Z</time>
      </trkpt>
      <trkpt lat="43.47882" lon="1.34949">
        <ele>163.257</ele>
        <time>2020-06-01T17:55:20Z</time>
      </trkpt>
      <trkpt lat="43.47914" lon="1.34972">
        <ele>163.021</ele>
        <time>2020-06-01T17:55:00Z</time>
      </trkpt>
      <trkpt lat="43.47943" lon="1.35027">
        <ele>162.034</ele>
        <time>2020-06-01T17:54:20Z</time>
      </trkpt>
      <trkpt lat="43.48015" lon="1.35083">
        <ele>162.099</ele>
        <time>2020-06-01T17:54:00Z</time>
      </trkpt>
      <trkpt lat="43.48114" lon="1.35398">
        <ele>161.008</ele>
        <time>2020-06-01T17:53:00Z</time>
      </trkpt>
      <trkpt lat="43.4823" lon="1.35632">
        <ele>161.008</ele>
        <time>2020-06-01T17:52:40Z</time>
      </trkpt>
      <trkpt lat="43.48246" lon="1.35648">
        <ele>161.026</ele>
        <time>2020-06-01T17:52:20Z</time>
      </trkpt>
      <trkpt lat="43.48308" lon="1.35664">
        <ele>161.025</ele>
        <time>2020-06-01T17:52:00Z</time>
      </trkpt>
      <trkpt lat="43.48447" lon="1.35733">
        <ele>160.07</ele>
        <time>2020-06-01T17:51:40Z</time>
      </trkpt>
      <trkpt lat="43.48847" lon="1.3595">
        <ele>158.096</ele>
        <time>2020-06-01T17:51:20Z</time>
      </trkpt>
      <trkpt lat="43.48916" lon="1.36048">
        <ele>159.085</ele>
        <time>2020-06-01T17:50:40Z</time>
      </trkpt>
      <trkpt lat="43.49257" lon="1.36366">
        <ele>157.03</ele>
        <time>2020-10-31T16:20:25Z</time>
      </trkpt>
      <trkpt lat="43.49267" lon="1.36445">
        <ele>157.456</ele>
        <time>2020-10-31T16:19:45Z</time>
      </trkpt>
      <trkpt lat="43.49237" lon="1.36491">
        <ele>158.05</ele>
        <time>2020-10-31T16:19:25Z</time>
      </trkpt>
      <trkpt lat="43.49281" lon="1.3661">
        <ele>158.083</ele>
        <time>2020-10-31T16:18:05Z</time>
      </trkpt>
      <trkpt lat="43.49264" lon="1.36688">
        <ele>158.028</ele>
        <time>2020-10-31T16:17:45Z</time>
      </trkpt>
      <trkpt lat="43.4929" lon="1.36733">
        <ele>158.308</ele>
        <time>2020-10-31T16:17:05Z</time>
      </trkpt>
      <trkpt lat="43.49282" lon="1.36751">
        <ele>158.007</ele>
        <time>2020-06-01T17:48:00Z</time>
      </trkpt>
      <trkpt lat="43.49229" lon="1.36759">
        <ele>158.043</ele>
        <time>2020-06-01T17:47:40Z</time>
      </trkpt>
      <trkpt lat="43.49193" lon="1.36792">
        <ele>158.013</ele>
        <time>2020-06-01T17:47:20Z</time>
      </trkpt>
      <trkpt lat="43.49189" lon="1.36847">
        <ele>158.717</ele>
        <time>2020-06-01T17:47:00Z</time>
      </trkpt>
      <trkpt lat="43.49164" lon="1.36908">
        <ele>160.053</ele>
        <time>2020-06-01T17:46:20Z</time>
      </trkpt>
      <trkpt lat="43.49231" lon="1.37057">
        <ele>160.032</ele>
        <time>2020-06-01T17:46:00Z</time>
      </trkpt>
      <trkpt lat="43.4934" lon="1.37214">
        <ele>160.097</ele>
        <time>2020-06-01T17:45:40Z</time>
      </trkpt>
      <trkpt lat="43.49326" lon="1.37235">
        <ele>160.063</ele>
        <time>2020-06-01T17:45:20Z</time>
      </trkpt>
      <trkpt lat="43.49265" lon="1.37269">
        <ele>161.097</ele>
        <time>2020-06-01T17:45:00Z</time>
      </trkpt>
      <trkpt lat="43.49222" lon="1.37315">
        <ele>161.05</ele>
        <time>2020-06-01T17:44:40Z</time>
      </trkpt>
      <trkpt lat="43.4919" lon="1.37379">
        <ele>161.715</ele>
        <time>2020-06-01T17:44:20Z</time>
      </trkpt>
      <trkpt lat="43.49163" lon="1.37477">
        <ele>162.008</ele>
        <time>2020-06-01T17:44:00Z</time>
      </trkpt>
      <trkpt lat="43.49151" lon="1.37596">
        <ele>162.017</ele>
        <time>2020-06-01T17:43:40Z</time>
      </trkpt>
      <trkpt lat="43.49151" lon="1.37701">
        <ele>162.089</ele>
        <time>2020-06-01T17:43:20Z</time>
      </trkpt>
      <trkpt lat="43.49153" lon="1.37762">
        <ele>162.085</ele>
        <time>2020-06-01T17:43:00Z</time>
      </trkpt>
      <trkpt lat="43.49137" lon="1.37813">
        <ele>162.043</ele>
        <time>2020-06-01T17:42:40Z</time>
      </trkpt>
      <trkpt lat="43.4911" lon="1.37844">
        <ele>161.659</ele>
        <time>2020-06-01T17:42:20Z</time>
      </trkpt>
      <trkpt lat="43.49226" lon="1.37985">
        <ele>161.098</ele>
        <time>2020-06-01T17:41:40Z</time>
      </trkpt>
      <trkpt lat="43.49247" lon="1.38031">
        <ele>161.043</ele>
        <time>2020-06-01T17:41:20Z</time>
      </trkpt>
      <trkpt lat="43.49652" lon="1.38409">
        <ele>159.089</ele>
        <time>2020-06-01T17:40:40Z</time>
      </trkpt>
      <trkpt lat="43.49782" lon="1.38397">
        <ele>159.043</ele>
        <time>2020-06-01T17:40:20Z</time>
      </trkpt>
      <trkpt lat="43.50059" lon="1.38446">
        <ele>157.086</ele>
        <time>2020-06-01T17:39:40Z</time>
      </trkpt>
      <trkpt lat="43.50193" lon="1.38572">
        <ele>157.081</ele>
        <time>2020-06-01T17:39:20Z</time>
      </trkpt>
      <trkpt lat="43.50247" lon="1.38544">
        <ele>157.008</ele>
        <time>2020-06-01T17:39:00Z</time>
      </trkpt>
      <trkpt lat="43.50278" lon="1.38544">
        <ele>157.011</ele>
        <time>2020-06-01T17:38:40Z</time>
      </trkpt>
      <trkpt lat="43.5033" lon="1.38571">
        <ele>157.047</ele>
        <time>2020-06-01T17:38:20Z</time>
      </trkpt>
      <trkpt lat="43.50479" lon="1.38497">
        <ele>155.845</ele>
        <time>2020-06-01T17:37:40Z</time>
      </trkpt>
      <trkpt lat="43.50506" lon="1.38439">
        <ele>155.013</ele>
        <time>2020-06-01T17:37:20Z</time>
      </trkpt>
      <trkpt lat="43.50505" lon="1.38373">
        <ele>155.059</ele>
        <time>2020-06-01T17:37:00Z</time>
      </trkpt>
      <trkpt lat="43.50656" lon="1.38209">
        <ele>151.288</ele>
        <time>2020-06-01T17:36:00Z</time>
      </trkpt>
      <trkpt lat="43.50682" lon="1.38248">
        <ele>151.093</ele>
        <time>2020-06-01T17:35:40Z</time>
      </trkpt>
      <trkpt lat="43.50725" lon="1.38263">
        <ele>150.459</ele>
        <time>2020-06-01T17:35:20Z</time>
      </trkpt>
      <trkpt lat="43.5082" lon="1.38506">
        <ele>151.093</ele>
        <time>2020-10-31T16:03:25Z</time>
      </trkpt>
      <trkpt lat="43.50845" lon="1.38551">
        <ele>151.086</ele>
        <time>2020-10-31T16:03:05Z</time>
      </trkpt>
      <trkpt lat="43.50935" lon="1.38439">
        <ele>148.921</ele>
        <time>2020-06-01T17:34:40Z</time>
      </trkpt>
      <trkpt lat="43.50978" lon="1.38398">
        <ele>147.008</ele>
        <time>2020-10-31T16:02:25Z</time>
      </trkpt>
      <trkpt lat="43.51114" lon="1.38692">
        <ele>146.115</ele>
        <time>2020-06-01T17:32:40Z</time>
      </trkpt>
      <trkpt lat="43.51135" lon="1.38806">
        <ele>146.105</ele>
        <time>2020-06-01T17:31:40Z</time>
      </trkpt>
      <trkpt lat="43.51131" lon="1.38821">
        <ele>146.344</ele>
        <time>2020-06-01T17:31:20Z</time>
      </trkpt>
      <trkpt lat="43.51066" lon="1.38845">
        <ele>148.645</ele>
        <time>2020-06-01T17:31:00Z</time>
      </trkpt>
      <trkpt lat="43.51061" lon="1.3886">
        <ele>148.821</ele>
        <time>2020-06-01T17:30:40Z</time>
      </trkpt>
      <trkpt lat="43.51308" lon="1.3878">
        <ele>149.05</ele>
        <time>2020-06-01T17:30:20Z</time>
      </trkpt>
      <trkpt lat="43.51374" lon="1.39072">
        <ele>148.655</ele>
        <time>2020-06-01T17:29:20Z</time>
      </trkpt>
      <trkpt lat="43.51428" lon="1.39208">
        <ele>150.261</ele>
        <time>2020-06-01T17:29:00Z</time>
      </trkpt>
      <trkpt lat="43.51449" lon="1.39244">
        <ele>150.255</ele>
        <time>2020-06-01T17:28:40Z</time>
      </trkpt>
      <trkpt lat="43.51717" lon="1.39462">
        <ele>151.048</ele>
        <time>2020-06-01T17:28:20Z</time>
      </trkpt>
      <trkpt lat="43.51672" lon="1.39562">
        <ele>151.013</ele>
        <time>2020-10-31T15:55:45Z</time>
      </trkpt>
      <trkpt lat="43.51555" lon="1.39722">
        <ele>149.008</ele>
        <time>2020-06-01T17:27:40Z</time>
      </trkpt>
      <trkpt lat="43.51521" lon="1.39777">
        <ele>145.026</ele>
        <time>2020-06-01T17:26:40Z</time>
      </trkpt>
      <trkpt lat="43.51525" lon="1.39816">
        <ele>145.042</ele>
        <time>2020-06-01T17:26:20Z</time>
      </trkpt>
      <trkpt lat="43.51661" lon="1.4022">
        <ele>144.868</ele>
        <time>2020-06-01T17:24:20Z</time>
      </trkpt>
      <trkpt lat="43.51742" lon="1.40479">
        <ele>144.717</ele>
        <time>2020-06-01T17:23:40Z</time>
      </trkpt>
      <trkpt lat="43.51791" lon="1.40589">
        <ele>144.923</ele>
        <time>2020-06-01T17:23:20Z</time>
      </trkpt>
      <trkpt lat="43.51845" lon="1.40712">
        <ele>145.072</ele>
        <time>2020-06-01T17:22:40Z</time>
      </trkpt>
      <trkpt lat="43.51895" lon="1.40835">
        <ele>144.067</ele>
        <time>2020-06-01T17:22:20Z</time>
      </trkpt>
      <trkpt lat="43.52018" lon="1.40998">
        <ele>144.013</ele>
        <time>2020-06-01T17:20:40Z</time>
      </trkpt>
      <trkpt lat="43.52439" lon="1.41321">
        <ele>143.047</ele>
        <time>2020-10-31T15:45:25Z</time>
      </trkpt>
      <trkpt lat="43.52556" lon="1.41415">
        <ele>143.12</ele>
        <time>2020-06-01T17:17:40Z</time>
      </trkpt>
      <trkpt lat="43.52614" lon="1.41487">
        <ele>143.025</ele>
        <time>2020-06-01T17:17:20Z</time>
      </trkpt>
      <trkpt lat="43.52631" lon="1.41497">
        <ele>143.108</ele>
        <time>2020-06-01T17:17:00Z</time>
      </trkpt>
      <trkpt lat="43.52637" lon="1.41484">
        <ele>143.526</ele>
        <time>2020-10-31T15:44:05Z</time>
      </trkpt>
      <trkpt lat="43.52622" lon="1.41416">
        <ele>145.424</ele>
        <time>2020-10-31T15:43:45Z</time>
      </trkpt>
      <trkpt lat="43.52622" lon="1.41353">
        <ele>146.688</ele>
        <time>2020-10-31T15:43:25Z</time>
      </trkpt>
      <trkpt lat="43.52632" lon="1.41302">
        <ele>147.073</ele>
        <time>2020-10-31T15:43:05Z</time>
      </trkpt>
      <trkpt lat="43.52789" lon="1.41381">
        <ele>147.079</ele>
        <time>2020-10-31T15:42:05Z</time>
      </trkpt>
      <trkpt lat="43.52853" lon="1.41426">
        <ele>147.068</ele>
        <time>2020-10-31T15:41:05Z</time>
      </trkpt>
      <trkpt lat="43.52921" lon="1.4149">
        <ele>147.063</ele>
        <time>2020-10-31T15:40:25Z</time>
      </trkpt>
      <trkpt lat="43.53073" lon="1.41095">
        <ele>148.059</ele>
        <time>2020-10-31T15:39:25Z</time>
      </trkpt>
      <trkpt lat="43.53159" lon="1.41191">
        <ele>148.083</ele>
        <time>2020-06-01T17:11:00Z</time>
      </trkpt>
      <trkpt lat="43.53191" lon="1.41237">
        <ele>148.036</ele>
        <time>2020-06-01T17:10:40Z</time>
      </trkpt>
      <trkpt lat="43.53296" lon="1.41076">
        <ele>148.021</ele>
        <time>2020-06-01T17:10:00Z</time>
      </trkpt>
      <trkpt lat="43.53397" lon="1.41023">
        <ele>148.008</ele>
        <time>2020-06-01T17:09:20Z</time>
      </trkpt>
      <trkpt lat="43.53463" lon="1.40922">
        <ele>148.014</ele>
        <time>2020-06-01T17:08:40Z</time>
      </trkpt>
      <trkpt lat="43.53519" lon="1.40859">
        <ele>148.022</ele>
        <time>2020-06-01T17:08:00Z</time>
      </trkpt>
      <trkpt lat="43.53597" lon="1.40915">
        <ele>148.042</ele>
        <time>2020-06-01T17:07:40Z</time>
      </trkpt>
      <trkpt lat="43.53607" lon="1.40916">
        <ele>148.048</ele>
        <time>2020-10-31T15:35:25Z</time>
      </trkpt>
      <trkpt lat="43.53632" lon="1.40883">
        <ele>148.094</ele>
        <time>2020-10-31T15:35:05Z</time>
      </trkpt>
      <trkpt lat="43.53674" lon="1.4081">
        <ele>148.093</ele>
        <time>2020-06-01T17:06:20Z</time>
      </trkpt>
      <trkpt lat="43.53696" lon="1.40828">
        <ele>148.038</ele>
        <time>2020-10-31T15:34:25Z</time>
      </trkpt>
      <trkpt lat="43.53805" lon="1.40925">
        <ele>148.054</ele>
        <time>2020-10-31T15:34:05Z</time>
      </trkpt>
      <trkpt lat="43.53815" lon="1.40987">
        <ele>148.058</ele>
        <time>2020-10-31T15:33:25Z</time>
      </trkpt>
      <trkpt lat="43.53858" lon="1.41062">
        <ele>148.041</ele>
        <time>2020-10-31T15:33:05Z</time>
      </trkpt>
      <trkpt lat="43.53893" lon="1.41103">
        <ele>148.076</ele>
        <time>2020-10-31T15:32:45Z</time>
      </trkpt>
      <trkpt lat="43.54028" lon="1.40855">
        <ele>148.008</ele>
        <time>2020-10-31T15:32:25Z</time>
      </trkpt>
      <trkpt lat="43.54026" lon="1.40842">
        <ele>148.023</ele>
        <time>2020-10-31T15:32:05Z</time>
      </trkpt>
      <trkpt lat="43.54078" lon="1.40745">
        <ele>148.049</ele>
        <time>2020-10-31T15:31:45Z</time>
      </trkpt>
      <trkpt lat="43.54322" lon="1.40986">
        <ele>148.095</ele>
        <time>2020-06-01T17:01:20Z</time>
      </trkpt>
      <trkpt lat="43.54293" lon="1.41049">
        <ele>148.064</ele>
        <time>2020-10-31T15:31:05Z</time>
      </trkpt>
      <trkpt lat="43.54501" lon="1.41299">
        <ele>146.39</ele>
        <time>2020-06-01T17:00:00Z</time>
      </trkpt>
      <trkpt lat="43.54556" lon="1.41322">
        <ele>147.069</ele>
        <time>2020-06-01T16:59:40Z</time>
      </trkpt>
      <trkpt lat="43.54696" lon="1.41462">
        <ele>147.084</ele>
        <time>2020-06-01T16:59:00Z</time>
      </trkpt>
      <trkpt lat="43.54699" lon="1.41516">
        <ele>146.02</ele>
        <time>2020-06-01T16:58:40Z</time>
      </trkpt>
      <trkpt lat="43.54876" lon="1.41639">
        <ele>146.074</ele>
        <time>2020-10-31T15:28:45Z</time>
      </trkpt>
      <trkpt lat="43.54741" lon="1.41961">
        <ele>145.067</ele>
        <time>2020-10-31T15:28:25Z</time>
      </trkpt>
      <trkpt lat="43.54791" lon="1.41996">
        <ele>145.052</ele>
        <time>2020-10-31T15:28:05Z</time>
      </trkpt>
      <trkpt lat="43.54847" lon="1.4215">
        <ele>145.008</ele>
        <time>2020-10-31T15:27:45Z</time>
      </trkpt>
      <trkpt lat="43.54802" lon="1.42249">
        <ele>145.014</ele>
        <time>2020-06-01T16:57:20Z</time>
      </trkpt>
      <trkpt lat="43.5476" lon="1.42824">
        <ele>143.004</ele>
        <time>2020-06-01T16:57:00Z</time>
      </trkpt>
      <trkpt lat="43.54764" lon="1.42867">
        <ele>142.953</ele>
        <time>2020-06-01T16:56:40Z</time>
      </trkpt>
      <trkpt lat="43.54906" lon="1.43029">
        <ele>142.08</ele>
        <time>2020-06-01T16:55:40Z</time>
      </trkpt>
      <trkpt lat="43.55057" lon="1.42995">
        <ele>143.026</ele>
        <time>2020-06-01T16:55:20Z</time>
      </trkpt>
      <trkpt lat="43.55295" lon="1.43033">
        <ele>143.085</ele>
        <time>2020-06-01T16:55:00Z</time>
      </trkpt>
      <trkpt lat="43.55335" lon="1.43116">
        <ele>143.02</ele>
        <time>2020-06-01T16:54:40Z</time>
      </trkpt>
      <trkpt lat="43.55743" lon="1.43185">
        <ele>143.056</ele>
        <time>2020-06-01T16:52:00Z</time>
      </trkpt>
      <trkpt lat="43.55832" lon="1.43162">
        <ele>143.01</ele>
        <time>2020-06-01T16:51:20Z</time>
      </trkpt>
      <trkpt lat="43.55899" lon="1.43124">
        <ele>142.843</ele>
        <time>2020-06-01T16:51:00Z</time>
      </trkpt>
      <trkpt lat="43.55968" lon="1.4307">
        <ele>142.618</ele>
        <time>2020-06-01T16:50:40Z</time>
      </trkpt>
      <trkpt lat="43.56031" lon="1.42999">
        <ele>143.008</ele>
        <time>2020-06-01T16:50:20Z</time>
      </trkpt>
      <trkpt lat="43.56085" lon="1.42922">
        <ele>143.805</ele>
        <time>2020-06-01T16:50:00Z</time>
      </trkpt>
      <trkpt lat="43.56154" lon="1.42856">
        <ele>143.132</ele>
        <time>2020-06-01T16:49:40Z</time>
      </trkpt>
      <trkpt lat="43.56198" lon="1.42822">
        <ele>143.012</ele>
        <time>2020-06-01T16:49:20Z</time>
      </trkpt>
      <trkpt lat="43.56286" lon="1.42778">
        <ele>143.071</ele>
        <time>2020-06-01T16:49:00Z</time>
      </trkpt>
      <trkpt lat="43.56367" lon="1.42757">
        <ele>143.027</ele>
        <time>2020-06-01T16:48:40Z</time>
      </trkpt>
      <trkpt lat="43.56437" lon="1.42756">
        <ele>142.896</ele>
        <time>2020-06-01T16:48:20Z</time>
      </trkpt>
      <trkpt lat="43.56525" lon="1.42773">
        <ele>142.091</ele>
        <time>2020-06-01T16:48:00Z</time>
      </trkpt>
      <trkpt lat="43.56619" lon="1.42818">
        <ele>142.087</ele>
        <time>2020-06-01T16:47:40Z</time>
      </trkpt>
      <trkpt lat="43.56743" lon="1.42919">
        <ele>140.021</ele>
        <time>2020-06-01T16:47:20Z</time>
      </trkpt>
      <trkpt lat="43.56816" lon="1.4296">
        <ele>140.014</ele>
        <time>2020-10-31T15:17:05Z</time>
      </trkpt>
      <trkpt lat="43.56914" lon="1.42979">
        <ele>137.449</ele>
        <time>2020-10-31T15:16:45Z</time>
      </trkpt>
      <trkpt lat="43.56982" lon="1.42969">
        <ele>136.108</ele>
        <time>2020-10-31T15:16:25Z</time>
      </trkpt>
      <trkpt lat="43.5707" lon="1.42966">
        <ele>134.511</ele>
        <time>2020-10-31T15:16:05Z</time>
      </trkpt>
      <trkpt lat="43.57099" lon="1.42944">
        <ele>135.583</ele>
        <time>2020-06-01T16:45:20Z</time>
      </trkpt>
      <trkpt lat="43.57154" lon="1.42918">
        <ele>136.323</ele>
        <time>2020-10-31T15:15:25Z</time>
      </trkpt>
      <trkpt lat="43.57197" lon="1.42888">
        <ele>138.178</ele>
        <time>2020-06-01T16:44:40Z</time>
      </trkpt>
      <trkpt lat="43.57335" lon="1.42866">
        <ele>136.694</ele>
        <time>2020-06-01T16:44:20Z</time>
      </trkpt>
      <trkpt lat="43.57525" lon="1.4279">
        <ele>134.693</ele>
        <time>2020-10-31T15:14:25Z</time>
      </trkpt>
      <trkpt lat="43.57569" lon="1.42756">
        <ele>134.978</ele>
        <time>2020-10-31T15:14:05Z</time>
      </trkpt>
      <trkpt lat="43.57608" lon="1.42742">
        <ele>135.064</ele>
        <time>2020-10-31T15:13:45Z</time>
      </trkpt>
      <trkpt lat="43.57725" lon="1.42747">
        <ele>133.368</ele>
        <time>2020-10-31T15:13:25Z</time>
      </trkpt>
      <trkpt lat="43.57802" lon="1.42738">
        <ele>133.861</ele>
        <time>2020-10-31T15:13:05Z</time>
      </trkpt>
      <trkpt lat="43.57853" lon="1.42723">
        <ele>134.916</ele>
        <time>2020-10-31T15:12:45Z</time>
      </trkpt>
      <trkpt lat="43.57861" lon="1.42699">
        <ele>135.808</ele>
        <time>2020-10-31T15:12:25Z</time>
      </trkpt>
      <trkpt lat="43.57979" lon="1.42699">
        <ele>135.72</ele>
        <time>2020-10-31T15:12:05Z</time>
      </trkpt>
      <trkpt lat="43.57996" lon="1.42726">
        <ele>134.673</ele>
        <time>2020-10-31T15:11:45Z</time>
      </trkpt>
      <trkpt lat="43.58074" lon="1.42738">
        <ele>133.992</ele>
        <time>2020-10-31T15:11:25Z</time>
      </trkpt>
      <trkpt lat="43.58154" lon="1.4276">
        <ele>133.478</ele>
        <time>2020-10-31T15:11:05Z</time>
      </trkpt>
      <trkpt lat="43.58247" lon="1.42791">
        <ele>134.024</ele>
        <time>2020-10-31T15:10:45Z</time>
      </trkpt>
      <trkpt lat="43.58391" lon="1.42856">
        <ele>137.013</ele>
        <time>2020-10-31T15:10:25Z</time>
      </trkpt>
      <trkpt lat="43.58491" lon="1.42912">
        <ele>136.548</ele>
        <time>2020-10-31T15:10:05Z</time>
      </trkpt>
      <trkpt lat="43.58823" lon="1.43156">
        <ele>135.934</ele>
        <time>2020-10-31T15:09:45Z</time>
      </trkpt>
      <trkpt lat="43.59248" lon="1.43514">
        <ele>134.498</ele>
        <time>2020-10-31T15:09:05Z</time>
      </trkpt>
      <trkpt lat="43.59299" lon="1.43504">
        <ele>135.831</ele>
        <time>2020-10-31T15:08:45Z</time>
      </trkpt>
      <trkpt lat="43.59901" lon="1.43748">
        <ele>133.676</ele>
        <time>2020-06-01T16:38:00Z</time>
      </trkpt>
      <trkpt lat="43.59962" lon="1.44056">
        <ele>139.308</ele>
        <time>2020-10-31T15:07:45Z</time>
      </trkpt>
      <trkpt lat="43.60093" lon="1.43916">
        <ele>136.624</ele>
        <time>2020-06-01T16:37:20Z</time>
      </trkpt>
      <trkpt lat="43.6009" lon="1.43926">
        <ele>137.631</ele>
        <time>2020-10-31T15:07:05Z</time>
      </trkpt>
      <trkpt lat="43.60093" lon="1.43916">
        <ele>136.696</ele>
        <time>2020-06-01T16:37:20Z</time>
      </trkpt>
      <trkpt lat="43.60128" lon="1.43974">
        <ele>142.081</ele>
        <time>2020-10-31T15:06:25Z</time>
      </trkpt>
      <trkpt lat="43.60148" lon="1.43978">
        <ele>142.177</ele>
        <time>2020-10-31T15:06:05Z</time>
      </trkpt>
      <trkpt lat="43.60172" lon="1.44">
        <ele>143.036</ele>
        <time>2020-10-31T15:05:45Z</time>
      </trkpt>
      <trkpt lat="43.60215" lon="1.44074">
        <ele>143.061</ele>
        <time>2020-10-31T15:05:25Z</time>
      </trkpt>
      <trkpt lat="43.60247" lon="1.44115">
        <ele>143.067</ele>
        <time>2020-10-31T15:05:05Z</time>
      </trkpt>
      <trkpt lat="43.60282" lon="1.44148">
        <ele>143.071</ele>
        <time>2020-10-31T15:04:45Z</time>
      </trkpt>
      <trkpt lat="43.60302" lon="1.44192">
        <ele>143.114</ele>
        <time>2020-10-31T15:04:25Z</time>
      </trkpt>
      <trkpt lat="43.60367" lon="1.44239">
        <ele>143.029</ele>
        <time>2020-10-31T15:04:05Z</time>
      </trkpt>
      <trkpt lat="43.60378" lon="1.44259">
        <ele>143.008</ele>
        <time>2020-10-31T15:03:45Z</time>
      </trkpt>
      <trkpt lat="43.60382" lon="1.44306">
        <ele>143.014</ele>
        <time>2020-10-31T15:03:25Z</time>
      </trkpt>
      <trkpt lat="43.60653" lon="1.44244">
        <ele>142.004</ele>
        <time>2020-10-31T15:03:05Z</time>
      </trkpt>
      <trkpt lat="43.60791" lon="1.4419">
        <ele>141.024</ele>
        <time>2020-10-31T15:02:45Z</time>
      </trkpt>
      <trkpt lat="43.60791" lon="1.4419">
        <ele>141.024</ele>
        <time>2020-10-31T15:02:45Z</time>
      </trkpt>
    </trkseg>
  </trk>
</gpx>